     2.10           OBSERVATION DATA    G (GPS)             RINEX VERSION / TYPE
teqc 2000Jul20 Karen Wendt 20040525 20:09:10UTC             PGM / RUN BY / DATE
Linux 2.0.36|Pentium II|gcc -static|Linux|486/DX+           COMMENT
teqc 2000Jul20 Karen Wendt 20040525 20:09:10UTC             COMMENT
BIT 2 OF LLI FLAGS DATA COLLECTED UNDER A/S CONDITION       COMMENT
flrn Flat_1956_USGS_(Reno_Net)                              MARKER NAME
JLS USGS                                                    OBSERVER / AGENCY
ZE1200331017 ASHTECH UZ-12 ZE00                             REC # / TYPE / VERS
CR619992805 ASH701945B_M NONE                               ANT # / TYPE
 -2389821.0000 -4275607.0000  4074408.0000                  APPROX POSITION XYZ
        1.1691        0.0000        0.0000                  ANTENNA: DELTA H/E/N
     1     1                                                WAVELENGTH FACT L1/2
     5    C1    L1    L2    P1    P2                        # / TYPES OF OBSERV
    30.0000                                                 INTERVAL
                                                            COMMENT
National Earthquake Hazard Reduction Program                COMMENT
Crustal Strain Project                                      COMMENT
345 Middlefield Road, MS/977                                COMMENT
U.S. Geological Survey, Menlo Park, California 94025        COMMENT
Contact: kwendt@usgs.gov (Ph: 650-329-4866)                 COMMENT
Antenna height is vertical to base of antenna               COMMENT
                                                            COMMENT
SNR is mapped to RINEX snr flag value [1-9]                 COMMENT
L1: 1 -> 1; 90 -> 5; 210 -> 9                               COMMENT
L2: 1 -> 1; 150 -> 5; 250 -> 9                              COMMENT
  2004     5    17    19    47   30.0000000     GPS         TIME OF FIRST OBS
                                                            END OF HEADER
 04  5 17 19 47 30.0000000  0  9G22G21G 3G19G18G15G 9G14G26
  20650277.915    11384119.52254   8872194.63352  20650278.339    20650272.593
  20923015.950    11560651.99154   8998538.59052  20923017.608    20923013.083
  21946589.862    11337487.88553   8840115.33852  21946591.615    21946589.288
  24285968.449    11169684.85853   8722316.33252  24285970.484    24285967.237
  20624030.481    11516468.15754   8969016.00052  20624031.325    20624026.952
  20406012.363    11330221.72054   8832892.07552  20406013.705    20406011.020
  24182420.470    11279924.80253   8792977.71952  24182422.902    24182422.997
  23309379.684    11136466.73153   8693656.41052  23309381.793    23309379.786
  24162754.876    11702615.47353   9105729.27752  24162756.668    24162754.932
 04  5 17 19 48  0.0000000  0  9G22G21G 3G19G18G15G 9G14G26
  20645985.168    11361561.57644   8854617.01842  20645985.741    20645979.975
  20931501.135    11605242.43844   9033284.37742  20931502.903    20931498.392
  21939501.634    11300239.65343   8811090.74842  21939503.496    21939501.180
  24267933.422    11074910.20443   8648466.00342  24267935.416    24267932.328
  20630261.207    11549213.40344   8994531.76342  20630262.529    20630258.213
  20398098.624    11288635.16844   8800486.98142  20398100.066    20398097.340
  24169378.442    11211389.71843   8739573.89442  24169380.885    24169380.933
  23288571.899    11027122.46043   8608453.20442  23288574.223    23288572.436
  24183182.363    11809963.67343   9189377.14242  24183184.268    24183182.531
 04  5 17 19 48 30.0000000  0  9G22G21G 3G19G18G15G 9G14G26
  20641757.873    11339347.58444   8837307.41642  20641758.559    20641752.813
  20940051.758    11650176.52044   9068297.93042  20940053.562    20940049.091
  21932515.844    11263529.12543   8782485.14442  21932517.744    21932515.366
  24249945.770    10980385.78243   8574810.66442  24249947.820    24249944.832
  20636548.606    11582255.08544   9020278.51342  20636550.157    20636545.851
  20390242.555    11247351.58644   8768317.96242  20390244.068    20390241.351
  24156396.203    11143167.85043   8686414.12042  24156398.611    24156398.550
  23267798.211    10917956.71643   8523389.09842  23267800.638    23267798.808
  24203659.527    11917573.06443   9273228.54042  24203661.705    24203659.898
 04  5 17 19 49  0.0000000  0  9G22G21G 3G19G18G15G 9G14G26
  20637596.268    11317478.61644   8820266.66742  20637597.009    20637591.292
  20948668.068    11695455.76944   9103580.44142  20948669.899    20948665.475
  21925632.912    11227359.21043   8754300.80042  21925634.846    21925632.463
  24232006.755    10886116.07343   8501353.80742  24232008.785    24232005.873
  20642892.545    11615593.44044   9046256.43942  20642894.240    20642889.947
  20382444.759    11206374.16144   8736387.50742  20382446.330    20382443.601
  24143474.354    11075263.71543   8633501.92042  24143476.856    24143476.782
  23247059.321    10808973.71943   8438467.40042  23247061.859    23247060.029
  24224186.389    12025442.41943   9357282.48442  24224188.651    24224186.832
 04  5 17 19 49 30.0000000  0  9G22G21G 3G19G18G15G 9G14G26
  20633498.892    11295947.11044   8803488.87242  20633499.660    20633493.991
  20957348.739    11741073.11644   9139126.40842  20957350.590    20957346.209
  21918851.785    11191724.08043   8726533.17342  21918853.743    21918851.308
  24214115.378    10792096.61643   8428091.94442  24214117.365    24214114.520
  20649291.447    11649220.36144   9072459.21942  20649293.257    20649288.967
  20374704.210    11165697.52444   8704691.43042  20374705.826    20374703.110
  24130612.325    11007673.67943   8580834.46842  24130614.793    24130614.735
  23226354.402    10700168.96143   8353684.58042  23226356.977    23226355.166
  24244760.735    12133561.41143   9441530.98442  24244763.116    24244761.309
 04  5 17 19 50  0.0000000  0  9G22G21G 3G19G18G15G 9G14G26
  20629467.497    11274762.24444   8786981.19042  20629468.297    20629462.635
  20966095.693    11787038.69044   9174943.71542  20966097.544    20966093.193
  21912174.496    11156634.57043   8699190.70442  21912176.522    21912173.966
  24196274.020    10698339.60443   8355034.59242  24196275.918    24196273.044
  20655746.832    11683144.00644   9098893.21342  20655748.734    20655744.459
  20367023.016    11125332.74044   8673238.35942  20367024.651    20367021.964
  24117812.523    10940410.85943   8528421.97042  24117815.029    24117814.995
  23205685.708    10591554.82743   8269050.29442  23205688.354    23205686.586
  24265383.793    12241936.74743   9525979.23142  24265386.258    24265384.478
 04  5 17 19 50 30.0000000  0  9G22G21G 3G19G18G15G 9G14G26
  20625500.795    11253917.12944   8770738.24642  20625501.622    20625495.927
  20974907.674    11833345.99944   9211027.31142  20974909.529    20974905.215
  21905600.118    11122085.86743   8672269.64142  21905602.155    21905599.580
  24178481.856    10604841.53643   8282179.02042  24178483.658    24178480.860
  20662257.313    11717357.04044   9125552.70142  20662259.279    20662255.004
  20359400.251    11085274.88744   8642024.45242  20359401.886    20359399.191
  24105074.436    10873472.10543   8476261.98842  24105076.939    24105076.935
  23185052.622    10483127.56143   8184561.62542  23185055.262    23185053.518
  24286053.882    12350558.98543   9610619.84542  24286056.504    24286054.628
 04  5 17 19 51  0.0000000  0  9G22G21G 3G19G18G15G 9G14G26
  20621599.641    11233416.46144   8754763.69842  20621600.480    20621594.773
  20983785.705    11880000.32944   9247381.31642  20983787.564    20983783.246
  21899129.873    11088084.55243   8645775.11542  21899131.921    21899129.352
  24160740.485    10511610.23543   8209531.30342  24160742.223    24160739.559
  20668823.578    11751863.09244   9152440.51942  20668825.565    20668821.302
  20351837.221    11045530.92444   8611055.13642  20351838.861    20351836.170
  24092399.571    10806865.98643   8424361.20442  24092402.047    24092402.144
  23164456.651    10374895.29143   8100224.87742  23164459.246    23164457.539
  24306771.503    12459430.55343   9695454.76042  24306774.000    24306772.187
 04  5 17 19 51 30.0000000  0  9G22G21G 3G19G18G15G 9G14G26
  20617762.320    11213251.21444   8739050.52042  20617763.177    20617757.437
  20992728.159    11926993.13744   9283999.06342  20992730.016    20992725.702
  21892762.311    11054622.80343   8619701.02642  21892764.342    21892761.784
  24143048.722    10418639.54643   8137086.67342  24143050.419    24143047.818
  20675443.762    11786652.45844   9179549.10242  20675445.790    20675441.524
  20344332.504    11006093.40444   8580324.60542  20344334.147    20344331.457
  24079786.985    10740586.79543   8372715.14542  24079789.341    24079789.532
  23143896.535    10266851.64443   8016035.11842  23143899.152    23143897.447
  24327534.278    12568539.37143   9780474.53742  24327536.695    24327534.936
 04  5 17 19 52  0.0000000  0  9G22G21G 3G19G18G15G 9G14G26
  20613990.359    11193429.36944   8723604.92442  20613991.219    20613985.458
  21001736.713    11974333.26244   9320887.45142  21001738.563    21001734.256
  21886499.333    11021710.64743   8594055.19642  21886501.354    21886498.828
  24125408.682    10325940.89343   8064854.02342  24125410.393    24125407.858
  20682119.316    11821732.72444   9206884.36042  20682121.359    20682117.081
  20336888.096    10966972.68744   8549840.93442  20336889.747    20336887.020
  24067239.017    10674646.51243   8321333.16842  24067241.302    24067241.431
  23123374.539    10159008.08343   7932001.25842  23123377.189    23123375.430
  24348343.234    12677891.09343   9865683.60242  24348345.698    24348344.005
 04  5 17 19 52 30.0000000  0  9G22G21G 3G19G18G15G 9G14G26
  20610282.852    11173946.13644   8708423.18242  20610283.698    20610277.923
  21010810.509    12022016.30344   9358043.04542  21010812.405    21010808.034
  21880340.372    10989344.94343   8568835.17242  21880342.393    21880339.832
  24107820.173    10233512.62743   7992832.06142  24107821.878    24107819.300
  20688849.119    11857098.04944   9234441.74342  20688851.155    20688846.897
  20329503.439    10928166.17744   8519602.10342  20329505.132    20329502.380
  24054755.300    10609044.12843   8270214.46142  24054757.614    24054757.702
  23102890.294    10051363.05243   7848122.10042  23102892.998    23102891.183
  24369197.050    12787478.58743   9951076.38342  24369199.489    24369197.881
 04  5 17 19 53  0.0000000  0  9G22G21G 3G19G18G15G 9G14G26
  20606639.703    11154801.12044   8693504.98942  20606640.556    20606634.752
  21019949.589    12070042.42144   9395465.97542  21019951.524    21019947.126
  21874285.596    10957526.80643   8544041.82342  21874287.642    21874285.049
  24090283.673    10141357.56743   7921022.98742  24090285.387    24090282.740
  20695632.988    11892747.53544   9262220.55242  20695635.065    20695630.777
  20322178.907    10889675.52944   8489609.39442  20322180.603    20322177.860
  24042336.626    10543782.97443   8219361.64942  24042338.887    24042338.919
  23082444.334     9943919.10143   7764399.61242  23082447.012    23082445.153
  24390095.159    12897298.70143  10036650.42942  24390097.618    24390096.126
 04  5 17 19 53 30.0000000  0  9G22G21G 3G19G18G15G 9G14G26
  20603060.909    11135994.42144   8678850.42742  20603061.769    20603055.979
  21029154.092    12118412.49643   9433156.91742  21029156.052    21029151.667
  21868335.440    10926258.42143   8519676.85342  21868337.493    21868334.933
  24072799.779    10049478.80143   7849429.20642  24072801.556    24072798.777
  20702470.875    11928680.84544   9290220.51842  20702472.969    20702468.670
  20314914.869    10851502.90444   8459864.50542  20314916.589    20314913.848
  24029983.553    10478867.04143   8168777.81842  24029985.847    24029985.731
  23062037.279     9836679.71443   7680836.52642  23062039.958    23062038.128
  24411037.139    13007349.30643  10122404.07142  24411039.678    24411038.138
 04  5 17 19 54  0.0000000  0  9G22G21G 3G19G18G15G 9G14G26
  20599546.519    11117526.22144   8664459.60742  20599547.399    20599541.607
  21038424.248    12167127.24744   9471116.43742  21038426.185    21038421.811
  21862490.225    10895541.61743   8495741.68842  21862492.283    21862489.748
  24055369.199     9957880.31243   7778053.81442  24055371.020    24055368.166
  20709362.617    11964897.29744   9318441.12142  20709364.752    20709360.459
  20307711.796    10813650.66344   8430369.25242  20307713.541    20307710.813
  24017696.918    10414300.25843   8118466.05442  24017699.248    24017699.011
  23041669.943     9729648.62943   7597435.74142  23041672.550    23041670.738
  24432022.493    13117628.01043  10208335.44942  24432024.946    24432023.543
 04  5 17 19 54 30.0000000  0  9G22G21G 3G19G18G15G 9G14G26
  20596096.202    11099394.63644   8650331.09642  20596097.064    20596091.299
  21047759.685    12216185.20544   9509343.38642  21047761.629    21047757.262
  21856749.921    10865375.99843   8472236.01142  21856751.947    21856749.426
  24037992.137     9866562.65243   7706897.24942  24037994.016    24037990.873
  20716307.741    12001394.11744   9346880.19342  20716309.862    20716305.559
  20300569.729    10776118.63444   8401123.52442  20300571.434    20300568.686
  24005477.017    10350084.49943   8068427.79342  24005479.364    24005479.083
  23021342.315     9622826.47443   7514197.76442  23021344.888    23021343.043
  24453050.423    13228130.34843  10294441.08842  24453052.878    24453051.466
 04  5 17 19 55  0.0000000  0  9G22G21G 3G19G18G15G 9G14G26
  20592709.928    11081599.60444   8636464.83942  20592710.788    20592705.035
  21057160.628    12265587.27544   9547838.47542  21057162.518    21057158.199
  21851114.723    10835763.03143   8449160.97342  21851116.773    21851114.276
  24020669.124     9775529.26343   7635962.19842  24020671.043    24020667.743
  20723306.111    12038170.71944   9375537.27842  20723308.241    20723303.933
  20293488.962    10738909.08044   8372129.07242  20293490.683    20293487.929
  23993324.595    10286223.42543   8018665.92542  23993326.876    23993326.680
  23001055.163     9516216.78143   7431125.32442  23001057.688    23001055.753
  24474120.420    13338853.83743  10380719.03942  24474122.856    24474121.511
 04  5 17 19 55 30.0000000  0  9G22G21G 3G19G18G15G 9G14G26
  20589387.415    11064139.66944   8622859.69742  20589388.282    20589382.538
  21066626.854    12315332.52144   9586600.97142  21066628.734    21066624.429
  21845584.761    10806702.97743   8426516.77642  21845586.799    21845584.333
  24003400.544     9684782.07943   7565250.17242  24003402.532    24003399.056
  20730357.318    12075224.97144   9404410.71542  20730359.445    20730355.144
  20286469.744    10702022.79844   8343386.52242  20286471.443    20286468.692
  23981240.095    10222719.25343   7969182.14942  23981242.409    23981242.138
  22980808.714     9409821.16143   7348219.70742  22980811.259    22980809.259
  24495231.738    13449794.64043  10467166.32942  24495234.105    24495232.979
 04  5 17 19 56  0.0000000  0  8G22G21G 3G19G18G15G 9G14
  20586130.091    11047022.29544   8609521.48442  20586130.951    20586125.188
  21076159.875    12365428.85043   9625637.03542  21076161.736    21076157.465
  21840161.815    10778205.07143   8404310.62042  21840163.815    21840161.328
  23986188.440     9594331.75543   7494769.46442  23986190.459    23986186.858
  20737462.630    12112563.58044   9433505.72942  20737464.778    20737460.432
  20279513.821    10665469.18444   8314903.19542  20279515.536    20279512.744
  23969225.699    10159583.08443   7919985.13142  23969227.954    23969227.770
  22960605.026     9303650.22943   7265489.15142  22960607.574    22960605.514
 04  5 17 19 56 30.0000000  0  8G22G21G 3G19G18G15G 9G14
  20582934.553    11030229.65444   8596436.31342  20582935.419    20582929.634
  21085756.492    12415859.23043   9664933.40442  21085758.332    21085754.068
  21834842.699    10750252.83243   8382529.65642  21834844.709    21834842.169
  23969030.013     9504163.59543   7424508.61942  23969032.039    23969028.332
  20744618.604    12150168.36844   9462808.15742  20744620.765    20744616.401
  20272618.245    10629232.68244   8286666.96942  20272619.957    20272617.152
  23957278.695    10096801.17643   7871064.16842  23957280.872    23957280.782
  22940441.334     9197689.52943   7182922.43542  22940443.884    22940441.798
 04  5 17 19 57  0.0000000  0  8G22G21G 3G19G18G15G 9G14
  20579803.813    11013777.45044   8583616.41442  20579804.665    20579798.851
  21095419.730    12466639.79844   9704502.64542  21095421.573    21095417.295
  21829630.741    10722863.70843   8361187.48042  21829632.748    21829630.148
  23951928.844     9414296.53643   7354482.40642  23951930.877    23951927.020
  20751828.104    12188054.49344   9492329.80442  20751830.254    20751825.906
  20265786.391    10593331.18244   8258691.78142  20265788.139    20265785.325
  23945402.801    10034392.73043   7822434.22742  23945405.045    23945404.821
  22920321.250     9091958.01143   7100534.28142  22920323.760    22920321.675
 04  5 17 19 57 30.0000000  0  8G22G21G 3G19G18G15G 9G14
  20576735.245    10997652.00244   8571051.13442  20576736.105    20576730.256
  21105147.104    12517757.15643   9744334.32142  21105148.929    21105144.599
  21824523.574    10696025.31943   8340274.44942  21824525.607    21824522.948
  23934882.948     9324719.92043   7284682.50742  23934885.000    23934881.050
  20759088.297    12226207.05644   9522059.07142  20759090.461    20759086.105
  20259016.028    10557752.71444   8230968.30642  20259017.783    20259014.941
  23933596.039     9972347.70743   7774087.47242  23933598.280    23933597.949
  22900242.738     8986444.85943   7018316.28242  22900245.246    22900243.113
 04  5 17 19 58  0.0000000  0  8G22G21G 3G19G18G15G 9G14
  20573730.785    10981863.39244   8558748.32942  20573731.621    20573725.791
  21114940.579    12569222.13443   9784436.87042  21114942.431    21114938.091
  21819523.358    10669749.22243   8319799.56542  21819525.387    21819522.759
  23917894.909     9235447.36443   7215119.53342  23917896.965    23917892.942
  20766401.087    12264635.87044   9552003.59142  20766403.218    20766398.868
  20252309.506    10522509.67444   8203506.20042  20252311.257    20252308.415
  23921861.071     9910680.01843   7726034.75142  23921863.342    23921862.847
  22880208.365     8881163.52143   6936278.94042  22880210.887    22880208.722
 04  5 17 19 58 30.0000000  0  8G22G21G 3G19G18G15G 9G14
  20570789.629    10966407.46644   8546704.76042  20570790.481    20570784.627
  21124799.575    12621031.27443   9824807.59742  21124801.430    21124797.066
  21814629.766    10644033.14543   8299761.06942  21814631.767    21814629.124
  23900964.618     9146478.19243   7145792.94842  23900966.681    23900962.591
  20773765.491    12303336.01544   9582159.54342  20773767.605    20773763.270
  20245666.478    10487600.31244   8176304.10542  20245668.231    20245665.361
  23910197.762     9849389.54043   7678275.97242  23910200.009    23910199.583
  22860217.969     8776113.29743   6854421.66642  22860220.485    22860218.294
 04  5 17 19 59  0.0000000  0  8G22G21G 3G19G18G15G 9G14
  20567911.296    10951281.53144   8534918.31742  20567912.145    20567906.255
  21134723.649    12673182.39544   9865444.79442  21134725.510    21134721.134
  21809842.531    10618876.00843   8280158.10242  21809844.519    21809841.873
  23884092.162     9057812.72743   7076703.01842  23884094.159    23884090.088
  20781180.885    12342304.14544   9612524.31042  20781183.024    20781178.663
  20239086.838    10453023.99644   8149361.52042  20239088.579    20239085.703
  23898606.390     9788477.27643   7630811.94542  23898608.683    23898608.325
  22840271.585     8671294.49843   6772744.72342  22840274.117    22840271.833
 04  5 17 19 59 30.0000000  0  8G22G21G 3G19G18G15G 9G14
  20565096.097    10936487.52844   8523390.52642  20565096.943    20565091.082
  21144713.297    12725678.02843   9906350.44442  21144715.160    21144710.785
  21805162.272    10594281.06143   8260993.20942  21805164.264    21805161.621
  23867278.326     8969455.86743   7007853.56742  23867280.323    23867276.367
  20788647.521    12381541.51044   9643098.87342  20788649.632    20788645.308
  20232571.338    10418784.64144   8122681.50642  20232573.067    20232570.216
  23887088.111     9727948.61643   7583646.80142  23887090.397    23887090.079
  22820370.264     8566712.33043   6691252.16942  22820372.780    22820370.474
 04  5 17 20  0  0.0000000  0  8G22G21G 3G19G18G15G 9G14
  20562343.647    10922023.41444   8512119.79442  20562344.504    20562338.654
  21154768.203    12778516.69943   9947523.40342  21154770.063    21154765.701
  21800588.859    10570247.73343   8242265.94042  21800590.869    21800588.253
  23850523.493     8881408.91143   6939245.59642  23850525.530    23850521.591
  20796164.885    12421045.65844   9673881.31842  20796167.016    20796162.715
  20226119.985    10384882.46444   8096264.22642  20226121.727    20226118.867
  23875643.107     9667805.00943   7536781.72942  23875645.555    23875645.075
  22800514.137     8462367.77843   6609944.78942  22800516.620    22800514.318
 04  5 17 20  0 30.0000000  0  8G22G21G 3G19G18G15G 9G14
  20559653.423    10907886.26144   8501103.83742  20559654.288    20559648.447
  21164887.914    12831696.17843   9988961.92842  21164889.815    21164885.467
  21796122.039    10546774.21843   8223974.89342  21796124.033    21796121.430
  23833827.770     8793672.41243   6870879.53342  23833829.806    23833825.889
  20803732.367    12460813.07344   9704868.90642  20803734.496    20803730.229
  20219732.646    10351316.81144   8070109.17142  20219734.387    20219731.557
  23864271.604     9608047.60743   7490217.60242  23864274.164    23864273.692
  22780703.306     8358261.41343   6528822.99342  22780705.771    22780703.501
 04  5 17 20  1  0.0000000  0  8G22G21G 3G19G18G15G 9G14
  20557026.212    10894080.16244   8490345.84142  20557027.088    20557021.246
  21175073.305    12885220.73543  10030669.33742  21175075.199    21175070.887
  21791762.857    10523866.37243   8206124.61642  21791764.823    21791762.194
  23817192.506     8706253.59343   6802761.02642  23817194.520    23817190.644
  20811350.681    12500847.51044   9736064.56242  20811352.802    20811348.548
  20213410.507    10318093.76244   8044221.08142  20213412.269    20213409.412
  23852975.072     9548684.25343   7443960.53642  23852977.625    23852977.095
  22760939.127     8254400.48443   6447892.47342  22760941.655    22760939.377
 04  5 17 20  1 30.0000000  0  8G22G21G 3G19G18G15G 9G14
  20554461.468    10880602.25944   8479843.58542  20554462.335    20554456.489
  21185324.001    12939088.32343  10072644.05242  21185325.885    21185321.598
  21787510.980    10501522.71743   8188713.97842  21787512.975    21787510.353
  23800617.788     8619152.74543   6734890.27342  23800619.777    23800615.865
  20819019.134    12541145.36344   9767465.47542  20819021.265    20819017.005
  20207153.423    10285212.56544   8018599.37242  20207155.172    20207152.337
  23841753.684     9489715.55343   7398010.99442  23841756.205    23841755.544
  22741221.733     8150785.15243   6367153.31642  22741224.263    22741221.989
 04  5 17 20  2  0.0000000  0  8G22G21G 3G19G18G15G 9G14
  20551958.788    10867450.67944   8469595.60742  20551959.650    20551953.833
  21195639.733    12993297.62843  10114885.03442  21195641.613    21195637.359
  21783366.403    10479742.76143   8171742.57842  21783368.386    21783365.787
  23784103.807     8532371.35343   6667268.46442  23784105.807    23784101.888
  20826737.266    12581704.18244   9799069.73542  20826739.374    20826735.115
  20200961.419    10252673.42844   7993244.20442  20200963.166    20200960.330
  23830607.663     9431143.30543   7352370.37842  23830610.168    23830609.651
  22721551.380     8047416.88843   6286606.69642  22721553.905    22721551.628
 04  5 17 20  2 30.0000000  0  8G22G21G 3G19G18G15G 9G14
  20549518.225    10854625.37044   8459601.86942  20549519.073    20549513.238
  21206020.592    13047849.16843  10157392.68942  21206022.467    21206018.234
  21779329.393    10458528.06443   8155211.64542  21779331.395    21779328.769
  23767651.272     8445912.88843   6599898.28242  23767653.241    23767649.406
  20834504.887    12622523.15644   9830876.71142  20834507.010    20834502.716
  20194834.955    10220478.60244   7968157.33142  20194836.703    20194833.841
  23819537.870     9372971.31143   7307041.64742  23819540.323    23819539.859
  22701928.658     7944298.94543   6206255.13542  22701931.200    22701928.923
 04  5 17 20  3  0.0000000  0  8G22G21G 3G19G18G15G 9G14
  20547139.920    10842127.34144   8449863.15042  20547140.786    20547134.948
  21216466.871    13102744.52643  10200168.25742  21216468.747    21216464.522
  21775400.421    10437881.01843   8139123.03942  21775402.447    21775399.764
  23751260.930     8359781.34743   6532782.83242  23751262.864    23751259.056
  20842322.087    12663602.81144   9862886.81542  20842324.211    20842319.937
  20188774.686    10188631.59044   7943341.48042  20188776.425    20188773.550
  23808545.148     9315204.40243   7262028.56242  23808547.583    23808547.120
  22682354.380     7841435.45543   6126101.84242  22682356.888    22682354.584
 04  5 17 20  3 30.0000000  0  8G22G21G 3G19G18G15G 9G14
  20544823.381    10829953.83344   8440377.30542  20544824.260    20544818.400
  21226978.108    13157981.14043  10243209.73542  21226979.956    21226975.737
  21771579.086    10417799.86943   8123475.39442  21771581.135    21771578.449
  23734932.830     8273977.07543   6465922.41642  23734934.760    23734930.936
  20850188.225    12704939.58644   9895097.26842  20850190.328    20850186.109
  20182780.395    10157131.35944   7918795.84742  20182782.131    20182779.278
  23797629.538     9257842.97543   7217331.44342  23797631.910    23797631.589
  22662828.558     7738826.89843   6046147.21642  22662831.099    22662828.786
 04  5 17 20  4  0.0000000  0  8G22G21G 3G19G18G15G 9G14
  20542568.360    10818103.59344   8431143.36042  20542569.235    20542563.372
  21237554.215    13213558.63643  10286516.83642  21237556.067    21237551.825
  21767865.507    10398284.79843   8108268.84842  21767867.580    21767864.879
  23718667.562     8188502.51143   6399318.90642  23718669.408    23718665.607
  20858103.053    12746532.24744   9927507.11842  20858105.157    20858100.948
  20176852.316    10125979.05244   7894521.32742  20176854.053    20176851.198
  23786791.552     9200889.59043   7172952.28542  23786793.812    23786793.750
  22643351.583     7636475.24543   5966392.77542  22643354.191    22643351.855
 04  5 17 20  4 30.0000000  0  8G22G21G 3G19G18G15G 9G14
  20540375.584    10806580.45344   8422164.30042  20540376.435    20540370.619
  21248195.941    13269481.20643  10330092.82542  21248197.831    21248193.593
  21764260.583    10379340.84343   8093507.32142  21764262.657    21764259.978
  23702466.211     8103364.49743   6332977.64742  23702468.061    23702464.332
  20866067.090    12788383.56044   9960118.51742  20866069.198    20866065.022
  20170991.584    10095180.60944   7870522.54742  20170993.329    20170990.463
  23776032.712     9144351.94743   7128897.07442  23776034.988    23776035.014
  22623924.812     7534387.32343   5886843.84542  22623927.428    22623925.088
 04  5 17 20  5  0.0000000  0  8G22G21G 3G19G18G15G 9G14
  20538244.014    10795378.94044   8413435.85342  20538244.862    20538239.053
  21258902.352    13325743.68343  10373933.67742  21258904.235    21258900.006
  21760763.474    10360963.69543   8079187.46342  21760765.541    21760762.935
  23686328.454     8018560.65243   6266896.78042  23686330.241    23686326.691
  20874079.232    12830487.54844   9992926.80742  20874081.345    20874077.161
  20165197.498    10064732.64044   7846796.86742  20165199.261    20165196.394
  23765352.647     9088227.94943   7085164.17042  23765354.892    23765354.827
  22604547.819     7432560.85843   5807498.63842  22604550.390    22604548.114
 04  5 17 20  5 30.0000000  0  8G22G21G 3G19G18G15G 9G14
  20536173.815    10784499.98744   8404958.75642  20536174.669    20536168.859
  21269673.802    13382347.96743  10418040.87442  21269675.702    21269671.496
  21757374.746    10343155.87143   8065311.23342  21757376.783    21757374.258
  23670255.064     7934095.31143   6201079.68342  23670256.849    23670253.453
  20882139.644    12872845.24744  10025932.79542  20882141.763    20882137.555
  20159470.701    10034638.18844   7823346.65342  20159472.464    20159469.615
  23754752.215     9032522.37243   7041757.30842  23754754.441    23754754.351
  22585221.373     7331000.12043   5728360.49742  22585223.921    22585221.693
 04  5 17 20  6  0.0000000  0  8G22G21G 3G19G18G15G 9G14
  20534164.883    10773943.04344   8396732.57842  20534165.747    20534159.945
  21280510.240    13439293.66443  10462414.10242  21280512.105    21280507.951
  21754094.480    10325917.83543   8051878.99242  21754096.498    21754093.990
  23654246.729     7849971.37543   6135528.61042  23654248.463    23654245.241
  20890248.057    12915455.16244  10059135.31542  20890250.192    20890245.961
  20153811.500    10004898.86144   7800173.15642  20153813.253    20153810.415
  23744231.907     8977237.99943   6998678.64542  23744234.202    23744234.031
  22565945.970     7229707.69043   5649431.42442  22565948.524    22565946.270
 04  5 17 20  6 30.0000000  0  8G22G21G 3G19G18G15G 9G14
  20532217.340    10763708.61744   8388757.70942  20532218.190    20532212.375
  21291411.877    13496581.91943  10507054.26442  21291413.734    21291409.588
  21750923.022    10309251.57143   8038892.29742  21750925.057    21750922.512
  23638303.971     7766192.38043   6070246.32742  23638305.678    23638302.679
  20898404.464    12958317.23544  10092534.32042  20898406.612    20898402.363
  20148220.411     9975517.48544   7777278.58342  20148222.153    20148219.334
  23733792.628     8922379.16543   6955931.57642  23733794.935    23733794.592
  22546722.347     7128687.35743   5570714.37542  22546724.917    22546722.669
 04  5 17 20  7  0.0000000  0  8G22G21G 3G19G18G15G 9G14
  20530330.238    10753791.76144   8381030.29842  20530331.084    20530325.233
  21302377.793    13554208.06243  10551957.72042  21302379.661    21302375.493
  21747859.735    10293153.52243   8026348.36442  21747861.773    21747859.129
  23622426.665     7682757.01743   6005231.81042  23622428.331    23622425.483
  20906607.843    13001426.14444  10126125.66942  20906610.001    20906605.699
  20142696.963     9946491.45544   7754660.90442  20142698.701    20142695.867
  23723434.090     8867944.72143   6913515.21242  23723436.407    23723435.952
  22527550.236     7027937.45143   5492208.03342  22527552.822    22527550.502
 04  5 17 20  7 30.0000000  0  8G22G21G 3G19G18G15G 9G14
  20528503.864    10744194.15444   8373551.64842  20528504.721    20528498.841
  21313408.535    13612174.73043  10597126.51842  21313410.405    21313406.221
  21744905.010    10277626.20543   8014249.15642  21744907.057    21744904.382
  23606615.660     7599669.67743   5940488.47442  23606617.349    23606614.509
  20914858.348    13044782.82044  10159910.08042  20914860.522    20914856.188
  20137241.816     9917824.41844   7732322.96142  20137243.570    20137240.723
  23713157.254     8813939.63143   6871433.39642  23713159.563    23713158.991
  22508430.466     6927462.72843   5413916.13542  22508433.048    22508430.704
 04  5 17 20  8  0.0000000  0  8G22G21G 3G19G18G15G 9G14
  20526738.746    10734918.49644   8366323.87042  20526739.603    20526733.743
  21324504.653    13670485.08743  10642563.12242  21324506.545    21324502.371
  21742059.602    10262673.51843   8002597.70942  21742061.653    21742058.982
  23590872.114     7516936.52943   5876021.16242  23590873.811    23590870.890
  20923156.430    13088389.51144  10193889.30942  20923158.616    20923154.259
  20131855.955     9889521.55844   7710268.79642  20131857.714    20131854.864
  23702963.291     8760370.39943   6829691.20642  23702965.624    23702965.054
  22489364.219     6827269.30343   5335843.39842  22489366.838    22489364.424
 04  5 17 20  8 30.0000000  0  8G22G21G 3G19G18G15G 9G14
  20525033.982    10725959.92844   8359343.17342  20525034.838    20525028.980
  21335665.325    13729134.72243  10688264.10042  21335667.239    21335663.077
  21739322.823    10248291.79243   7991391.16342  21739324.855    21739322.237
  23575195.756     7434556.06943   5811828.62542  23575197.464    23575194.335
  20931501.053    13132240.88544  10228059.19942  20931503.258    20931498.899
  20126538.841     9861579.84444   7688496.03942  20126540.577    20126537.722
  23692852.045     8707235.83343   6788287.72442  23692854.414    23692853.835
  22470351.104     6727355.10343   5257988.24942  22470353.742    22470351.263
 04  5 17 20  9  0.0000000  0  8G22G21G 3G19G18G15G 9G14
  20523389.458    10717317.89644   8352609.12542  20523390.301    20523384.461
  21346890.514    13788123.29243  10734229.18042  21346892.399    21346888.278
  21736694.851    10234481.83643   7980630.15042  21736696.887    21736694.326
  23559586.990     7352530.99943   5747913.02942  23559588.815    23559585.383
  20939892.100    13176336.09444  10262419.08842  20939894.303    20939889.956
  20121290.783     9834001.12944   7667006.13942  20121292.509    20121289.675
  23682824.058     8654538.94143   6747225.29942  23682826.460    23682825.945
  22451391.630     6627722.90943   5180352.83642  22451394.294    22451391.773
 04  5 17 20  9 30.0000000  0  8G22G21G 3G19G18G15G 9G14
  20521805.563    10708994.48444   8346123.35542  20521806.409    20521800.570
  21358180.650    13847453.40643  10780460.40342  21358182.545    21358178.456
  21734176.264    10221246.50943   7970316.90542  21734178.273    21734175.759
  23544046.809     7270866.44643   5684278.35442  23544048.764    23544044.983
  20948329.812    13220676.42244  10296969.98142  20948331.991    20948327.661
  20116112.592     9806789.55744   7645802.32942  20116114.332    20116111.463
  23672880.349     8602284.83343   6706507.90542  23672882.717    23672882.352
  22432486.913     6528378.11443   5102941.38242  22432489.555    22432487.021
 04  5 17 20 10  0.0000000  0  8G22G21G 3G19G18G15G 9G14
  20520281.590    10700985.97544   8339882.96842  20520282.437    20520276.597
  21369535.141    13907121.45043  10826954.94742  21369537.021    21369532.945
  21731766.549    10208583.24643   7960449.42742  21731768.571    21731766.026
  23528575.276     7189562.07043   5620924.33242  23528577.234    23528573.106
  20956813.348    13265257.69444  10331708.62542  20956815.529    20956811.185
  20111003.977     9779943.70744   7624883.49342  20111005.728    20111002.873
  23663020.963     8550473.65943   6666135.66242  23663023.349    23663022.961
  22413636.742     6429320.02643   5025753.32042  22413639.376    22413636.810
 04  5 17 20 10 30.0000000  0  8G22G21G 3G19G18G15G 9G14
  20518817.488    10693292.19644   8333887.82142  20518818.362    20518812.530
  21380954.055    13967128.01643  10873713.27342  21380955.928    21380951.839
  21729465.857    10196493.02543   7951028.47342  21729467.919    21729465.351
  23513172.748     7108620.94443   5557853.37242  23513174.765    23513170.349
  20965342.677    13310079.46644  10366634.67042  20965344.859    20965340.518
  20105965.349     9753465.55044   7604251.16842  20105967.108    20105964.239
  23653246.506     8499108.84943   6626111.24142  23653248.935    23653248.418
  22394841.702     6330551.61943   4948790.98242  22394844.315    22394841.729
 04  5 17 20 11  0.0000000  0  8G22G21G 3G19G18G15G 9G14
  20517413.432    10685913.82144   8328138.44442  20517414.296    20517408.467
  21392437.580    14027474.31743  10920736.33442  21392439.458    21392435.400
  21727274.498    10184977.44143   7942055.29142  21727276.579    21727274.007
  23497840.011     7028047.06343   5495068.58342  23497842.097    23497837.496
  20973917.825    13355142.15544  10401748.44542  20973919.991    20973915.676
  20100997.239     9727358.01944   7583907.64842  20100999.023    20100996.138
  23643557.690     8448194.43943   6586437.77842  23643560.195    23643559.639
  22376102.566     6232076.90243   4872057.48942  22376105.161    22376102.564
 04  5 17 20 11 30.0000000  0  8G22G21G 3G19G18G15G 9G14
  20516069.502    10678851.35944   8322635.23042  20516070.351    20516064.535
  21403985.947    14088161.38043  10968024.91942  21403987.830    21403983.799
  21725192.757    10174038.01643   7933531.06042  21725194.833    21725192.309
  23482577.863     6947844.15943   5432572.85242  23482579.926    23482575.244
  20982538.814    13400445.56044  10437049.78942  20982540.974    20982536.678
  20096100.170     9701623.69244   7563854.93542  20096101.941    20096099.045
  23633955.398     8397734.38043   6547118.34242  23633957.906    23633957.280
  22357420.019     6133899.48543   4795555.65742  22357422.587    22357419.955
 04  5 17 20 12  0.0000000  0  8G22G21G 3G19G18G15G 9G14
  20514785.010    10672101.20644   8317375.37442  20514785.845    20514780.019
  21415598.595    14149186.20043  11015576.68842  21415600.476    21415596.470
  21723220.210    10163672.27943   7925453.86142  21723222.260    21723219.772
  23467386.177     6868011.97143   5370365.98742  23467388.189    23467383.645
  20991204.850    13445985.80044  10472535.67942  20991207.009    20991202.718
  20091273.836     9676261.36644   7544092.09342  20091275.630    20091272.735
  23624439.506     8347728.71943   6508152.98442  23624442.071    23624441.414
  22338793.984     6036019.09743   4719285.28042  22338796.525    22338793.913
 04  5 17 20 12 30.0000000  0  8G22G21G 3G19G18G15G 9G14
  20513560.187    10665664.62244   8312359.85542  20513561.038    20513555.186
  21427275.878    14210550.50043  11063392.99242  21427277.730    21427273.759
  21721357.326    10153882.74843   7917825.65042  21721359.346    21721356.889
  23452265.842     6788555.00643   5308451.50342  23452267.783    23452263.484
  20999916.064    13491763.55944  10508206.65142  20999918.254    20999913.940
  20086519.003     9651274.52644   7524621.83742  20086520.786    20086517.872
  23615010.993     8298182.25243   6469545.44342  23615013.534    23615012.913
  22320225.274     5938440.23243   4643249.85042  22320227.836    22320225.231
 04  5 17 20 13  0.0000000  0  8G22G21G 3G19G18G15G 9G14
  20512393.936    10659535.95744   8307584.27642  20512394.786    20512388.943
  21439016.704    14272248.62143  11111469.41742  21439018.559    21439014.561
  21719603.198    10144664.55943   7910642.63942  21719605.213    21719602.720
  23437216.438     6709470.68243   5246827.39442  23437218.236    23437214.281
  21008671.308    13537772.65844  10544057.88742  21008673.497    21008669.183
  20081834.909     9626659.47044   7505441.28142  20081836.691    20081833.745
  23605669.455     8249092.66043   6431293.91142  23605672.004    23605671.418
  22301713.493     5841160.19543   4567447.27442  22301716.020    22301713.397
 04  5 17 20 13 30.0000000  0  8G22G21G 3G19G18G15G 9G14
  20511287.864    10653723.42544   8303055.03142  20511288.713    20511282.857
  21450822.646    14334289.12043  11159812.63142  21450824.550    21450820.525
  21717959.529    10136026.91543   7903912.00742  21717961.538    21717959.032
  23422240.102     6630770.41043   5185502.54642  23422241.816    23422238.172
  21017472.052    13584020.88344  10580095.45542  21017474.235    21017469.951
  20077223.551     9602426.61544   7486558.54142  20077225.314    20077222.386
  23596417.096     8200471.42143   6393407.31242  23596419.627    23596419.080
  22283260.648     5744190.16943   4491886.26342  22283263.200    22283260.590
 04  5 17 20 14  0.0000000  0  8G22G21G 3G19G18G15G 9G14
  20510240.042    10648217.11944   8298764.40042  20510240.896    20510235.051
  21462692.021    14396663.01843  11208415.63342  21462693.934    21462689.928
  21716424.620    10127960.70843   7897626.65042  21716426.643    21716424.095
  23407335.708     6552447.71443   5124471.91842  23407337.317    23407333.926
  21026316.421    13630498.17644  10616311.51742  21026318.580    21026314.289
  20072683.440     9578568.23344   7467967.59942  20072685.195    20072682.283
  23587252.643     8152312.26543   6355880.78442  23587255.157    23587254.673
  22264865.610     5647523.71543   4416561.79942  22264868.148    22264865.507
 04  5 17 20 14 30.0000000  0  8G22G21G 3G19G18G15G 9G14
  20509251.105    10643020.13344   8294714.80242  20509251.951    20509246.104
  21474625.481    14459373.62343  11257281.00542  21474627.389    21474623.369
  21714999.175    10120469.94743   7891789.69142  21715001.219    21714998.646
  23392504.390     6474508.88343   5063740.40542  23392506.031    23392502.738
  21035204.887    13677207.26544  10652708.20342  21035207.036    21035202.744
  20068215.626     9555089.69144   7449672.63542  20068217.373    20068214.470
  23578177.368     8104621.90943   6318719.56242  23578179.945    23578179.433
  22246529.493     5551166.92843   4341478.63942  22246532.033    22246529.367
 04  5 17 20 15  0.0000000  0  8G22G21G 3G19G18G15G 9G14
  20508320.871    10638131.82944   8290905.73642  20508321.723    20508315.886
  21486622.995    14522420.81843  11306408.65342  21486624.913    21486620.877
  21713683.226    10113554.74143   7886401.20942  21713685.280    21713682.718
  23377746.688     6396956.31143   5003309.88242  23377748.380    23377744.923
  21044137.116    13724146.60744  10689284.30442  21044139.300    21044135.037
  20063820.357     9531992.41544   7431674.76442  20063822.128    20063819.197
  23569191.760     8057402.85543   6281925.58242  23569194.352    23569193.809
  22228252.752     5455122.21543   4266638.65642  22228255.288    22228252.607
 04  5 17 20 15 30.0000000  0  8G22G21G 3G19G18G15G 9G14
  20507449.053    10633550.34044   8287335.74542  20507449.895    20507444.032
  21498684.248    14585802.87543  11355797.23642  21498686.166    21498682.119
  21712476.657    10107214.24643   7881460.55142  21712478.711    21712476.156
  23363062.683     6319791.42743   4943181.44842  23363064.489    23363060.889
  21053112.850    13771314.31744  10726038.34842  21053115.008    21053110.788
  20059497.747     9509276.89144   7413974.35842  20059499.496    20059496.573
  23560296.250     8010656.83143   6245500.18742  23560298.820    23560298.166
  22210035.668     5359390.91043   4192042.89342  22210038.185    22210035.504
 04  5 17 20 16  0.0000000  0  8G22G21G 3G19G18G15G 9G14
  20506636.515    10629280.53844   8284008.62642  20506637.366    20506631.514
  21510810.206    14649524.98243  11405450.79342  21510812.128    21510808.077
  21711380.530    10101453.94543   7876971.99742  21711382.546    21711379.980
  23348453.956     6243022.09343   4883361.23042  23348455.781    23348452.137
  21062132.773    13818714.32744  10762973.40842  21062134.921    21062130.728
  20055249.056     9486949.95944   7396576.75342  20055250.809    20055247.897
  23551492.227     7964391.83643   6209449.65142  23551494.854    23551494.122
  22191879.704     5263980.92543   4117697.51442  22191882.186    22191879.581
 04  5 17 20 16 30.0000000  0  8G22G21G 3G19G18G15G 9G14
  20505881.052    10625310.63244   8280915.19342  20505881.898    20505876.063
  21522998.776    14713576.26643  11455360.85542  21523000.711    21522996.687
  21710392.691    10096262.95243   7872927.06242  21710394.718    21710392.178
  23333918.943     6166640.13743   4823842.86542  23333920.802    23333917.087
  21071194.691    13866335.01744  10800080.42742  21071196.865    21071192.655
  20051072.558     9465002.27144   7379474.66442  20051074.311    20051071.385
  23542778.250     7918599.81543   6173767.65142  23542780.769    23542780.093
  22173783.319     5168883.86543   4043595.97142  22173785.772    22173783.179
 04  5 17 20 17  0.0000000  0  8G22G21G 3G19G18G15G 9G14
  20505184.832    10621652.00844   8278064.31942  20505185.664    20505179.863
  21535252.063    14777967.73643  11505535.99642  21535253.980    21535249.998
  21709515.543    10091653.50943   7869335.28142  21709517.556    21709515.035
  23319460.385     6090659.85543   4764637.48542  23319462.216    23319458.460
  21080300.726    13914187.47244  10837368.04342  21080302.902    21080298.684
  20046970.797     9443447.33744   7362678.61442  20046972.552    20046969.596
  23534157.049     7873295.04843   6138465.34042  23534159.587    23534158.805
  22155749.144     5074113.90543   3969749.32142  22155751.636    22155748.989
 04  5 17 20 17 30.0000000  0  8G22G21G 3G19G18G15G 9G14
  20504545.783    10618293.93044   8275447.63842  20504546.612    20504540.842
  21547568.218    14842689.55143  11555968.55142  21547570.134    21547566.170
  21708747.202    10087615.60343   7866188.84742  21708749.180    21708746.656
  23305076.843     6015073.92543   4705739.39942  23305078.703    23305074.875
  21089448.679    13962260.19244  10874827.29542  21089450.836    21089446.602
  20042942.119     9422276.60044   7346181.93842  20042943.886    20042940.940
  23525627.125     7828470.18143   6103536.97642  23525629.676    23525628.822
  22137775.835     4979663.58543   3896151.73042  22137778.317    22137775.617
 04  5 17 20 18  0.0000000  0  8G22G21G 3G19G18G15G 9G14
  20503965.335    10615243.68644   8273070.83042  20503966.175    20503960.371
  21559948.685    14907749.27943  11606664.41342  21559950.587    21559946.676
  21708089.112    10084157.39643   7863494.13442  21708091.108    21708088.598
  23290770.318     5939892.60943   4647156.58142  23290772.155    23290768.306
  21098639.910    14010560.39144  10912463.80442  21098642.082    21098637.805
  20038988.346     9401499.40044   7329991.91042  20038990.103    20038987.162
  23517190.549     7784136.08143   6068991.03142  23517193.116    23517192.213
  22119865.307     4885543.57343   3822811.53542  22119867.826    22119865.122
 04  5 17 20 18 30.0000000  0  8G22G21G 3G19G18G15G 9G14
  20503442.011    10612493.63044   8270927.93642  20503442.860    20503437.026
  21572392.060    14973139.64443  11657617.91942  21572393.962    21572390.078
  21707540.073    10081272.01143   7861245.75642  21707542.039    21707539.550
  23276539.960     5865111.67943   4588885.75842  23276541.823    23276537.900
  21107872.862    14059080.03044  10950271.30542  21107875.042    21107870.788
  20035108.419     9381110.25344   7314104.26742  20035110.162    20035107.245
  23508846.537     7740288.49443   6034824.19042  23508849.088    23508848.144
  22102016.767     4791749.07943   3749724.98442  22102019.313    22102016.574
 04  5 17 20 19  0.0000000  0  8G22G21G 3G19G18G15G 9G14
  20502976.583    10610047.79644   8269022.09442  20502977.420    20502971.583
  21584899.133    15038864.75543  11708832.26042  21584901.052    21584897.191
  21707100.810    10078963.85043   7859447.19242  21707102.819    21707100.333
  23262387.108     5790738.04443   4530932.29842  23262388.964    23262385.020
  21117148.247    14107822.57244  10988252.49842  21117150.430    21117146.195
  20031303.497     9361115.26544   7298523.76142  20031305.221    20031302.332
  23500596.460     7696934.43543   6001041.92242  23500599.007    23500597.997
  22084231.449     4698286.94943   3676897.42442  22084233.987    22084231.287
 04  5 17 20 19 30.0000000  0  8G22G21G 3G19G18G15G 9G14
  20502568.288    10607902.31044   8267350.29342  20502569.123    20502563.304
  21597469.351    15104921.50143  11760305.02642  21597471.230    21597467.389
  21706770.909    10077230.13143   7858096.23042  21706772.895    21706770.388
  23248311.641     5716771.18643   4473295.81842  23248313.499    23248309.576
  21126465.294    14156783.95544  11026404.21542  21126467.477    21126463.266
  20027573.295     9341512.91744   7283249.20842  20027575.014    20027572.133
  23492440.161     7654073.35243   5967643.79742  23492442.743    23492441.690
  22066509.325     4605156.74543   3604328.50942  22066511.873    22066509.157
 04  5 17 20 20  0.0000000  0  8G22G21G 3G19G18G15G 9G14
  20502217.781    10606060.34444   8265915.00342  20502218.624    20502212.797
  21610103.254    15171312.99543  11812038.63242  21610105.123    21610101.291
  21706551.016    10076074.44843   7857195.68242  21706552.989    21706550.472
  23234314.724     5643217.26143   4415981.09942  23234316.611    23234312.691
  21135824.441    14205966.65244  11064728.38542  21135826.628    21135822.436
  20023918.785     9322308.25544   7268284.54242  20023920.499    20023917.618
  23484378.933     7611711.56243   5934634.70642  23484381.475    23484380.449
  22048851.523     4512364.70343   3532023.08942  22048854.104    22048851.353
 04  5 17 20 20 30.0000000  0  8G22G21G 3G19G18G15G 9G14
  20501923.918    10604516.12344   8264711.72342  20501924.747    20501918.942
  21622799.836    15238033.88643  11864028.90942  21622801.706    21622797.894
  21706440.115    10075491.61243   7856741.51942  21706442.108    21706439.586
  23220396.004     5570073.96143   4358986.36142  23220397.864    23220394.008
  21145224.625    14255365.00144  11103220.59142  21145226.818    21145222.667
  20020339.285     9303497.94844   7253627.16742  20020340.999    20020338.132
  23476412.285     7569846.70743   5902012.84942  23476414.794    23476413.692
  22031257.491     4419907.89243   3459978.89442  22031260.089    22031257.334
 04  5 17 20 21  0.0000000  0  8G22G21G 3G19G18G15G 9G14
  20501687.323    10603272.92944   8263743.00742  20501688.179    20501682.383
  21635559.845    15305087.95843  11916278.80842  21635561.684    21635557.907
  21706438.954    10075485.42643   7856736.69042  21706440.960    21706438.408
  23206556.599     5497347.56843   4302316.48042  23206558.481    23206554.598
  21154666.362    14304981.58344  11141882.85342  21154668.568    21154664.404
  20016835.835     9285087.32844   7239281.23642  20016837.569    20016834.690
  23468541.394     7528485.30743   5869783.28742  23468543.914    23468542.782
  22013728.470     4327792.80743   3388200.98042  22013731.121    22013728.338
 04  5 17 20 21 30.0000000  0  8G22G21G 3G19G18G15G 9G14
  20501507.625    10602328.53344   8263007.11942  20501508.459    20501502.661
  21648382.823    15372473.19043  11968786.75642  21648384.691    21648380.925
  21706547.230    10076054.53043   7857180.14142  21706549.240    21706546.714
  23192796.702     5425038.91643   4245972.11542  23192798.608    23192794.715
  21164149.193    14354814.12344  11180713.39542  21164151.379    21164147.235
  20013408.420     9267076.11944   7225246.53642  20013410.149    20013407.258
  23460766.442     7487628.20043   5837946.69442  23460768.945    23460767.797
  21996264.650     4236020.14543   3316689.89342  21996267.280    21996264.490
 04  5 17 20 22  0.0000000  0  9G22G21G 3G19G18G15G 9G14G31
  20501383.692    10601677.35244   8262499.71142  20501384.545    20501378.739
  21661267.806    15440184.13443  12021548.50242  21661269.669    21661265.909
  21706764.047    10077193.78343   7858067.85542  21706766.035    21706763.503
  23179115.806     5353145.51643   4189951.31442  23179117.714    23179113.789
  21173671.923    14404856.35244  11219707.33042  21173674.098    21173669.976
  20010056.376     9249461.00844   7211520.48242  20010058.099    20010055.201
  23453086.996     7447272.99543   5806501.16742  23453089.534    23453088.321
  21978865.480     4144587.31543   3245443.60442  21978868.112    21978865.335
  24374139.096    -5920760.13453  -4597657.42652  24374141.362    24374140.426
 04  5 17 20 22 30.0000000  0  9G22G21G 3G19G18G15G 9G14G31
  20501316.052    10601321.82244   8262222.67742  20501316.892    20501311.073
  21674215.317    15508223.57643  12074566.21642  21674217.149    21674213.411
  21707089.911    10078906.22043   7859402.20142  21707091.919    21707089.358
  23165514.988     5281672.92243   4134258.42342  23165516.891    23165512.973
  21183235.023    14455110.72744  11258866.57142  21183237.185    21183233.063
  20006780.588     9232246.75644   7198106.79042  20006782.337    20006779.424
  23445504.203     7407425.42443   5775451.19542  23445506.673    23445505.392
  21961532.051     4053499.97243   3174466.52442  21961534.715    21961531.901
  24358311.033    -6003937.26643  -4662470.72442  24358313.311    24358312.245
 04  5 17 20 23  0.0000000  0  9G22G21G 3G19G18G15G 9G14G31
  20501306.302    10601270.61044   8262182.77342  20501307.152    20501301.327
  21687227.116    15576600.86043  12127847.18542  21687228.966    21687225.225
  21707526.633    10081201.06443   7861190.37442  21707528.658    21707526.031
  23151996.526     5210632.94043   4078902.62642  23151998.437    23151994.490
  21192840.110    14505585.70044  11298197.70542  21192842.268    21192838.136
  20003583.118     9215443.99744   7185013.73442  20003584.878    20003581.960
  23438020.266     7368097.29443   5744805.97442  23438022.754    23438021.377
  21944266.629     3962769.75743   3103767.72942  21944269.277    21944266.426
  24342555.389    -6086733.69543  -4726987.37442  24342557.597    24342556.511
 04  5 17 20 23 30.0000000  0  9G22G21G 3G19G18G15G 9G14G31
  20501351.737    10601509.30644   8262368.77442  20501352.581    20501346.758
  21700300.456    15645301.46743  12181380.09142  21700302.291    21700298.535
  21708071.502    10084064.24443   7863421.40442  21708073.524    21708070.893
  23138558.257     5140014.35243   4023875.19242  23138560.156    23138556.193
  21202484.313    14556266.34644  11337689.10542  21202486.468    21202482.362
  20000461.598     9199040.27844   7172231.62042  20000463.363    20000460.423
  23430633.047     7329277.13043   5714556.57342  23430635.478    23430634.064
  21927066.970     3872385.25943   3033338.31642  21927069.620    21927066.726
  24326870.064    -6169160.62543  -4791216.09842  24326872.287    24326871.214
 04  5 17 20 24  0.0000000  0  9G22G21G 3G19G18G15G 9G14G31
  20501454.002    10602046.70044   8262787.53142  20501454.839    20501449.006
  21713437.067    15714334.61143  12235172.11742  21713438.890    21713435.130
  21708726.288    10087505.18943   7866102.64442  21708728.328    21708725.696
  23125202.414     5069829.07143   3969185.40042  23125204.359    23125200.361
  21212169.320    14607161.28444  11377347.48742  21212171.475    21212167.367
  19997418.129     9183046.78344   7159769.16142  19997419.903    19997416.962
  23423344.710     7290976.98643   5684712.38042  23423347.188    23423345.765
  21909935.419     3782358.46043   2963187.63242  21909938.047    21909935.136
  24311257.315    -6251205.79343  -4855147.35742  24311259.683    24311258.451
 04  5 17 20 24 30.0000000  0  9G22G21G 3G19G18G15G 9G14G31
  20501612.159    10602877.77944   8263435.12842  20501612.989    20501607.156
  21726636.026    15783695.46143  12289219.49442  21726637.876    21726634.093
  21709490.169    10091519.26343   7869230.47342  21709492.218    21709489.561
  23111928.697     5000075.32043   3914831.86542  23111930.649    23111926.574
  21221894.079    14658265.16844  11417168.67942  21221896.235    21221892.130
  19994452.205     9167460.67944   7147624.14942  19994453.955    19994451.013
  23416154.930     7253195.06343   5655271.98842  23416157.435    23416155.955
  21892871.527     3692687.28143   2893314.05242  21892874.126    21892871.208
  24295716.885    -6332870.97743  -4918782.51242  24295719.246    24295718.006
 04  5 17 20 25  0.0000000  0  9G22G21G 3G19G18G15G 9G14G31
  20501825.775    10604000.29644   8264309.81942  20501826.604    20501820.756
  21739896.969    15853382.21143  12343520.81442  21739898.846    21739895.047
  21710362.777    10096104.81343   7872803.61742  21710364.833    21710362.211
  23098737.298     4930753.91643   3860815.22342  23098739.211    23098735.119
  21231658.079    14709575.37044  11457150.64142  21231660.246    21231656.166
  19991563.733     9152281.72444   7135796.39842  19991565.489    19991562.548
  23409063.974     7215932.10943   5626235.98342  23409066.422    23409064.953
  21875875.387     3603372.38143   2823718.09542  21875877.990    21875875.073
  24280249.040    -6414155.10043  -4982120.72942  24280251.255    24280250.049
 04  5 17 20 25 30.0000000  0  9G22G21G 3G19G18G15G 9G14G31
  20502095.200    10605416.18844   8265413.10942  20502096.020    20502090.189
  21753220.306    15923396.76443  12398077.57442  21753222.207    21753218.397
  21711344.538    10101264.02843   7876823.76642  21711346.596    21711344.001
  23085629.055     4861869.60343   3807139.17342  23085630.897    23085626.871
  21241461.656    14761093.50644  11497294.62942  21241463.826    21241459.769
  19988753.516     9137513.90444   7124289.01342  19988755.244    19988752.311
  23402072.686     7179192.93743   5597608.12142  23402075.083    23402073.591
  21858948.000     3514418.76643   2754403.65842  21858950.610    21858947.702
  24264854.687    -6495052.99943  -5045157.99042  24264856.752    24264855.545
 04  5 17 20 26  0.0000000  0  9G22G21G 3G19G18G15G 9G14G31
  20502420.153    10607123.96544   8266743.85142  20502420.982    20502415.172
  21766605.818    15993737.87243  12452888.78542  21766607.696    21766603.924
  21712435.184    10106995.38543   7881289.74442  21712437.236    21712434.697
  23072604.232     4793423.98743   3753804.96442  23072606.076    23072602.090
  21251304.472    14812817.83044  11537599.28142  21251306.640    21251302.603
  19986021.577     9123157.47244   7113102.18842  19986023.294    19986020.369
  23395181.297     7142978.95343   5569389.49342  23395183.755    23395182.219
  21842089.638     3425827.71743   2685371.73942  21842092.215    21842089.283
  24249533.927    -6575563.07643  -5107893.03242  24249536.194    24249534.942
 04  5 17 20 26 30.0000000  0  9G22G21G 3G19G18G15G 9G14G31
  20502800.250    10609121.36244   8268300.26942  20502801.058    20502795.277
  21780053.105    16064403.64243  12507952.97842  21780054.967    21780051.197
  21713634.393    10113297.32043   7886200.33042  21713636.446    21713633.958
  23059663.022     4725417.87543   3700813.22642  23059664.886    23059660.921
  21261186.109    14864746.08744  11578062.84542  21261188.265    21261184.236
  19983367.943     9109212.60644   7102236.06242  19983369.664    19983366.739
  23388390.079     7107291.24543   5541580.94942  23388392.525    23388391.007
  21825300.461     3337600.18243   2616623.06942  21825303.041    21825300.043
  24234287.252    -6655684.16743  -5170324.97942  24234289.517    24234288.274
 04  5 17 20 27  0.0000000  0  9G22G21G 3G19G18G15G 9G14G31
  20503235.836    10611410.34344   8270083.89442  20503236.646    20503230.853
  21793562.547    16135396.16043  12563271.78042  21793564.410    21793560.661
  21714942.652    10120172.12043   7891557.30342  21714944.669    21714942.193
  23046806.391     4657856.03543   3648167.67342  23046808.280    23046804.249
  21271106.762    14916879.46244  11618686.23942  21271108.909    21271104.882
  19980793.396     9095683.23444   7091693.69442  19980795.115    19980792.180
  23381699.978     7072134.80643   5514186.39642  23381702.446    23381700.952
  21808581.354     3249740.87543   2548161.33342  21808583.950    21808580.935
  24219115.596    -6735411.06843  -5232449.77142  24219117.851    24219116.749
 04  5 17 20 27 30.0000000  0  9G22G21G 3G19G18G15G 9G14G31
  20503726.005    10613986.25844   8272091.10342  20503726.819    20503721.032
  21807133.400    16206711.17143  12618841.87542  21807135.221    21807131.520
  21716359.119    10127615.57243   7897357.38142  21716361.126    21716358.656
  23034034.165     4590737.47343   3595867.52442  23034036.016    23034031.950
  21281065.581    14969213.20243  11659465.76142  21281067.725    21281063.683
  19978297.486     9082567.12744   7081473.35042  19978299.190    19978296.256
  23375110.610     7037507.85943   5487204.41742  23375113.076    23375111.633
  21791932.033     3162248.18343   2479985.27442  21791934.625    21791931.561
  24204018.791    -6814745.02543  -5294268.35842  24204021.124    24204020.027
 04  5 17 20 28  0.0000000  0  9G22G21G 3G19G18G15G 9G14G31
  20504271.658    10616853.74644   8274325.51042  20504272.478    20504266.696
  21820766.484    16278353.25443  12674666.82942  21820768.282    21820764.620
  21717884.702    10135632.44043   7903604.27342  21717886.721    21717884.217
  23021347.643     4524069.47843   3543918.46342  23021349.535    23021345.417
  21291063.318    15021751.58844  11700404.75142  21291065.483    21291061.416
  19975881.447     9069870.68144   7071580.01742  19975883.131    19975880.192
  23368623.494     7003417.84243   5460640.83442  23368625.901    23368624.406
  21775353.907     3075129.84743   2412100.91442  21775356.514    21775353.402
  24188998.226    -6893678.45643  -5355774.87142  24189000.496    24188999.418
 04  5 17 20 28 30.0000000  0  9G22G21G 3G19G18G15G 9G14G31
  20504871.509    10620006.01044   8276781.82042  20504872.339    20504866.543
  21834460.559    16350315.81843  12730741.51742  21834462.353    21834458.685
  21719518.149    10144216.10243   7910292.83142  21719520.158    21719517.640
  23008746.101     4457847.92043   3492317.27842  23008747.972    23008743.797
  21301098.628    15074487.47143  11741497.63342  21301100.784    21301096.747
  19973544.316     9057589.08644   7062009.94442  19973546.015    19973543.081
  23362237.729     6969860.93843   5434492.66942  23362240.137    23362238.694
  21758846.237     2988381.59143   2344504.92842  21758848.824    21758845.676
  24174053.221    -6972214.83043  -5416971.97242  24174055.445    24174054.327
 04  5 17 20 29  0.0000000  0  9G22G21G 3G19G18G15G 9G14G31
  20505526.071    10623445.77844   8279462.15842  20505526.905    20505521.110
  21848216.213    16422602.16743  12787068.49742  21848218.055    21848214.352
  21721260.031    10153369.69143   7917425.47642  21721262.046    21721259.525
  22996230.637     4392078.86643   3441068.69042  22996232.521    22996228.310
  21311172.048    15127423.75343  11782746.66542  21311174.216    21311170.225
  19971287.132     9045727.43344   7052767.09842  19971288.808    19971285.873
  23355954.562     6936842.84843   5408764.35542  23355956.950    23355955.475
  21742410.109     2902009.33043   2277201.92442  21742412.696    21742409.507
  24159184.840    -7050348.11543  -5477854.98642  24159187.061    24159185.837
 04  5 17 20 29 30.0000000  0  9G22G21G 3G19G18G15G 9G14G31
  20506235.397    10627173.43844   8282366.83142  20506236.259    20506230.453
  21862033.525    16495212.49643  12843647.93142  21862035.370    21862031.666
  21723110.494    10163093.82143   7925002.70042  21723112.503    21723109.978
  22983802.004     4326765.84243   3390175.44942  22983803.825    22983799.634
  21321283.658    15180560.40743  11824151.83642  21321285.815    21321281.804
  19969110.299     9034288.08444   7043853.32142  19969111.978    19969109.039
  23349774.540     6904366.88543   5383458.48042  23349776.909    23349775.529
  21726046.164     2816016.35043   2210194.46642  21726048.753    21726045.523
  24144393.804    -7128074.81643  -5538421.17942  24144396.130    24144394.800
 04  5 17 20 30  0.0000000  0  9G22G21G 3G19G18G15G 9G14G31
  20506998.482    10631183.49744   8285491.55342  20506999.329    20506993.530
  21875911.531    16568141.76243  12900475.88242  21875913.346    21875909.714
  21725068.564    10173383.55243   7933020.64942  21725070.577    21725068.076
  22971459.639     4261906.38443   3339635.63742  22971461.478    22971457.266
  21331432.306    15233891.81343  11865708.76042  21331434.458    21331430.431
  19967013.148     9023267.66444   7035265.98742  19967014.860    19967011.911
  23343697.169     6872430.47743   5358573.04242  23343699.550    23343698.152
  21709753.923     2730400.13643   2143480.57842  21709756.505    21709753.240
  24129679.739    -7205396.98243  -5598672.17842  24129682.214    24129680.899
 04  5 17 20 30 30.0000000  0  9G22G21G 3G19G18G15G 9G14G31
  20507816.055    10635479.80544   8288839.32442  20507816.894    20507811.088
  21889850.883    16641393.26943  12957554.93342  21889852.697    21889849.072
  21727134.930    10184242.18243   7941481.90142  21727136.925    21727134.416
  22959204.745     4197506.80843   3289454.16642  22959206.600    22959202.417
  21341618.676    15287421.40043  11907420.11442  21341620.807    21341616.765
  19964996.794     9012671.72144   7027009.41142  19964998.506    19964995.571
  23337723.737     6841040.00743   5334113.00942  23337726.087    23337724.692
  21693534.588     2645167.09643   2077065.27242  21693537.165    21693533.838
  24115044.091    -7282307.88943  -5658602.68842  24115046.350    24115045.063
 04  5 17 20 31  0.0000000  0  9G22G21G 3G19G18G15G 9G14G31
  20508687.533    10640059.39344   8292407.83742  20508688.366    20508682.548
  21903851.165    16714965.08043  13014883.57042  21903853.015    21903849.382
  21729309.064    10195667.21643   7950384.50342  21729311.052    21729308.551
  22947037.389     4133567.26043   3239631.16642  22947039.242    22947035.109
  21351842.144    15341145.94943  11949283.37942  21351844.281    21351840.222
  19963061.082     9002499.38444   7019082.91842  19963062.773    19963059.840
  23331854.161     6810195.34643   5310078.28342  23331856.520    23331854.985
  21677388.200     2560317.43143   2010948.69942  21677390.770    21677387.426
  24100486.702    -7358807.25343  -5718212.53842  24100488.947    24100487.626
 04  5 17 20 31 30.0000000  0  9G22G21G 3G19G18G15G 9G14G31
  20509612.679    10644921.13444   8296196.21042  20509613.519    20509607.693
  21917912.127    16788855.98243  13072460.85142  21917914.010    21917910.406
  21731590.751    10207657.62243   7959727.65642  21731592.758    21731590.287
  22934957.965     4070089.70843   3190168.17042  22934959.806    22934955.719
  21362102.499    15395064.50043  11991297.82142  21362104.630    21362100.606
  19961206.140     8992751.70444   7011487.32442  19961207.851    19961204.922
  23326088.794     6779898.42243   5286470.35142  23326091.192    23326089.618
  21661315.096     2475852.88843   1945132.21742  21661317.642    21661314.282
  24086008.083    -7434892.89643  -5777500.00042  24086010.298    24086009.071
 04  5 17 20 32  0.0000000  0  9G22G21G 3G19G18G15G 9G14G31
  20510591.813    10650066.43944   8300205.53742  20510592.653    20510586.796
  21932034.048    16863067.03543  13130287.59942  21932035.911    21932032.331
  21733980.372    10220214.98343   7969512.59542  21733982.335    21733979.865
  22922967.226     4007078.46943   3141068.52742  22922969.122    22922965.062
  21372399.919    15449177.80543  12033464.01142  21372402.051    21372398.048
  19959432.637     8983431.91644   7004225.15142  19959434.347    19959431.411
  23320428.429     6750153.20243   5263292.31542  23320430.752    23320429.204
  21645316.053     2391777.58343   1879619.03742  21645318.596    21645315.252
  24071609.127    -7510560.26643  -5836461.52642  24071611.369    24071610.016
 04  5 17 20 32 30.0000000  0  9G22G21G 3G19G18G15G 9G14G31
  20511624.307    10655492.11644   8304433.33642  20511625.148    20511619.264
  21946216.385    16937595.59043  13188361.75542  21946218.249    21946214.640
  21736477.254    10233336.07943   7979736.80542  21736479.244    21736476.739
  22911065.256     3944533.19943   3092331.97942  22911067.066    22911063.062
  21382733.723    15503482.21143  12075779.11042  21382735.848    21382731.844
  19957740.322     8974538.82044   6997295.46942  19957742.054    19957739.115
  23314872.993     6720959.13743   5240543.75342  23314875.326    23314873.685
  21629390.977     2308090.97943   1814408.73942  21629393.509    21629390.176
  24057289.622    -7585809.56043  -5895097.28242  24057291.856    24057290.555
 04  5 17 20 33  0.0000000  0  9G22G21G 3G19G18G15G 9G14G31
  20512710.249    10661198.84644   8308880.13942  20512711.114    20512705.218
  21960459.260    17012442.23843  13246683.77142  21960461.107    21960457.514
  21739081.541    10247021.63143   7990400.84642  21739083.550    21739081.030
  22899252.578     3882457.35543   3043961.22242  22899254.372    22899250.375
  21393104.063    15557978.77543  12118243.94642  21393106.198    21393102.192
  19956129.759     8966075.28344   6990700.50842  19956131.514    19956128.566
  23309423.027     6692319.84743   5218227.47842  23309425.416    23309423.714
  21613540.568     2224796.68543   1749504.14142  21613543.086    21613539.748
  24043050.435    -7660636.98243  -5953404.31142  24043052.628    24043051.327
 04  5 17 20 33 30.0000000  0  9G22G21G 3G19G18G15G 9G14G31
  20513848.994    10667183.05644   8313543.16442  20513849.861    20513843.961
  21974762.061    17087603.75243  13305251.13542  21974763.897    21974760.312
  21741792.606    10261268.48043   8001502.26542  21741794.628    21741792.107
  22887529.127     3820850.44043   2995955.85742  22887530.937    22887526.944
  21403510.289    15612663.82643  12160855.65842  21403512.406    21403508.401
  19954600.659     8958039.72144   6984439.03342  19954602.387    19954599.446
  23304078.566     6664234.61143   5196342.92542  23304080.884    23304079.158
  21597764.718     2141894.23843   1684904.87742  21597767.222    21597763.896
  24028891.499    -7735042.73243  -6011382.77442  24028893.610    24028892.325
 04  5 17 20 34  0.0000000  0  9G22G21G 3G19G18G15G 9G14G31
  20515041.193    10673448.55144   8318425.36942  20515042.127    20515036.258
  21989125.479    17163083.89343  13364066.78442  21989127.312    21989123.729
  21744611.162    10276079.89343   8013043.60142  21744613.163    21744610.638
  22875896.189     3759718.98343   2948320.97742  22875897.986    22875894.043
  21413952.985    15667540.64743  12203616.80142  21413955.125    21413951.109
  19953154.016     8950437.69244   6978515.37742  19953155.779    19953152.830
  23298840.706     6636709.58043   5174894.88742  23298843.006    23298841.254
  21582064.631     2059390.03343   1620615.93142  21582067.147    21582063.875
  24014814.092    -7809020.09543  -6069027.41842  24014816.214    24014814.934
 04  5 17 20 34 30.0000000  0  9G22G21G 3G19G18G15G 9G14G31
  20516286.243    10679991.22444   8323523.55642  20516287.157    20516281.287
  22003548.830    17238878.80443  13423127.70842  22003550.635    22003547.080
  21747536.401    10291452.02243   8025021.85842  21747538.421    21747535.886
  22864353.476     3699061.79643   2901055.67642  22864355.285    22864351.362
  21424431.433    15722605.27243  12246524.28542  21424433.559    21424429.564
  19951789.525     8943267.24144   6972928.02242  19951791.279    19951788.334
  23293709.109     6609743.16543   5153882.13442  23293711.422    23293709.706
  21566440.091     1977282.72143   1556636.25842  21566442.594    21566439.348
  24000817.905    -7882569.76043  -6126338.78542  24000820.094    24000818.868
 04  5 17 20 35  0.0000000  0  9G22G21G 3G19G18G15G 9G14G31
  20517584.297    10686812.38344   8328838.74542  20517585.180    20517579.324
  22018032.303    17314989.76743  13482434.89742  22018034.088    22018030.555
  21750568.613    10307386.20543   8037438.08042  21750570.631    21750568.073
  22852901.835     3638883.09743   2854163.20642  22852903.650    22852899.740
  21434945.741    15777858.30343  12289578.57342  21434947.866    21434943.871
  19950507.842     8936531.89644   6967679.70542  19950509.586    19950506.652
  23288684.654     6583339.68743   5133308.05142  23288686.957    23288685.278
  21550891.916     1895576.69443   1492969.27042  21550894.403    21550891.180
  23986903.927    -7955687.53143  -6183313.61242  23986906.201    23986905.043
 04  5 17 20 35 30.0000000  0  9G22G21G 3G19G18G15G 9G14G31
  20518934.896    10693909.69844   8334369.12042  20518935.778    20518929.906
  22032575.440    17391414.10643  13541986.28242  22032577.210    22032573.670
  21753707.245    10323879.80243   8050290.20842  21753709.284    21753706.706
  22841541.359     3579183.41143   2807644.00342  22841543.118    22841539.233
  21445495.479    15833297.31343  12332777.78442  21445497.594    21445493.578
  19949308.816     8930230.92344   6962769.85942  19949310.556    19949307.606
  23283767.428     6557499.50143   5113172.86542  23283769.741    23283768.040
  21535420.099     1814271.99243   1429615.00642  21535422.615    21535419.364
  23973072.470    -8028372.59343  -6239951.26642  23973074.688    23973073.521
 04  5 17 20 36  0.0000000  0  9G22G21G 3G19G18G15G 9G14G31
  20520337.682    10701281.31444   8340113.23642  20520338.542    20520332.665
  22047177.915    17468150.32343  13601780.69142  22047179.687    22047176.148
  21756951.917    10340930.61243   8063576.52942  21756953.937    21756951.417
  22830272.130     3519963.36843   2761498.54942  22830273.904    22830270.011
  21456080.194    15888920.23343  12376120.30042  21456082.328    21456078.299
  19948192.431     8924364.40644   6958198.55042  19948194.188    19948191.246
  23278957.455     6532222.99043   5093476.92842  23278959.770    23278957.936
  21520024.816     1733369.42543   1366574.09342  21520027.335    21520024.084
  23959323.439    -8100623.99943  -6296251.00242  23959325.722    23959324.473
 04  5 17 20 36 30.0000000  0  9G22G21G 3G19G18G15G 9G14G31
  20521792.993    10708929.03544   8346072.49842  20521793.854    20521787.990
  22061840.127    17545200.56343  13661819.79142  22061841.939    22061838.367
  21760302.994    10358540.68643   8077298.63842  21760305.032    21760302.545
  22819095.122     3461227.79143   2715730.58342  22819096.877    22819092.949
  21466700.228    15944728.89743  12419607.55142  21466702.397    21466698.356
  19947159.482     8918936.19744   6953968.77842  19947161.223    19947158.289
  23274255.630     6507514.79143   5074223.81942  23274257.921    23274256.087
  21504706.966     1652873.88043   1303850.34342  21504709.471    21504706.240
  23945657.897    -8172436.55843  -6352208.77742  23945660.201    23945658.996
 04  5 17 20 37  0.0000000  0  9G22G21G 3G19G18G15G 9G14G31
  20523300.766    10716852.30944   8352246.47842  20523301.599    20523295.739
  22076561.946    17622564.09643  13722103.01342  22076563.783    22076560.198
  21763760.356    10376709.27643   8091455.95542  21763762.404    21763759.944
  22808010.763     3402979.30243   2670342.17842  22808012.572    22808008.620
  21477355.463    16000722.39243  12463238.82742  21477357.634    21477353.568
  19946210.205     8913947.73144   6950081.66542  19946211.931    19946209.014
  23269662.360     6483376.88943   5055415.10742  23269664.669    23269662.827
  21489466.958     1572787.33043   1241445.28642  21489469.450    21489466.219
  23932076.328    -8243807.90443  -6407822.75342  23932078.630    23932077.525
 04  5 17 20 37 30.0000000  0  9G22G21G 3G19G18G15G 9G14G31
  20524859.830    10725045.30944   8358630.63142  20524860.664    20524854.805
  22091342.242    17700235.00343  13782625.74442  22091344.081    22091340.516
  21767322.895    10395430.58343   8106043.95642  21767324.933    21767322.524
  22797018.430     3345214.18143   2625330.41042  22797020.249    22797016.286
  21488044.776    16056894.91443  12507009.60442  21488046.945    21488042.873
  19945343.811     8909394.78944   6946533.91642  19945345.524    19945342.615
  23265176.841     6459805.66343   5037047.96342  23265179.148    23265177.340
  21474304.160     1493106.72443   1179356.55642  21474306.676    21474303.443
  23918578.215    -8314740.77143  -6463095.06042  23918580.537    23918579.336
 04  5 17 20 38  0.0000000  0  9G22G21G 3G19G18G15G 9G14G31
  20526471.410    10733514.20044   8365229.76642  20526472.251    20526466.364
  22106182.238    17778219.39343  13843392.74442  22106184.035    22106180.487
  21770991.690    10414710.21143   8121067.01742  21770993.717    21770991.356
  22786119.801     3287941.60043   2580702.46442  22786121.628    22786117.652
  21498769.251    16113252.17543  12550924.33542  21498771.423    21498767.330
  19944561.857     8905285.58444   6943331.93942  19944563.560    19944560.640
  23260800.868     6436809.86143   5019129.18742  23260803.201    23260801.358
  21459220.309     1413840.83543   1117590.97942  21459222.826    21459219.616
  23905165.223    -8385226.04843  -6518018.61442  23905167.602    23905166.331
 04  5 17 20 38 30.0000000  0  9G22G21G 3G19G18G15G 9G14G31
  20528134.349    10742253.03944   8372039.25042  20528135.183    20528129.312
  22121080.748    17856511.50543  13904399.53542  22121082.528    22121079.031
  21774765.638    10434542.30843   8136520.57542  21774767.653    21774765.318
  22775314.327     3231158.46843   2536455.88642  22775316.143    22775312.172
  21509527.785    16169788.52643  12594978.62042  21509529.977    21509525.873
  19943863.577     8901616.17544   6940472.66042  19943865.270    19943862.386
  23256533.671     6414385.91443   5001656.02142  23256535.964    23256534.166
  21444214.807     1334986.63743   1056146.20542  21444217.327    21444214.120
  23891836.875    -8455266.56943  -6572595.58542  23891839.292    23891838.007
 04  5 17 20 39  0.0000000  0  9G22G21G 3G19G18G15G 9G14G31
  20529849.030    10751263.79344   8379060.61542  20529849.878    20529844.024
  22136038.233    17935113.29043  13965647.62242  22136039.964    22136036.548
  21778645.006    10454928.38543   8152405.81042  21778647.019    21778644.690
  22764602.883     3174869.34743   2492594.25442  22764604.654    22764600.662
  21520320.628    16226505.38043  12639173.55442  21520322.820    21520318.750
  19943249.710     8898390.19344   6937958.90442  19943251.384    19943248.482
  23252376.128     6392538.35243   4984631.98142  23252378.457    23252376.694
  21429288.501     1256548.44043    995025.58342  21429291.022    21429287.775
  23878594.059    -8524857.52643  -6626822.25342  23878596.496    23878595.252
 04  5 17 20 39 30.0000000  0  9G22G21G 3G19G18G15G 9G14G31
  20531614.982    10760543.96144   8386291.91142  20531615.829    20531609.990
  22151054.180    18014022.29343  14027135.09842  22151055.874    22151052.469
  21782629.259    10475865.66843   8168720.54242  21782631.294    21782628.933
  22753985.464     3119074.51843   2449117.78542  22753987.229    22753983.167
  21531147.361    16283400.28443  12683507.23042  21531149.570    21531145.520
  19942720.113     8895607.14544   6935790.29242  19942721.793    19942718.879
  23248328.317     6371267.00943   4968056.94442  23248330.611    23248328.904
  21414441.391     1178526.51243    934229.33142  21414443.903    21414440.663
  23865436.939    -8593998.30043  -6680698.13542  23865439.412    23865438.183
 04  5 17 20 40  0.0000000  0  9G22G21G 3G19G18G15G 9G14G31
  20533432.221    10770093.47744   8393733.08642  20533433.057    20533427.207
  22166128.505    18093238.33543  14088861.82742  22166130.237    22166126.838
  21786718.372    10497353.94243   8185464.63042  21786720.412    21786718.030
  22743462.592     3063776.45443   2406028.40942  22743464.355    22743460.238
  21542007.977    16340472.95143  12727979.42042  21542010.169    21542006.116
  19942275.120     8893268.64744   6933968.08342  19942276.804    19942273.899
  23244390.643     6350574.35243   4951932.82342  23244392.964    23244391.189
  21399673.998     1100923.42443    873759.44442  21399676.514    21399673.237
  23852366.081    -8662686.13143  -6734221.08642  23852368.478    23852367.248
 04  5 17 20 40 30.0000000  0  9G22G21G 3G19G18G15G 9G14G31
  20535301.364    10779915.97044   8401386.97542  20535302.216    20535296.360
  22181262.008    18172765.16343  14150830.73042  22181263.732    22181260.292
  21790912.962    10519396.69643   8202640.77842  21790915.016    21790912.628
  22733035.416     3008981.44443   2363331.02142  22733037.220    22733033.078
  21552903.034    16397726.87343  12772592.85142  21552905.208    21552901.179
  19941915.792     8891380.40244   6932496.72142  19941917.492    19941914.577
  23240564.164     6330466.29843   4936264.22842  23240566.495    23240564.739
  21384987.464     1023745.37143    813620.75442  21384990.000    21384986.716
  23839382.681    -8730914.28443  -6787385.82442  23839385.012    23839383.784
 04  5 17 20 41  0.0000000  0  9G22G21G 3G19G18G15G 9G14G31
  20537220.632    10790001.82544   8409246.08042  20537221.492    20537215.640
  22196452.696    18252592.74743  14213033.98142  22196454.468    22196451.056
  21795211.112    10541983.57143   8220240.91042  21795213.147    21795210.785
  22722702.639     2954682.56443   2321020.22242  22722704.418    22722700.287
  21563830.734    16455152.44843  12817340.03842  21563832.919    21563828.916
  19941640.667     8889934.59744   6931370.11842  19941642.366    19941639.468
  23236847.568     6310935.46543   4921045.40542  23236849.882    23236848.122
  21370380.465      946985.45043    753807.88242  21370383.040    21370379.738
  23826485.560    -8798689.49043  -6840197.61042  23826487.834    23826486.454
 04  5 17 20 41 30.0000000  0  9G22G21G 3G19G18G15G 9G14G31
  20539190.768    10800355.06844   8417313.54542  20539191.631    20539185.800
  22211701.366    18332724.95843  14275474.60742  22211703.162    22211699.765
  21799613.545    10565118.44043   8238268.05642  21799615.585    21799613.203
  22712465.555     2900886.41643   2279101.16542  22712467.349    22712463.201
  21574791.842    16512753.35843  12862223.84442  21574793.976    21574790.030
  19941450.827     8888936.85044   6930592.64942  19941452.525    19941449.603
  23233242.019     6291988.03043   4906281.19542  23233244.279    23233242.503
  21355854.338      870650.16043    694325.89542  21355856.875    21355853.569
  23813675.895    -8866004.81843  -6892651.07542  23813678.164    23813676.751
 04  5 17 20 42  0.0000000  0  9G22G21G 3G19G18G15G 9G14G31
  20541211.558    10810974.55044   8425588.46542  20541212.429    20541206.618
  22227007.971    18413161.25543  14338152.18342  22227009.703    22227006.392
  21804120.001    10588799.64443   8256720.90942  21804122.012    21804119.571
  22702324.448     2847594.69143   2237575.16242  22702326.238    22702322.087
  21585786.104    16570528.48843  12907243.40942  21585788.234    21585784.270
  19941346.384     8888388.07444   6930165.02742  19941348.086    19941345.171
  23229747.648     6273625.32543   4891972.62242  23229749.985    23229748.137
  21341409.299      794741.09843    635176.02942  21341411.819    21341408.483
  23800954.020    -8932858.42543  -6944744.74742  23800956.348    23800954.823
 04  5 17 20 42 30.0000000  0  9G22G21G 3G19G18G15G 9G14G31
  20543283.305    10821861.65544   8434071.92242  20543284.186    20543278.362
  22242372.536    18493902.28343  14401067.21042  22242374.265    22242370.951
  21808730.568    10613028.26643   8275600.32642  21808732.587    21808730.155
  22692280.022     2794811.03743   2196445.05542  22692281.821    22692277.730
  21596813.731    16628478.95343  12952399.60142  21596815.869    21596811.873
  19941327.956     8888291.31444   6930089.62042  19941329.663    19941326.753
  23226365.248     6255850.70443   4878122.27842  23226367.610    23226365.698
  21327046.098      719262.19443    576361.35142  21327048.631    21327045.251
  23788320.832    -8999246.23643  -6996475.47242  23788323.160    23788321.639
 04  5 17 20 43  0.0000000  0  9G22G21G 3G19G18G15G 9G14G31
  20545405.195    10833012.29044   8442760.72642  20545406.075    20545400.250
  22257794.378    18574944.34843  14464216.81442  22257796.118    22257792.801
  21813444.477    10637799.86343   8294902.84142  21813446.475    21813444.095
  22682332.092     2742534.34843   2155709.98542  22682333.880    22682329.800
  21607873.928    16686600.61043  12997689.18942  21607876.075    21607872.073
  19941395.144     8888644.40544   6930364.75142  19941396.853    19941393.953
  23223094.442     6238662.77343   4864729.08942  23223096.825    23223094.915
  21312764.463      644211.89743    517880.65042  21312767.001    21312763.588
  23775776.170    -9065169.17543  -7047843.95742  23775778.427    23775776.898
 04  5 17 20 43 30.0000000  0  9G22G21G 3G19G18G15G 9G14G31
  20547577.533    10844427.88644   8451655.99642  20547578.392    20547572.558
  22273273.664    18656288.38743  14527601.72142  22273275.459    22273272.135
  21818261.829    10663115.17043   8314629.02042  21818263.847    21818261.481
  22672481.311     2690768.28243   2115372.81042  22672483.117    22672479.021
  21618966.918    16744894.54843  13043113.02242  21618969.049    21618965.044
  19941548.493     8889450.28744   6930992.70942  19941550.195    19941547.305
  23219935.947     6222064.84943   4851795.65842  23219938.310    23219936.425
  21298565.097      569593.88943    459736.80242  21298567.637    21298564.199
  23763320.665    -9130623.23043  -7098847.06042  23763322.907    23763321.309
 04  5 17 20 44  0.0000000  0  9G22G21G 3G19G18G15G 9G14G31
  20549799.926    10856106.68144   8460756.35342  20549800.791    20549794.939
  22288810.175    18737932.88743  14591220.75142  22288811.939    22288808.641
  21823182.244    10688972.11843   8334777.26342  21823184.288    21823181.944
  22662727.880     2639513.72143   2075434.20842  22662729.684    22662725.583
  21630092.383    16803359.07643  13088669.78442  21630094.501    21630090.497
  19941788.077     8890709.31644   6931973.76842  19941789.778    19941786.896
  23216889.786     6206057.13143   4839322.11042  23216892.102    23216890.239
  21284448.173      495409.16343    401930.57142  21284450.727    21284447.264
  23750954.611    -9195607.06643  -7149483.75142  23750956.918    23750955.304
 04  5 17 20 44 30.0000000  0  9G22G21G 3G19G18G15G 9G14G31
  20552071.932    10868046.17344   8470059.85742  20552072.798    20552066.962
  22304403.293    18819875.15943  14655071.81242  22304405.070    22304401.768
  21828205.174    10715367.67743   8355345.19642  21828207.195    21828204.890
  22653071.776     2588770.59943   2035894.12442  22653073.592    22653069.495
  21641249.775    16861991.56743  13134357.42442  21641251.915    21641247.917
  19942113.705     8892420.43944   6933307.10842  19942115.418    19942112.488
  23213955.934     6190639.44443   4827308.33342  23213958.285    23213956.338
  21270413.682      421657.64843    344461.90742  21270416.242    21270412.746
  23738677.986    -9260120.82643  -7199754.17942  23738680.268    23738678.662
 04  5 17 20 45  0.0000000  0  9G22G21G 3G19G18G15G 9G14G31
  20554393.980    10880248.56744   8479568.21742  20554394.843    20554388.988
  22320053.448    18902117.11243  14719156.39442  22320055.239    22320051.945
  21833330.918    10742303.44143   8376334.07142  21833332.948    21833330.646
  22643513.909     2538543.88243   1996756.44542  22643515.706    22643511.641
  21652439.550    16920794.06943  13180177.54142  21652441.689    21652437.674
  19942526.105     8894587.57744   6934995.78342  19942527.795    19942524.868
  23211135.088     6175816.09143   4815757.68642  23211137.487    23211135.540
  21256462.549      348344.05943    287334.48242  21256465.087    21256461.567
  23726491.834    -9324158.85943  -7249653.89542  23726494.129    23726492.550
 04  5 17 20 45 30.0000000  0  9G22G21G 3G19G18G15G 9G14G31
  20556766.027    10892713.82244   8489281.40242  20556766.881    20556761.050
  22335760.628    18984658.74743  14783474.48842  22335762.449    22335759.120
  21838559.364    10769779.00543   8397743.57342  21838561.402    21838559.096
  22634054.738     2488835.73943   1958022.84142  22634056.539    22634052.509
  21663661.637    16979766.68843  13226130.21442  21663663.803    21663659.797
  19943025.617     8897212.66444   6937041.30142  19943027.335    19943024.391
  23208427.730     6161589.25343   4804671.84042  23208430.140    23208428.197
  21242595.240      275470.92843    230550.27242  21242597.766    21242594.208
  23714396.845    -9387718.71343  -7299181.00242  23714399.051    23714397.554
 04  5 17 20 46  0.0000000  0  9G22G21G 3G19G18G15G 9G14G31
  20559187.115    10905436.66544   8499195.30542  20559187.976    20559182.108
  22351523.790    19067494.50743  14848021.76942  22351525.610    22351522.322
  21843889.426    10797788.53543   8419569.14642  21843891.446    21843889.142
  22624693.752     2439643.45443   1919691.20842  22624695.580    22624691.535
  21674915.080    17038903.95643  13272211.18442  21674917.257    21674913.239
  19943611.574     8900291.84544   6939440.66142  19943613.295    19943610.336
  23205833.343     6147955.67143   4794048.27842  23205835.709    23205833.836
  21228811.173      203035.39443    174107.04442  21228813.699    21228810.145
  23702392.301    -9450802.85543  -7348337.44142  23702394.488    23702392.934
 04  5 17 20 46 30.0000000  0  9G22G21G 3G19G18G15G 9G14G31
  20561657.560    10918418.84244   8509311.28642  20561658.409    20561652.533
  22367343.255    19150626.09143  14912799.56642  22367345.095    22367341.799
  21849321.290    10826333.14343   8441811.66142  21849323.316    21849321.033
  22615431.722     2390971.23443   1881764.82042  22615433.567    22615429.512
  21686200.189    17098207.50143  13318421.72442  21686202.360    21686198.339
  19944284.653     8903828.95244   6942196.84742  19944286.370    19944283.436
  23203352.592     6134919.07043   4783889.89242  23203354.925    23203353.078
  21215111.209      131041.80843    118008.18642  21215113.734    21215110.181
  23690479.162    -9513406.67043  -7397119.58742  23690481.428    23690479.705
 04  5 17 20 47  0.0000000  0  9G22G21G 3G19G18G15G 9G14G31
  20564177.289    10931660.22344   8519629.24742  20564178.154    20564172.297
  22383218.906    19234053.00643  14977807.48142  22383220.742    22383217.443
  21854854.827    10855412.04343   8464470.51142  21854856.852    21854854.585
  22606269.139     2342821.57043   1844245.62142  22606270.992    22606266.888
  21697516.905    17157677.24043  13364761.76442  21697519.092    21697515.077
  19945045.115     8907825.14444   6945310.75842  19945046.803    19945043.897
  23200985.740     6122481.07843   4774197.94842  23200988.024    23200986.234
  21201495.748       59492.14843     62255.24842  21201498.267    21201494.682
  23678657.857    -9575527.53343  -7445525.41042  23678660.180    23678658.410
 04  5 17 20 47 30.0000000  0  9G22G21G 3G19G18G15G 9G14G31
  20566746.341    10945160.62044   8530149.03842  20566747.185    20566741.347
  22399150.712    19317774.96343  15043045.30642  22399152.537    22399149.255
  21860489.826    10885024.12143   8487544.81942  21860491.854    21860489.628
  22597206.365     2295196.41343   1807135.12442  22597208.218    22597204.142
  21708865.156    17217312.61943  13411230.86842  21708867.339    21708863.311
  19945893.223     8912281.83744   6948783.49942  19945894.902    19945891.997
  23198733.236     6110643.49343   4764973.86242  23198735.449    23198733.601
  21187965.116      -11611.59843      6849.76842  21187967.666    21187964.036
  23666929.036    -9637163.12343  -7493553.11342  23666931.279    23666929.572
 04  5 17 20 48  0.0000000  0  9G22G21G 3G19G18G15G 9G14G31
  20569364.286    10958918.00544   8540869.08242  20569365.141    20569359.287
  22415138.252    19401789.75143  15108511.30442  22415140.047    22415136.816
  21866225.837    10915166.87843   8511032.64942  21866227.863    21866225.611
  22588243.492     2248096.23043   1770433.69642  22588245.342    22588241.245
  21720244.500    17277111.52643  13457827.39842  21720246.703    21720242.682
  19946828.920     8917198.77144   6952614.87442  19946830.569    19946827.657
  23196594.837     6099406.28643   4756217.60342  23196597.073    23196595.273
  21174519.435      -82268.96943    -48207.88642  21174521.988    21174518.365
  23655292.557    -9698312.72243  -7541202.10942  23655294.852    23655293.221
 04  5 17 20 48 30.0000000  0  9G22G21G 3G19G18G15G 9G14G31
  20572030.679    10972929.97644   8551787.50042  20572031.543    20572025.671
  22431180.998    19486094.61843  15174203.34142  22431182.775    22431179.584
  21872062.242    10945837.31543   8534931.65742  21872064.262    21872062.022
  22579380.527     2201521.10043   1734141.39842  22579382.361    22579378.303
  21731654.545    17337071.52743  13504549.45442  21731656.707    21731652.719
  19947852.022     8922575.15444   6956804.25842  19947853.662    19947850.751
  23194570.626     6088768.97743   4747928.80242  23194572.894    23194571.058
  21161158.716     -152479.85743   -102917.63542  21161161.267    21161157.632
  23643748.659    -9758975.96543  -7588472.13942  23643750.968    23643749.463
 04  5 17 20 49  0.0000000  0  9G22G21G 3G19G18G15G 9G14G31
  20574746.208    10987200.17944   8562907.14142  20574747.054    20574741.212
  22447279.662    19570693.25543  15240124.28742  22447281.406    22447278.191
  21877999.651    10977038.53743   8559244.26542  21878001.708    21877999.460
  22570618.558     2155476.77743   1698262.71942  22570620.378    22570616.339
  21743095.929    17397196.26643  13551399.88242  21743098.081    21743094.104
  19948963.585     8928416.48044   6961355.93742  19948965.231    19948962.315
  23192661.642     6078737.15643   4740111.79342  23192663.924    23192662.050
  21147884.118     -222238.14943   -157274.71042  21147886.675    21147883.004
  23632298.486    -9819146.49243  -7635358.22942  23632300.854    23632299.335
 04  5 17 20 49 30.0000000  0  9G22G21G 3G19G18G15G 9G14G31
  20577509.614    11001722.05844   8574222.88642  20577510.461    20577504.626
  22463432.946    19655578.98443  15306268.94442  22463434.683    22463431.438
  21884036.660    11008763.11043   8583964.67642  21884038.711    21884036.486
  22561956.848     2109959.12143   1662794.42042  22561958.667    22561954.566
  21754567.403    17457479.14143  13598373.52642  21754569.550    21754565.557
  19950162.661     8934717.68244   6966265.95842  19950164.298    19950161.389
  23190866.992     6069306.13443   4732762.96242  23190869.226    23190867.380
  21134694.840     -291548.17543   -211282.49142  21134697.372    21134693.703
  23620941.446    -9878828.04843  -7681863.29942  23620943.804    23620942.275
 04  5 17 20 50  0.0000000  0  9G22G21G 3G19G18G15G 9G14G31
  20580321.891    11016500.75244   8585738.75042  20580322.750    20580316.924
  22479641.700    19740756.44143  15372640.92442  22479643.483    22479640.229
  21890174.060    11041015.23343   8609096.16642  21890176.086    21890173.883
  22553396.777     2064975.44543   1627742.21242  22553398.551    22553394.448
  21766069.894    17517924.95543  13645474.14542  21766072.045    21766068.029
  19951450.505     8941485.45544   6971539.54342  19951452.163    19951449.268
  23189187.891     6060482.46343   4725887.37542  23189190.135    23189188.294
  21121592.250     -360402.45243   -264935.14242  21121594.790    21121591.135
  23609678.947    -9938013.16743  -7727981.53442  23609681.223    23609679.660
 04  5 17 20 50 30.0000000  0  9G22G21G 3G19G18G15G 9G14G31
  20583182.308    11031532.35644   8597451.68442  20583183.175    20583177.355
  22495905.202    19826221.58943  15439237.07442  22495907.001    22495903.807
  21896410.993    11073790.27843   8634635.12542  21896413.010    21896410.803
  22544938.047     2020524.36543   1593105.01142  22544939.804    22544935.664
  21777602.669    17578529.99043  13692698.82542  21777604.808    21777600.799
  19952826.715     8948717.52544   6977174.91842  19952828.385    19952825.474
  23187624.004     6052264.25843   4719483.58742  23187626.255    23187624.450
  21108576.064     -428802.72143   -318234.02542  21108578.617    21108574.960
  23598510.664    -9996702.99443  -7773713.84342  23598512.904    23598511.253
 04  5 17 20 51  0.0000000  0  9G22G21G 3G19G18G15G 9G14G31
  20586090.503    11046815.00544   8609360.23742  20586091.380    20586085.561
  22512223.055    19911972.01443  15506055.50942  22512224.818    22512221.634
  21902746.916    11107085.60043   8660579.50042  21902748.932    21902746.725
  22536580.669     1976606.10443   1558882.99942  22536582.459    22536578.287
  21789165.306    17639292.12943  13740045.92642  21789167.483    21789163.454
  19954291.239     8956413.57644   6983171.83642  19954292.930    19954290.001
  23186175.287     6044651.34843   4713551.46542  23186177.554    23186175.777
  21095646.383     -496748.48643   -371178.74442  21095648.930    21095645.263
  23587436.761   -10054896.85843  -7819059.67242  23587438.968    23587437.278
 04  5 17 20 51 30.0000000  0  9G22G21G 3G19G18G15G 9G14G31
  20589046.889    11062350.84244   8621466.08342  20589047.767    20589041.935
  22528595.580    19998009.70443  15573097.79742  22528597.303    22528594.103
  21909182.116    11140902.58743   8686930.36442  21909184.132    21909181.893
  22528325.513     1933225.10343   1525079.63042  22528327.315    22528323.151
  21800758.313    17700213.86143  13787517.38042  21800760.492    21800756.507
  19955844.781     8964577.37644   6989533.23742  19955846.485    19955843.518
  23184842.496     6037647.70943   4708094.09142  23184844.755    23184842.971
  21082804.053     -564235.31243   -423765.84942  21082806.583    21082802.891
  23576458.172   -10112589.85643  -7864015.22842  23576460.320    23576458.603
 04  5 17 20 52  0.0000000  0  9G22G21G 3G19G18G15G 9G14G31
  20592051.308    11078139.03144   8633768.56542  20592052.162    20592046.332
  22545022.562    20084333.82043  15640363.26342  22545024.305    22545021.070
  21915716.244    11175239.38743   8713686.27342  21915718.237    21915716.007
  22520172.861     1890382.69143   1491695.94142  22520174.659    22520170.472
  21812381.503    17761293.90543  13835112.19642  21812383.642    21812379.673
  19957487.425     8973209.43744   6996259.51242  19957489.131    19957486.157
  23183625.805     6031254.09643   4703112.07142  23183628.104    23183626.261
  21070049.285     -631261.94943   -475994.37042  21070051.827    21070048.133
  23565575.015   -10169780.54743  -7908579.35642  23565577.230    23565575.523
 04  5 17 20 52 30.0000000  0  9G22G21G 3G19G18G15G 9G14G31
  20595103.065    11094176.02944   8646264.92542  20595103.908    20595098.096
  22561503.267    20170940.48243  15707848.90642  22561505.045    22561501.850
  21922348.469    11210091.77543   8740843.94642  21922350.498    21922348.200
  22512122.469     1848077.62543   1458730.96942  22512124.299    22512120.092
  21824034.149    17822528.82943  13882827.69942  21824036.284    21824032.304
  19959218.850     8982308.10444   7003349.37742  19959220.571    19959217.569
  23182524.894     6025468.88343   4698604.12642  23182527.259    23182525.309
  21057381.845     -697829.67243   -527865.29342  21057384.368    21057380.682
  23554787.360   -10226469.68043  -7952752.68742  23554789.554    23554787.847
 04  5 17 20 53  0.0000000  0  9G22G21G 3G19G18G15G 9G14G31
  20598202.707    11110464.75144   8658957.43242  20598203.565    20598197.724
  22578038.269    20257832.26243  15775556.70642  22578040.059    22578036.879
  21929079.186    11245461.84743   8768405.00242  21929081.238    21929078.917
  22504175.323     1806314.98143   1426188.65142  22504177.143    22504172.906
  21835716.781    17883921.42743  13930666.06142  21835718.900    21835714.971
  19961039.858     8991877.66744   7010806.17342  19961041.590    19961038.618
  23181540.576     6020296.49543   4694573.69942  23181542.983    23181540.983
  21044802.769     -763933.14743   -579374.46242  21044805.296    21044801.603
  23544096.284   -10282651.67343  -7996530.82342  23544098.482    23544096.768
 04  5 17 20 53 30.0000000  0  9G22G21G 3G19G18G15G 9G14G31
  20601349.247    11126999.91644   8671841.97642  20601350.107    20601344.256
  22594626.497    20345003.45343  15843482.22942  22594628.250    22594625.098
  21935907.204    11281343.18943   8796364.45342  21935909.237    21935906.937
  22496330.695     1765091.51543   1394066.47642  22496332.524    22496328.323
  21847428.340    17945466.24643  13978623.03842  21847430.514    21847426.619
  19962949.718     9001914.07644   7018626.74842  19962951.472    19962948.474
  23180672.258     6015733.27443   4691017.96942  23180674.669    23180672.613
  21032311.380     -829575.77043   -630524.52542  21032313.915    21032310.196
  23533501.139   -10338329.67543  -8039916.23342  23533503.280    23533501.621
 04  5 17 20 54  0.0000000  0  9G22G21G 3G19G18G15G 9G14G31
  20604543.484    11143785.75644   8684921.85142  20604544.350    20604538.502
  22611268.603    20432458.03443  15911628.58542  22611270.365    22611267.241
  21942833.175    11317739.23743   8824724.97042  21942835.192    21942832.926
  22488589.950     1724413.79943   1362369.56242  22488591.775    22488587.600
  21859169.778    18007167.76643  14026702.11342  21859171.937    21859168.071
  19964949.548     9012423.17344   7026815.64742  19964951.301    19964948.296
  23179920.879     6011784.93543   4687941.35742  23179923.275    23179921.286
  21019908.928     -894750.96543   -681310.36342  21019911.456    21019907.735
  23523003.171   -10393496.74143  -8082903.53042  23523005.333    23523003.639
 04  5 17 20 54 30.0000000  0  9G22G21G 3G19G18G15G 9G14G31
  20607784.251    11160816.08044   8698192.23242  20607785.112    20607779.275
  22627963.385    20520189.35543  15979990.56142  22627965.204    22627962.049
  21949855.717    11354642.81043   8853480.95942  21949857.730    21949855.475
  22480952.262     1684277.58943   1331094.60642  22480954.072    22480949.935
  21870939.785    18069019.55143  14074898.28542  21870941.948    21870938.086
  19967038.393     9023400.12244   7035369.10642  19967040.156    19967037.142
  23179285.626     6008446.61843   4685340.09242  23179288.021    23179285.953
  21007594.638     -959462.84143   -731735.16742  21007597.154    21007593.444
  23512601.701   -10448156.74843  -8125495.72042  23512603.924    23512602.060
 04  5 17 20 55  0.0000000  0  9G22G21G 3G19G18G15G 9G14G31
  20611072.557    11178096.30444   8711657.33642  20611073.433    20611067.592
  22644711.780    20608202.42243  16048572.09142  22644713.610    22644710.463
  21956975.683    11392058.23743   8882635.80042  21956977.675    21956975.434
  22473419.039     1644690.36443   1300247.42442  22473420.876    22473416.719
  21882739.456    18131026.96943  14123215.72842  21882741.611    21882737.716
  19969217.628     9034852.03744   7044292.66842  19969219.388    19969216.369
  23178767.804     6005725.39343   4683219.68342  23178770.210    23178768.095
  20995369.934    -1023703.81643   -781793.03542  20995372.479    20995368.769
  23502298.231   -10502301.67743  -8167686.54142  23502300.469    23502298.623
 04  5 17 20 55 30.0000000  0  9G22G21G 3G19G18G15G 9G14G31
  20614407.353    11195620.74244   8725312.73842  20614408.198    20614402.375
  22661512.586    20696491.08443  16117368.36842  22661514.456    22661511.300
  21964191.799    11429978.89443   8912184.32342  21964193.774    21964191.542
  22465989.634     1605648.64043   1269825.31242  22465991.495    22465987.330
  21894567.641    18193184.31543  14171650.00542  21894569.809    21894565.874
  19971486.426     9046774.55144   7053582.93142  19971488.162    19971485.174
  23178366.661     6003617.27143   4681577.00142  23178369.024    23178366.898
  20983234.178    -1087477.51243   -831486.79142  20983236.731    20983233.005
  23492092.120   -10555934.85543  -8209478.60542  23492094.395    23492092.552
 04  5 17 20 56  0.0000000  0  9G22G21G 3G19G18G15G 9G14G31
  20617788.652    11213389.65544   8739158.63842  20617789.488    20617783.703
  22678365.962    20785055.84843  16186379.78742  22678367.804    22678364.704
  21971503.874    11468404.11143   8942126.01142  21971505.873    21971503.651
  22458664.428     1567154.59043   1239829.96042  22458666.287    22458662.129
  21906424.410    18255491.88143  14220201.33442  21906426.566    21906422.635
  19973845.057     9059169.23744   7063241.12142  19973846.799    19973843.797
  23178082.411     6002123.81543   4680413.29442  23178084.761    23178082.695
  20971187.820    -1150781.50644   -880814.54542  20971190.364    20971186.637
  23481983.963   -10609053.63743  -8250869.83342  23481986.181    23481984.384
 04  5 17 20 56 30.0000000  0  9G22G21G 3G19G18G15G 9G14G31
  20621217.335    11231407.58044   8753198.57442  20621218.187    20621212.405
  22695272.631    20873900.69743  16255609.45142  22695274.453    22695271.392
  21978912.641    11507337.42443   8972463.60942  21978914.651    21978912.428
  22451444.746     1529214.82143   1210266.51042  22451446.548    22451442.450
  21918310.628    18317954.28643  14268873.31442  21918312.783    21918308.838
  19976294.678     9072042.02744   7073271.85442  19976296.425    19976293.405
  23177916.246     6001250.91043   4679733.13442  23177918.597    23177916.616
  20959232.078    -1213609.19944   -929771.15442  20959234.625    20959230.891
  23471975.002   -10661650.92343  -8291854.72042  23471977.216    23471975.394
 04  5 17 20 57  0.0000000  0  9G22G21G 3G19G18G15G 9G14G31
  20624691.619    11249665.14444   8767425.24542  20624692.481    20624686.704
  22712230.722    20963015.66443  16325049.60842  22712232.516    22712229.484
  21986416.118    11546768.10843   9003188.78042  21986418.089    21986415.899
  22444329.118     1491821.91843   1181129.19642  22444330.899    22444326.816
  21930224.506    18380562.08643  14317658.59442  21930226.677    21930222.741
  19978833.775     9085385.04144   7083669.00242  19978835.495    19978832.495
  23177866.676     6000990.30743   4679530.09942  23177868.986    23177867.007
  20947365.559    -1275968.12043   -978362.48642  20947368.090    20947364.354
  23462063.891   -10713734.00343  -8332438.90142  23462066.082    23462064.248
 04  5 17 20 57 30.0000000  0  9G22G21G 3G19G18G15G 9G14G31
  20628212.880    11268169.38244   8781844.12942  20628213.724    20628207.946
  22729241.440    21052407.10143  16394705.18742  22729243.222    22729240.168
  21994015.349    11586702.18443   9034306.19842  21994017.337    21994015.155
  22437319.194     1454984.57043   1152424.77942  22437321.007    22437316.868
  21942167.297    18443321.76043  14366562.21142  21942169.459    21942165.572
  19981463.945     9099206.65144   7094439.07842  19981465.689    19981462.650
  23177935.198     6001350.58843   4679810.87442  23177937.555    23177935.575
  20935589.974    -1337849.18944  -1026581.46642  20935592.478    20935588.738
  23452252.421   -10765293.47443  -8372615.09642  23452254.673    23452252.824
 04  5 17 20 58  0.0000000  0  9G22G21G 3G19G18G15G 9G14G31
  20631779.814    11286913.74844   8796450.13242  20631780.647    20631774.872
  22746303.447    21142068.39143  16464571.03842  22746305.261    22746302.213
  22001708.879    11627131.92743   9065809.85742  22001710.894    22001708.734
  22430414.197     1418698.59743   1124149.99942  22430416.019    22430411.868
  21954137.821    18506227.28843  14415579.48342  21954140.001    21954136.109
  19984184.264     9113501.85544   7105578.18442  19984185.964    19984182.951
  23178120.851     6002326.44543   4680571.31442  23178123.221    23178121.305
  20923904.459    -1399256.90943  -1074431.60142  20923906.966    20923903.213
  23442539.765   -10816333.54143  -8412386.55142  23442542.026    23442540.213
 04  5 17 20 58 30.0000000  0  9G22G21G 3G19G18G15G 9G14G31
  20635392.713    11305899.72744   8811244.39742  20635393.536    20635387.806
  22763417.049    21232000.79643  16534648.15342  22763418.867    22763415.849
  22009496.842    11668057.88943   9097700.17642  22009498.853    22009496.716
  22423614.808     1382967.59043   1096307.66842  22423616.592    22423612.445
  21966136.403    18569280.15243  14464711.56642  21966138.584    21966134.711
  19986995.182     9128273.25844   7117088.35742  19986996.876    19986993.853
  23178424.226     6003920.82343   4681813.72042  23178426.578    23178424.680
  20912309.738    -1460187.52643  -1121909.97142  20912312.215    20912308.445
  23432926.718   -10866850.21743  -8451750.17042  23432929.010    23432927.166
 04  5 17 20 59  0.0000000  0  9G22G21G 3G19G18G15G 9G14G31
  20639051.964    11325129.27044   8826228.45442  20639052.788    20639047.052
  22780582.540    21322205.40843  16604937.37542  22780584.351    22780581.319
  22017379.327    11709480.53143   9129977.52142  22017381.312    22017379.228
  22416921.684     1347794.90743   1068900.38742  22416923.418    22416919.296
  21978163.342    18632482.02943  14513959.75642  21978165.508    21978161.648
  19989897.320     9143524.07144   7128972.10342  19989899.023    19989895.988
  23178845.888     6006136.71043   4683540.41542  23178848.200    23178846.371
  20900806.452    -1520637.51143  -1169013.82542  20900808.936    20900805.152
  23423414.028   -10916839.58443  -8490702.89842  23423416.331    23423414.496
 04  5 17 20 59 30.0000000  0  9G22G21G 3G19G18G15G 9G14G31
  20642756.942    11344598.98844   8841399.66142  20642757.782    20642752.020
  22797799.154    21412678.75343  16675435.99342  22797800.897    22797797.917
  22025355.482    11751395.52143   9162638.51042  22025357.476    22025355.408
  22410334.565     1313179.19143   1041927.10442  22410336.286    22410332.103
  21990218.018    18695829.64043  14563321.51242  21990220.158    21990216.276
  19992890.301     9159252.29744   7141227.85542  19992892.004    19992888.971
  23179385.434     6008972.16043   4685749.87242  23179387.733    23179385.906
  20889394.394    -1580608.05144  -1215744.08042  20889396.904    20889393.123
  23414001.531   -10966302.48643  -8529245.40442  23414003.814    23414002.013
 04  5 17 21  0  0.0000000  0  9G22G21G 3G19G18G15G 9G14G31
  20646507.202    11364306.68844   8856756.30542  20646508.062    20646502.268
  22815066.251    21503417.78343  16746141.64442  22815068.011    22815065.096
  22033424.713    11793799.44843   9195680.48442  22033426.690    22033424.646
  22403853.377     1279120.01443   1015387.48642  22403855.099    22403850.862
  22002299.980    18759320.91543  14612795.21442  22002302.148    22002298.253
  19995973.964     9175456.97744   7153854.86942  19995975.663    19995972.616
  23180042.654     6012426.09943   4688441.28042  23180044.957    23180043.178
  20878073.511    -1640099.56444  -1262101.07042  20878076.027    20878072.226
  23404689.205   -11015239.02643  -8567377.74442  23404691.467    23404689.642
 04  5 17 21  0 30.0000000  0  9G22G21G 3G19G18G15G 9G14G31
  20650303.370    11384255.78044   8872301.04742  20650304.228    20650298.449
  22832384.537    21594425.70743  16817056.81542  22832386.311    22832383.402
  22041587.436    11836694.53443   9229105.18142  22041589.427    22041587.360
  22397479.071     1245622.73343    989285.70842  22397480.798    22397476.537
  22014409.917    18822959.07643  14662383.37342  22014412.079    22014408.214
  19999149.149     9192142.68144   7166856.71142  19999150.853    19999147.830
  23180818.427     6016503.05143   4691618.15342  23180820.743    23180819.010
  20866844.813    -1699106.57544  -1308080.52742  20866847.338    20866843.538
  23395478.106   -11063643.56443  -8605095.52842  23395480.380    23395478.497
 04  5 17 21  1  0.0000000  0  9G22G21G 3G19G18G15G 9G14G31
  20654144.122    11404439.15044   8888028.34442  20654144.976    20654139.236
  22849752.628    21685695.26843  16888175.86342  22849754.398    22849751.472
  22049842.002    11880072.50643   9262906.15442  22049844.010    22049841.962
  22391210.664     1212682.05943    963617.65342  22391212.407    22391208.126
  22026546.482    18886737.11743  14712080.52742  22026548.635    22026544.772
  20002414.776     9209303.63244   7180228.87142  20002416.458    20002413.456
  23181711.696     6021197.18343   4695275.93142  23181713.970    23181712.227
  20855707.333    -1757634.25143  -1353686.47942  20855709.841    20855706.082
  23386367.356   -11111520.94343  -8642402.56142  23386369.585    23386367.705
 04  5 17 21  1 30.0000000  0  9G22G21G 3G19G18G15G 9G14G31
  20658030.363    11424861.49844   8903941.85942  20658031.223    20658025.468
  22867171.257    21777230.31743  16959501.77142  22867172.979    22867170.131
  22058189.114    11923936.67343   9297085.97942  22058191.114    22058189.053
  22385049.431     1180304.55043    938388.42642  22385051.180    22385046.896
  22038710.545    18950659.52443  14761890.17642  22038712.680    22038708.850
  20005771.942     9226945.79444   7193976.00542  20005773.639    20005770.654
  23182723.503     6026514.23543   4699419.11942  23182725.768    23182723.979
  20844662.315    -1815676.10044  -1398913.86542  20844664.812    20844661.033
  23377358.195   -11158864.38343  -8679293.52442  23377360.430    23377358.512
 04  5 17 21  2  0.0000000  0  9G22G21G 3G19G18G15G 9G14G31
  20661961.960    11445522.11644   8920041.03442  20661962.810    20661957.059
  22884640.092    21869029.41943  17031033.43842  22884641.829    22884639.029
  22066628.338    11968284.87143   9331642.96342  22066630.332    22066628.274
  22378995.496     1148490.92643    913598.58842  22378997.209    22378992.956
  22050901.913    19014725.48943  14811811.68642  22050904.068    22050900.229
  20009220.804     9245069.48344   7208098.35142  20009222.457    20009219.482
  23183853.872     6032454.32743   4704047.77542  23183856.136    23183854.267
  20833709.887    -1873231.37244  -1443762.09942  20833712.378    20833708.599
  23368450.911   -11205672.53843  -8715767.38242  23368453.110    23368451.159
 04  5 17 21  2 30.0000000  0  9G22G21G 3G19G18G15G 9G14G31
  20665938.647    11466419.61644   8936324.79342  20665939.493    20665933.723
  22902158.895    21961090.95943  17102769.61542  22902160.663    22902157.884
  22075159.189    12013114.63843   9366575.20042  22075161.187    22075159.106
  22373048.877     1117241.54443    889248.41942  22373050.622    22373046.406
  22063120.409    19078933.97143  14861844.24742  22063122.561    22063118.726
  20012761.255     9263674.65744   7222595.88042  20012762.913    20012759.960
  23185102.686     6039017.10743   4709161.66042  23185105.042    23185103.100
  20822850.178    -1930299.42544  -1488230.68342  20822852.678    20822848.887
  23359645.584   -11251944.71543  -8751823.59742  23359647.765    23359645.948
 04  5 17 21  3  0.0000000  0  9G22G21G 3G19G18G15G 9G14G31
  20669959.532    11487549.55344   8952789.67242  20669960.408    20669954.628
  22919726.667    22053409.74843  17174706.22342  22919728.420    22919725.655
  22083780.625    12058420.25243   9401878.22742  22083782.599    22083780.531
  22367209.241     1086553.85243    865335.92542  22367210.951    22367206.730
  22075365.161    19143280.53043  14911984.39542  22075367.294    22075363.506
  20016392.723     9282758.08044   7237466.07442  20016394.375    20016391.418
  23186469.413     6046199.25843   4714758.15742  23186471.751    23186469.770
  20812082.668    -1986882.85543  -1532321.63942  20812085.178    20812081.405
  23350941.791   -11297683.12343  -8787463.88542  23350943.956    23350942.243
 04  5 17 21  3 30.0000000  0  9G22G21G 3G19G18G15G 9G14G31
  20674025.685    11508917.30944   8969439.86642  20674026.550    20674020.774
  22937344.326    22145990.74343  17246847.15542  22937346.052    22937343.340
  22092493.326    12104205.61643   9437555.08642  22092495.299    22092493.255
  22361477.746     1056434.82343    841866.54442  22361479.495    22361475.248
  22087637.188    19207770.46643  14962236.27542  22087639.349    22087635.542
  20020116.449     9302326.37044   7252714.08242  20020118.096    20020115.155
  23187955.143     6054007.01143   4720842.13142  23187957.482    23187955.539
  20801408.768    -2042974.31744  -1576029.24242  20801411.282    20801407.525
  23342341.044   -11342880.22443  -8822682.38242  23342343.153    23342341.400
 04  5 17 21  4  0.0000000  0  9G22G21G 3G19G18G15G 9G14G31
  20678136.435    11530519.47644   8986272.71642  20678137.309    20678131.513
  22955011.112    22238830.03643  17319189.36542  22955012.840    22955010.147
  22101296.395    12150465.92243   9473602.03042  22101298.377    22101296.357
  22355854.178     1026882.68443    818838.90342  22355855.891    22355851.684
  22099935.855    19272400.31043  15012597.17342  22099938.007    22099934.181
  20023932.018     9322377.24144   7268338.13042  20023933.672    20023930.704
  23189559.541     6062438.14743   4727411.84342  23189561.891    23189559.914
  20790828.178    -2098575.55044  -1619354.85042  20790830.699    20790826.905
  23333843.142   -11387537.47243  -8857480.22442  23333845.226    23333843.367
 04  5 17 21  4 30.0000000  0  9G22G21G 3G19G18G15G 9G14G31
  20682291.827    11552356.15844   9003288.30042  20682292.709    20682286.890
  22972727.019    22331927.15043  17391732.46042  22972728.696    22972726.060
  22110189.615    12197200.02143   9510018.15542  22110191.600    22110189.603
  22350338.740      997899.02443    796254.22842  22350340.498    22350336.253
  22112261.131    19337170.17043  15063067.17042  22112263.311    22112259.478
  20027839.587     9342911.71144   7284339.00542  20027841.250    20027838.272
  23191282.733     6071493.36543   4734467.87042  23191285.005    23191283.034
  20780341.197    -2153684.97244  -1662297.22642  20780343.689    20780339.887
  23325448.150   -11431653.03443  -8891855.95642  23325450.284    23325448.448
 04  5 17 21  5  0.0000000  0  9G22G21G 3G19G18G15G 9G14G31
  20686490.948    11574422.75444   9020483.04242  20686491.825    20686486.041
  22990491.009    22425277.00443  17464472.51642  22990492.724    22990489.964
  22119171.901    12244402.10643   9546798.94742  22119173.863    22119171.914
  22344930.981      969480.99443    774110.31142  22344932.718    22344928.496
  22124612.205    19402075.37443  15113642.63442  22124614.376    22124610.564
  20031838.602     9363926.62244   7300714.25342  20031840.275    20031837.292
  23193123.942     6081169.14543   4742007.44042  23193126.247    23193124.255
  20769947.299    -2208305.06643  -1704858.30842  20769949.807    20769946.004
  23317155.911   -11475229.15143  -8925811.35242  23317157.965    23317156.197
 04  5 17 21  5 30.0000000  0  9G22G21G 3G19G18G15G 9G14G31
  20690734.992    11596725.38644   9037861.71442  20690735.888    20690730.083
  23008304.106    22518884.98743  17537413.69942  23008305.834    23008303.049
  22128244.047    12292076.37243   9583947.67242  22128246.006    22128244.058
  22339632.290      941636.13543    752413.02042  22339634.003    22339629.800
  22136990.229    19467122.23043  15164328.47542  22136992.399    22136988.628
  20035930.328     9385428.85244   7317469.23342  20035932.014    20035929.038
  23195084.540     6091472.33143   4750035.90842  23195086.862    23195084.904
  20759647.958    -2262428.36044  -1747032.27142  20759650.472    20759646.678
  23308967.739   -11518258.04343  -8959340.33742  23308969.750    23308968.052
 04  5 17 21  6  0.0000000  0  9G22G21G 3G19G18G15G 9G14G31
  20695022.366    11619255.69144   9055417.78742  20695023.252    20695017.456
  23026164.645    22612742.18543  17610549.07742  23026166.356    23026163.598
  22137404.223    12340213.20843   9621456.83842  22137406.182    22137404.251
  22334441.420      914357.87643    731157.22942  22334443.104    22334438.913
  22149393.612    19532302.17943  15215118.02342  22149395.779    22149391.983
  20040113.459     9407411.29244   7334598.39542  20040115.113    20040112.174
  23197163.133     6102395.52543   4758547.47742  23197165.456    23197163.535
  20749441.925    -2316061.26844  -1788824.11942  20749444.443    20749440.639
  23300882.669   -11560745.59743  -8992447.50542  23300884.595    23300882.889
 04  5 17 21  6 30.0000000  0  9G22G21G 3G19G18G15G 9G14G31
  20699354.517    11642021.26744   9073157.19242  20699355.390    20699349.620
  23044073.932    22706855.77243  17683884.23742  23044075.671    23044072.921
  22146653.556    12388818.61343   9659331.12242  22146655.540    22146653.596
  22329360.032      887655.03843    710349.82342  22329361.710    22329357.545
  22161823.753    19597622.94143  15266017.29242  22161825.918    22161822.165
  20044389.555     9429882.32944   7352108.28342  20044391.201    20044388.280
  23199361.315     6113946.97543   4767548.61842  23199363.585    23199361.728
  20739330.891    -2369194.93144  -1830226.94542  20739333.398    20739329.622
  23292902.300   -11602682.81743  -9025125.84342  23292904.248    23292902.479
 04  5 17 21  7  0.0000000  0  9G22G21G 3G19G18G15G 9G14G31
  20703729.628    11665012.61644   9091072.52642  20703730.500    20703724.758
  23062030.117    22801215.79343  17757411.42442  23062031.844    23062029.137
  22155990.066    12437882.09843   9697562.35242  22155992.073    22155990.112
  22324386.651      861519.87943    689984.76242  22324388.358    22324384.188
  22174278.918    19663075.21043  15317019.04142  22174281.052    22174277.370
  20048757.064     9452833.75744   7369992.49642  20048758.717    20048755.801
  23201677.424     6126118.06643   4777032.58742  23201679.736    23201677.780
  20729313.419    -2421836.88343  -1871246.61742  20729315.922    20729312.171
  23285025.148   -11644077.03743  -9057381.06242  23285027.137    23285025.395
 04  5 17 21  7 30.0000000  0  9G22G21G 3G19G18G15G 9G14G31
  20708148.961    11688236.25244   9109168.86142  20708149.822    20708144.070
  23080034.239    22895827.81443  17831134.97542  23080035.968    23080033.338
  22165414.676    12487408.30043   9736154.13442  22165416.632    22165414.684
  22319522.799      835960.27143    670068.18142  22319524.505    22319520.381
  22186760.280    19728665.30143  15368128.17742  22186762.403    22186758.769
  20053217.431     9476273.19344   7388256.98442  20053219.083    20053216.211
  23204112.726     6138915.81943   4787004.84242  23204115.084    23204113.132
  20719391.055    -2473979.23044  -1911876.98942  20719393.566    20719389.803
  23277252.936   -11684919.90243  -9089206.65142  23277254.970    23277253.236
 04  5 17 21  8  0.0000000  0  9G22G21G 3G19G18G15G 9G14G31
  20712611.984    11711689.70844   9127444.28142  20712612.869    20712607.133
  23098085.726    22990688.73943  17905052.47642  23098087.483    23098084.846
  22174926.524    12537393.22743   9775103.36642  22174928.520    22174926.562
  22314768.282      810975.09243    650599.21042  22314769.989    22314765.858
  22199267.407    19794390.83443  15419342.85542  22199269.558    22199265.929
  20057770.365     9500198.95844   7406900.42842  20057772.019    20057769.135
  23206667.028     6152338.71843   4797464.24942  23206669.407    23206667.383
  20709563.586    -2525622.76244  -1952118.67442  20709566.120    20709562.344
  23269585.553   -11725212.07643  -9120603.13942  23269587.591    23269585.861
 04  5 17 21  8 30.0000000  0  9G22G21G 3G19G18G15G 9G14G31
  20717118.248    11735370.24744   9145896.64842  20717119.123    20717113.383
  23116183.956    23085795.13843  17979161.25642  23116185.732    23116183.032
  22184524.831    12587832.38543   9814406.54342  22184526.813    22184524.869
  22310122.761      786562.81143    631576.65342  22310124.512    22310120.357
  22211799.780    19860248.98143  15470660.86342  22211801.915    22211798.369
  20062415.478     9524609.09344   7425921.30142  20062417.136    20062414.245
  23209339.840     6166384.23843   4808408.78942  23209342.190    23209340.100
  20699830.826    -2576768.76944  -1991972.67542  20699833.353    20699829.538
  23262022.760   -11764954.63643  -9151571.35042  23262024.794    23262023.162
 04  5 17 21  9  0.0000000  0  9G22G21G 3G19G18G15G 9G14G31
  20721667.964    11759279.01844   9164526.85742  20721668.842    20721663.079
  23134328.979    23181147.50143  18053461.68742  23134330.803    23134328.057
  22194209.539    12638725.53943   9854063.48742  22194211.509    22194209.580
  22305586.818      762726.03443    613002.53442  22305588.523    22305584.368
  22224357.637    19926241.01943  15522083.20342  22224359.756    22224356.246
  20067153.161     9549505.81444   7445321.32842  20067154.849    20067151.942
  23212131.512     6181054.33243   4819840.02342  23212133.845    23212131.696
  20690193.299    -2627414.38744  -2031436.76842  20690195.812    20690191.959
  23254565.163   -11804144.47043  -9182108.85842  23254567.257    23254565.543
 04  5 17 21  9 30.0000000  0  9G22G21G 3G19G18G15G 9G14G31
  20726260.561    11783413.29544   9183332.78642  20726261.437    20726255.681
  23152520.213    23276742.74143  18127951.38842  23152522.034    23152519.372
  22203979.885    12690068.81943   9894071.18042  22203981.851    22203979.946
  22301160.151      739463.78143    594876.10642  22301161.881    22301157.693
  22236940.473    19992364.10143  15573607.66342  22236942.589    22236939.070
  20071983.155     9574887.47444   7465099.23342  20071984.822    20071981.908
  23215041.635     6196347.01443   4831756.38842  23215043.921    23215041.806
  20680650.765    -2677560.70544  -2070511.79342  20680653.259    20680649.408
  23247212.628   -11842782.32243  -9212216.26042  23247214.692    23247212.974
 04  5 17 21 10  0.0000000  0  9G22G21G 3G19G18G15G 9G14G31
  20730896.644    11807776.05044   9202316.74642  20730897.520    20730891.748
  23170758.135    23372582.99443  18202631.99242  23170759.866    23170757.306
  22213836.114    12741863.38043   9934430.52142  22213838.074    22213836.207
  22296843.651      716780.15843    577200.55142  22296845.372    22296841.151
  22249548.864    20058621.50343  15625236.78142  22249550.986    22249547.437
  20076906.172     9600758.10244   7485258.14942  20076907.848    20076904.923
  23218070.883     6212265.75043   4844160.59542  23218073.180    23218071.012
  20671204.093    -2727203.31544  -2109194.32042  20671206.583    20671202.712
  23239966.023   -11880863.66343  -9241890.01942  23239968.121    23239966.306
 04  5 17 21 10 30.0000000  0  9G22G21G 3G19G18G15G 9G14G31
  20735575.412    11832363.04244   9221475.43842  20735576.282    20735570.478
  23189041.630    23468663.08743  18277499.48942  23189043.320    23189040.825
  22223777.027    12794103.07743   9975136.71642  22223778.997    22223777.152
  22292636.626      694672.06343    559973.46442  22292638.380    22292634.140
  22262182.027    20125008.92543  15676967.21542  22262184.156    22262180.555
  20081921.596     9627114.16644   7505795.32942  20081923.243    20081920.340
  23221218.517     6228806.58043   4857049.54442  23221220.782    23221218.635
  20661852.702    -2776345.15944  -2147486.64042  20661855.196    20661851.296
  23232824.775   -11918391.03943  -9271132.11642  23232826.896    23232825.046
 04  5 17 21 11  0.0000000  0  9G22G21G 3G19G18G15G 9G14G31
  20740298.360    11857182.29244   9240815.11442  20740299.230    20740293.432
  23207372.210    23564990.51043  18352559.69742  23207373.875    23207371.455
  22233803.926    12846794.47843  10016194.89342  22233805.896    22233804.056
  22288540.890      673148.86443    543202.13542  22288542.669    22288538.450
  22274841.387    20191534.08443  15728804.96842  22274843.499    22274839.909
  20087031.077     9653964.56844   7526717.70642  20087032.714    20087029.805
  23224486.118     6245978.09043   4870429.93842  23224488.376    23224486.251
  20652598.376    -2824976.80444  -2185381.40242  20652600.889    20652596.963
  23225790.760   -11955354.81843  -9299935.04642  23225792.927    23225790.990
 04  5 17 21 11 30.0000000  0  9G22G21G 3G19G18G15G 9G14G31
  20745062.267    11882216.69744   9260322.44242  20745063.120    20745057.323
  23225746.438    23661547.24443  18427798.59742  23225748.063    23225745.677
  22243913.176    12899918.48643  10057590.16542  22243915.140    22243913.279
  22284553.454      652194.56743    526874.09842  22284555.195    22284551.005
  22287523.797    20258180.22143  15780736.98642  22287525.880    22287522.300
  20092231.573     9681293.16144   7548012.70042  20092233.197    20092230.281
  23227870.552     6263763.53343   4884288.70742  23227872.806    23227870.675
  20643438.189    -2873113.85444  -2222890.76342  20643440.696    20643436.755
  23218861.166   -11991770.38343  -9328310.81642  23218863.292    23218861.267
 04  5 17 21 12  0.0000000  0  9G22G21G 3G19G18G15G 9G14G31
  20749869.643    11907479.70044   9280007.89842  20749870.506    20749864.726
  23244166.773    23758346.44843  18503226.42842  23244168.412    23244166.094
  22254106.974    12953486.91343  10099331.74142  22254108.948    22254107.067
  22280677.018      631823.90743    511000.85142  22280678.789    22280674.631
  22300231.792    20324960.96043  15832773.90342  22300233.925    22300230.264
  20097525.737     9709114.20544   7569691.42742  20097527.391    20097524.453
  23231374.518     6282176.89843   4898636.80242  23231376.756    23231374.598
  20634374.978    -2920741.48244  -2260003.17742  20634377.462    20634373.496
  23212038.689   -12027622.52443  -9356247.54442  23212040.789    23212038.824
 04  5 17 21 12 30.0000000  0  9G22G21G 3G19G18G15G 9G14G31
  20754719.202    11932964.28144   9299866.01842  20754720.061    20754714.287
  23262631.798    23855380.30643  18578837.10042  23262633.384    23262631.195
  22264383.752    13007491.55643  10141413.22142  22264385.719    22264383.869
  22276910.615      612031.26643    495578.00742  22276912.389    22276908.238
  22312964.016    20391869.07743  15884910.07542  22312966.196    22312962.460
  20102912.448     9737421.43244   7591748.99542  20102914.078    20102911.146
  23234996.657     6301211.51943   4913468.97742  23234998.931    23234996.721
  20625407.627    -2967865.10344  -2296722.85742  20625410.133    20625406.149
  23205322.385   -12062916.81543  -9383749.58842  23205324.534    23205322.599
 04  5 17 21 13  0.0000000  0  9G22G21G 3G19G18G15G 9G14G31
  20759611.808    11958675.07744   9319900.40242  20759612.650    20759606.900
  23281142.111    23952652.40343  18654633.41642  23281143.743    23281141.591
  22274744.000    13061934.85143  10183836.50542  22274745.951    22274744.150
  22273255.232      592822.05743    480609.78542  22273257.020    22273252.848
  22325721.347    20458909.13543  15937149.05342  22325723.545    22325719.791
  20108392.611     9766220.01044   7614189.43342  20108394.268    20108391.344
  23238737.952     6320872.31443   4928789.08242  23238740.220    23238738.086
  20616537.259    -3014479.07344  -2333045.40442  20616539.767    20616535.775
  23198713.380   -12097647.05443  -9410812.10842  23198715.546    23198713.645
 04  5 17 21 13 30.0000000  0  9G22G21G 3G19G18G15G 9G14G31
  20764546.383    11984606.37644   9340106.60942  20764547.235    20764541.456
  23299696.692    24050156.75443  18730610.69342  23299698.230    23299696.237
  22285186.369    13116809.55943  10226595.96142  22285188.317    22285186.537
  22269709.994      574191.77443    466092.67242  22269711.790    22269707.637
  22338502.732    20526075.72343  15989486.61442  22338504.939    22338501.191
  20113965.432     9795505.41044   7637009.21142  20113967.099    20113964.178
  23242597.365     6341153.98643   4944592.97842  23242599.663    23242597.539
  20607763.021    -3060587.79544  -2368974.25042  20607765.538    20607761.553
  23192210.952   -12131817.26843  -9437438.23742  23192213.132    23192211.257
 04  5 17 21 14  0.0000000  0  9G22G21G 3G19G18G15G 9G14G31
  20769523.042    12010758.95344   9360485.24242  20769523.911    20769518.117
  23318295.411    24147893.06343  18806768.72642  23318296.902    23318295.025
  22295710.664    13172114.79143  10269690.88342  22295712.622    22295710.851
  22266275.315      556142.42443    452028.23342  22266277.102    22266272.971
  22351308.330    20593369.54943  16041923.33642  22351310.533    22351306.824
  20119631.165     9825278.97544   7660209.38142  20119632.823    20119629.927
  23246575.266     6362057.81943   4960881.67942  23246577.497    23246575.382
  20599085.402    -3106188.81344  -2404507.48542  20599087.924    20599083.946
  23185815.581   -12165425.11443  -9463626.17342  23185817.821    23185815.882
 04  5 17 21 14 30.0000000  0  9G22G21G 3G19G18G15G 9G14G31
  20774541.475    12037131.07244   9381034.93942  20774542.359    20774536.549
  23336937.745    24245858.73943  18883105.49142  23336939.244    23336937.335
  22306316.222    13227847.22443  10313118.69742  22306318.189    22306316.452
  22262951.070      538673.41643    438416.00942  22262952.868    22262948.736
  22364137.887    20660789.02343  16094457.95042  22364140.069    22364136.354
  20125389.668     9855539.96044   7683789.35442  20125391.328    20125388.414
  23250671.242     6383582.17543   4977653.91242  23250673.452    23250671.372
  20590504.326    -3151282.57344  -2439645.45042  20590506.849    20590502.855
  23179527.219   -12198470.77443  -9489376.03542  23179529.459    23179527.480
 04  5 17 21 15  0.0000000  0  9G22G21G 3G19G18G15G 9G14G31
  20779601.977    12063724.25644   9401756.90142  20779602.872    20779597.072
  23355623.842    24344054.38643  18959621.44542  23355625.340    23355623.462
  22317002.976    13284006.30043  10356878.95642  22317004.944    22317003.224
  22259737.747      521787.01443    425257.76242  22259739.530    22259735.373
  22376991.603    20728335.41743  16147091.47542  22376993.747    22376990.039
  20131241.227     9886290.17044   7707750.53942  20131242.891    20131240.005
  23254885.556     6405728.54543   4994910.81842  23254887.854    23254885.649
  20582020.259    -3195866.68044  -2474386.28542  20582022.758    20582018.750
  23173346.433   -12230951.39643  -9514685.61042  23173348.586    23173346.557
 04  5 17 21 15 30.0000000  0  9G22G21G 3G19G18G15G 9G14G31
  20784704.561    12090538.47844   9422651.10042  20784705.471    20784699.656
  23374353.573    24442479.36243  19036316.11842  23374355.146    23374353.245
  22327770.611    13340590.34143  10400970.35842  22327772.545    22327770.887
  22256635.508      505484.56843    412554.55242  22256637.318    22256633.118
  22389869.561    20796009.28643  16199824.33442  22389871.696    22389868.000
  20137186.097     9917530.54144   7732093.67642  20137187.733    20137184.849
  23259218.248     6428497.19543   5012652.63642  23259220.547    23259218.378
  20573633.407    -3239939.69243  -2508728.86642  20573635.907    20573631.892
  23167273.360   -12262865.43343  -9539553.67842  23167275.541    23167273.511
 04  5 17 21 16  0.0000000  0  9G22G21G 3G19G18G15G 9G14G31
  20789848.905    12117572.12044   9443716.27042  20789849.818    20789843.992
  23393126.500    24541131.28743  19113187.62642  23393128.127    23393126.226
  22338618.406    13397595.80243  10445390.13742  22338620.366    22338618.725
  22253644.159      489764.87743    400305.42842  22253645.952    22253641.748
  22402771.371    20863808.69443  16252655.00742  22402773.549    22402769.846
  20143224.039     9949260.12844   7756818.01742  20143225.692    20143222.817
  23263669.073     6451886.71943   5030878.25042  23263671.361    23263669.173
  20565343.740    -3283502.04644  -2542673.53242  20565346.251    20565342.214
  23161308.104   -12294213.28443  -9563980.57742  23161310.283    23161308.227
 04  5 17 21 16 30.0000000  0  9G22G21G 3G19G18G15G 9G14G31
  20795034.973    12144825.07844   9464952.34242  20795035.897    20795030.072
  23411942.411    24640009.22743  19190235.23942  23411944.105    23411942.173
  22349546.001    13455020.59143  10490136.66742  22349547.987    22349546.352
  22250763.973      474629.33443    388511.49142  22250765.757    22250761.558
  22415696.997    20931733.32243  16305583.26542  22415699.174    22415695.492
  20149355.148     9981479.32644   7781923.87542  20149356.805    20149353.936
  23268238.070     6475897.01143   5049587.56942  23268240.418    23268238.233
  20557151.438    -3326552.66044  -2576219.43742  20557153.961    20557149.944
  23155450.809   -12324993.47443  -9587965.12842  23155452.961    23155450.967
 04  5 17 21 17  0.0000000  0  9G22G21G 3G19G18G15G 9G14G31
  20800262.002    12172293.32144   9486356.16142  20800262.922    20800257.092
  23430800.446    24739108.39843  19267455.25042  23430802.219    23430800.230
  22360552.280    13512858.95843  10535205.46242  22360554.299    22360552.710
  22247994.284      460074.72243    377170.22642  22247996.084    22247991.896
  22428645.722    20999779.42543  16358606.16542  22428647.941    22428644.249
  20155578.794    10014184.76044   7807408.60942  20155580.466    20155577.593
  23272924.528     6500524.26443   5068777.64242  23272926.827    23272924.679
  20549056.023    -3369094.21344  -2609368.67542  20549058.554    20549054.512
  23149701.006   -12355208.67943  -9611509.44742  23149703.161    23149701.219
 04  5 17 21 17 30.0000000  0  9G22G21G 3G19G18G15G 9G14G31
  20805531.147    12199982.78344   9507932.36142  20805532.038    20805526.220
  23449701.544    24838433.64043  19344851.40542  23449703.296    23449701.323
  22371638.006    13571114.67943  10580599.47442  22371640.046    22371638.478
  22245336.451      446107.62043    366286.75542  22245338.204    22245334.046
  22441618.682    21067952.72743  16411728.19142  22441620.849    22441617.193
  20161896.244    10047383.04244   7833277.38142  20161897.890    20161895.036
  23277729.489     6525774.38143   5088453.04342  23277731.722    23277729.618
  20541058.758    -3411119.91443  -2642115.95142  20541061.278    20541057.254
  23144060.173   -12384851.69843  -9634607.89342  23144062.240    23144060.357
 04  5 17 21 18  0.0000000  0  9G22G21G 3G19G18G15G 9G14G31
  20810841.393    12227888.34344   9529676.94242  20810842.278    20810836.485
  23468644.503    24937979.16143  19422419.21442  23468646.251    23468644.301
  22382801.871    13629780.91643  10626313.35942  22382803.895    22382802.374
  22242789.659      432723.92643    355857.89242  22242791.387    22242787.221
  22454614.939    21136248.29443  16464945.48642  22454617.090    22454613.400
  20168306.639    10081069.78344   7859526.77042  20168308.282    20168305.457
  23282652.014     6551642.30043   5108609.84942  23282654.236    23282652.092
  20533158.965    -3452633.53543  -2674464.20442  20533161.472    20533157.466
  23138527.471   -12413926.30343  -9657263.42542  23138529.540    23138527.653
 04  5 17 21 18 30.0000000  0  9G22G21G 3G19G18G15G 9G14G31
  20816192.608    12256009.18844   9551589.28242  20816193.484    20816187.716
  23487629.073    25037743.14343  19500157.24542  23487630.801    23487628.887
  22394043.341    13688855.06843  10672345.10642  22394045.351    22394043.867
  22240353.875      419923.59943    345883.59742  22240355.599    22240351.399
  22467634.355    21204665.51743  16518257.57842  22467636.502    22467632.746
  20174809.908    10115244.69944   7886156.55842  20174811.560    20174808.742
  23287691.887     6578127.16543   5129247.40942  23287694.129    23287691.967
  20525356.642    -3493634.92044  -2706413.30842  20525359.147    20525355.137
  23133103.050   -12442432.00843  -9679475.64142  23133105.124    23133103.217
 04  5 17 21 19  0.0000000  0  9G22G21G 3G19G18G15G 9G14G31
  20821585.136    12284347.06044   9573670.73242  20821586.000    20821580.239
  23506655.402    25137726.66243  19578066.33842  23506657.130    23506655.243
  22405362.452    13748337.02243  10718694.62242  22405364.430    22405362.939
  22238029.550      407709.18443    336365.85742  22238031.291    22238027.070
  22480677.184    21273206.04843  16571665.75142  22480679.374    22480675.582
  20181406.513    10149910.01944   7913168.47942  20181408.173    20181405.355
  23292849.505     6605230.70143   5150367.05242  23292851.756    23292849.628
  20517652.342    -3534121.18144  -2737961.01742  20517654.848    20517650.837
  23127787.381   -12470365.92743  -9701242.33342  23127789.516    23127787.572
 04  5 17 21 19 30.0000000  0  9G22G21G 3G19G18G15G 9G14G31
  20827018.991    12312902.00544   9595921.32842  20827019.841    20827014.067
  23525723.367    25237928.81743  19656145.80142  23525725.071    23525723.229
  22416758.761    13808224.75343  10765360.32542  22416760.718    22416759.256
  22235816.892      396081.54043    327305.34142  22235818.620    22235814.434
  22493743.571    21341870.18643  16625170.23842  22493745.722    22493741.964
  20188096.563    10185066.24244   7940562.91842  20188098.204    20188095.356
  23298124.843     6632952.99043   5171968.82742  23298127.057    23298125.075
  20510046.256    -3574091.28643  -2769106.52842  20510048.774    20510044.732
  23122580.757   -12497726.58243  -9722562.30342  23122582.943    23122581.000
 04  5 17 21 20  0.0000000  0  9G22G21G 3G19G18G15G 9G14G31
  20832492.756    12341666.84544   9618335.48042  20832493.633    20832487.841
  23544831.398    25338341.55843  19734389.36642  23544832.987    23544831.229
  22428230.615    13868509.45543  10812335.35642  22428232.581    22428231.106
  22233714.674      385034.29143    318697.07742  22233716.409    22233712.226
  22506832.022    21410650.64243  16678765.36242  22506834.171    22506830.502
  20194878.783    10220707.05844   7968334.95842  20194880.428    20194877.583
  23303516.528     6661286.56543   5194046.93242  23303518.754    23303516.804
  20502537.245    -3613551.31044  -2799854.57542  20502539.780    20502535.705
  23117482.187   -12524519.88743  -9743440.20442  23117484.332    23117482.369
 04  5 17 21 20 30.0000000  0  9G22G21G 3G19G18G15G 9G14G31
  20838008.014    12370649.81044   9640919.59942  20838008.892    20838003.111
  23563980.893    25438972.32943  19812802.81042  23563982.508    23563980.723
  22439779.123    13929196.95143  10859624.25542  22439781.077    22439779.600
  22231724.572      374576.17643    310547.87542  22231726.318    22231722.158
  22519944.291    21479555.80543  16732457.66242  22519946.398    22519942.737
  20201754.840    10256840.99244   7996491.24942  20201756.503    20201753.659
  23309026.057     6690239.45343   5216607.61242  23309028.313    23309026.371
  20495127.035    -3652492.03344  -2830197.97242  20495129.562    20495125.510
  23112493.305   -12550736.71143  -9763868.89842  23112495.425    23112493.473
 04  5 17 21 21  0.0000000  0  9G22G21G 3G19G18G15G 9G14G31
  20843563.756    12399845.40344   9663669.40642  20843564.633    20843558.860
  23583170.631    25539814.32143  19891380.84142  23583172.253    23583170.529
  22451402.864    13990279.98143  10907221.36342  22451404.835    22451403.332
  22229845.790      364702.70243    302854.24042  22229847.493    22229843.310
  22533079.191    21548580.16643  16786242.83742  22533081.333    22533077.655
  20208723.782    10293463.01944   8025027.88142  20208725.459    20208722.606
  23314652.488     6719806.42743   5239646.78942  23314654.741    23314652.791
  20487814.819    -3690917.97144  -2860140.24142  20487817.331    20487813.297
  23107613.324   -12576381.13143  -9783851.54742  23107615.437    23107613.472
 04  5 17 21 21 30.0000000  0  9G22G21G 3G19G18G15G 9G14G31
  20849159.917    12429253.31444   9686584.65542  20849160.774    20849155.001
  23602400.355    25640866.34843  19970122.53542  23602401.877    23602400.183
  22463101.439    14051756.08243  10955124.74842  22463103.373    22463101.911
  22228078.200      355413.96143    295616.24442  22228079.922    22228075.738
  22546236.717    21617723.40143  16840120.64942  22546238.877    22546235.248
  20215785.612    10330573.12044   8053944.82442  20215787.299    20215784.435
  23320395.631     6749986.60943   5263163.80742  23320397.849    23320395.912
  20480600.685    -3728828.49443  -2889680.89042  20480603.179    20480599.139
  23102842.407   -12601452.55943  -9803387.72642  23102844.505    23102842.499
 04  5 17 21 22  0.0000000  0  9G22G21G 3G19G18G15G 9G14G31
  20854796.756    12458875.04144   9709666.51942  20854797.602    20854791.826
  23621670.113    25742129.27143  20049028.57042  23621671.616    23621670.019
  22474874.716    14113624.82143  11003334.09742  22474876.671    22474875.214
  22226422.290      346712.14743    288835.59242  22226424.044    22226419.867
  22559417.250    21686987.30943  16894092.49442  22559419.366    22559415.789
  20222940.705    10368173.29344   8083243.64542  20222942.376    20222939.526
  23326255.731     6780781.21043   5287159.60342  23326257.868    23326255.928
  20473485.101    -3766221.13043  -2918817.98642  20473487.585    20473483.549
  23098181.065   -12625948.33743  -9822475.32942  23098183.083    23098181.120
 04  5 17 21 22 30.0000000  0  9G22G21G 3G19G18G15G 9G14G31
  20860473.846    12488708.42544   9732913.30342  20860474.700    20860468.934
  23640979.431    25843599.82443  20128096.37642  23640980.900    23640979.282
  22486721.930    14175882.17343  11051846.25542  22486723.882    22486722.475
  22224877.779      338595.66343    282511.04542  22224879.511    22224875.377
  22572620.261    21756369.29443  16948156.34042  22572622.373    22572618.785
  20230188.683    10406261.65144   8112922.86242  20230190.329    20230187.509
  23332232.240     6812187.78143   5311632.24542  23332234.344    23332232.413
  20466467.806    -3803097.22343  -2947552.58442  20466470.301    20466466.261
  23093628.950   -12649869.67243  -9841115.32242  23093631.009    23093628.964
 04  5 17 21 23  0.0000000  0  9G22G21G 3G19G18G15G 9G14G31
  20866191.554    12518755.24344   9756326.40242  20866192.412    20866186.653
  23660328.593    25945279.42743  20207327.08142  23660330.010    23660328.453
  22498643.082    14238527.97743  11100661.09642  22498645.023    22498643.631
  22223445.160      331067.10943    276644.61642  22223446.893    22223442.730
  22585846.152    21825871.44643  17002313.82642  22585848.253    22585844.613
  20237530.100    10444840.91844   8142984.60742  20237531.741    20237528.931
  23338325.533     6844208.16443   5336583.20342  23338327.634    23338325.713
  20459549.339    -3839453.93143  -2975882.46542  20459551.811    20459547.792
  23089186.799   -12673213.38143  -9859305.22742  23089188.838    23089186.824
 04  5 17 21 23 30.0000000  0  9G22G21G 3G19G18G15G 9G14G31
  20871948.964    12549010.49844   9779901.92042  20871949.822    20871944.042
  23679716.194    26047161.25343  20286715.38742  23679717.615    23679716.171
  22510636.755    14301554.72443  11149772.78942  22510638.650    22510637.272
  22222123.528      324121.81243    271232.67142  22222125.268    22222121.071
  22599093.937    21895488.78143  17056561.06542  22599096.035    22599092.368
  20244963.968    10483906.12644   8173425.00842  20244965.631    20244962.808
  23344534.568     6876836.95643   5362008.22542  23344536.739    23344534.766
  20452728.926    -3875295.46844  -3003810.91342  20452731.384    20452727.334
  23084853.748   -12695983.72343  -9877048.35242  23084855.779    23084853.776
 04  5 17 21 24  0.0000000  0  9G22G21G 3G19G18G15G 9G14G31
  20877746.182    12579475.11444   9803640.57542  20877747.049    20877741.285
  23699142.313    26149245.50143  20366261.38342  23699143.682    23699142.281
  22522702.669    14364961.38443  11199180.50842  22522704.618    22522703.208
  22220913.169      317761.13843    266276.28042  22220914.902    22220910.671
  22612363.867    21965222.49243  17110898.98442  22612365.937    22612362.267
  20252490.518    10523458.40844   8204244.95142  20252492.210    20252489.382
  23350859.516     6910074.71143   5387907.77042  23350861.748    23350859.689
  20446006.842    -3910620.06544  -3031336.55142  20446009.337    20446005.259
  23080630.185   -12718178.71643  -9894343.14442  23080632.193    23080630.226
 04  5 17 21 24 30.0000000  0  9G22G21G 3G19G18G15G 9G14G31
  20883584.141    12610153.86244   9827546.08642  20883585.003    20883579.272
  23718607.644    26251535.96443  20445968.08942  23718609.046    23718607.648
  22534841.423    14428750.72643  11248886.42942  22534843.397    22534841.983
  22219815.013      311990.33143    261779.51942  22219816.751    22219812.539
  22625656.803    22035077.07443  17165331.08642  22625658.852    22625655.198
  20260110.790    10563503.01744   8235448.52642  20260112.483    20260109.619
  23357301.187     6943925.63943   5414285.12542  23357303.367    23357301.270
  20439384.181    -3945422.17744  -3058455.05442  20439386.714    20439382.626
  23076517.090   -12739792.87443  -9911185.33542  23076519.227    23076517.210
 04  5 17 21 25  0.0000000  0  9G22G21G 3G19G18G15G 9G14G31
  20889461.613    12641040.14244   9851613.31042  20889462.480    20889456.733
  23738110.745    26354025.05843  20525829.57342  23738112.257    23738110.807
  22547051.354    14492913.97743  11298883.69742  22547053.310    22547051.901
  22218827.966      306803.30443    257737.66142  22218829.717    22218825.498
  22638971.474    22105046.15543  17219852.41042  22638973.562    22638969.908
  20267823.553    10604033.72544   8267030.87942  20267825.251    20267822.379
  23363858.228     6978382.86043   5441134.91542  23363860.446    23363858.254
  20432859.882    -3979707.66943  -3085170.99842  20432862.378    20432858.292
  23072513.600   -12760831.70543  -9927579.23442  23072515.697    23072513.652
 04  5 17 21 25 30.0000000  0  9G22G21G 3G19G18G15G 9G14G31
  20895378.954    12672135.97644   9875843.82542  20895379.836    20895374.079
  23757651.833    26456713.77543  20605846.59842  23757653.361    23757652.044
  22559332.379    14557450.98343  11349172.20342  22559334.342    22559332.979
  22217952.530      302202.65543    254152.71342  22217954.271    22217950.072
  22652308.408    22175131.87543  17274464.62042  22652310.483    22652306.819
  20275629.249    10645052.78644   8298993.76442  20275630.939    20275628.080
  23370530.864     7013447.70243   5468458.16342  23370533.096    23370530.873
  20426434.434    -4013473.59644  -3111482.08842  20426436.944    20426432.826
  23068620.086   -12781292.27243  -9943522.53442  23068622.219    23068620.124
 04  5 17 21 26  0.0000000  0  9G22G21G 3G19G18G15G 9G14G31
  20901336.207    12703441.49244   9900237.72742  20901337.106    20901331.343
  23777230.823    26559601.58443  20686018.76242  23777232.379    23777231.072
  22571684.258    14622360.22143  11399750.75942  22571686.230    22571684.896
  22217188.768      298188.91043    251025.10242  22217190.494    22217186.309
  22665667.448    22245334.13943  17329167.63542  22665669.578    22665665.946
  20283527.951    10686560.65944   8331337.54542  20283529.632    20283526.798
  23377319.040     7049120.03043   5496254.78542  23377321.317    23377319.146
  20420107.997    -4046719.14443  -3137387.69242  20420110.503    20420106.372
  23064836.805   -12801173.38943  -9959014.30542  23064838.926    23064836.873
 04  5 17 21 26 30.0000000  0  9G22G21G 3G19G18G15G 9G14G31
  20907332.624    12734952.77544   9924791.96642  20907333.512    20907327.762
  23796846.717    26662683.17443  20766341.92442  23796848.222    23796846.924
  22584105.679    14687635.19143  11450614.30942  22584107.670    22584106.355
  22216535.969      294758.43743    248351.98542  22216537.707    22216533.518
  22679048.007    22315649.08743  17383958.46842  22679050.127    22679046.488
  20291518.968    10728553.59844   8364059.29842  20291520.628    20291517.794
  23384221.985     7085395.44343   5524521.34042  23384224.307    23384222.113
  20413879.985    -4079447.47043  -3162890.26342  20413882.491    20413878.359
  23061163.082   -12820478.58143  -9974057.31942  23061165.209    23061163.227
 04  5 17 21 27  0.0000000  0  9G22G21G 3G19G18G15G 9G14G31
  20913368.899    12766673.55044   9949509.44342  20913369.778    20913364.016
  23816499.987    26765961.26543  20846818.19742  23816501.530    23816500.209
  22596597.054    14753277.43943  11501764.03742  22596598.998    22596597.718
  22215994.915      291915.08843    246136.36942  22215996.633    22215992.473
  22692450.746    22386080.64743  17438840.16342  22692452.822    22692449.191
  20299603.042    10771035.53044   8397162.08442  20299604.671    20299601.848
  23391240.320     7122277.13843   5553260.32942  23391242.615    23391240.445
  20407751.271    -4111654.18444  -3187986.38542  20407753.764    20407749.608
  23057599.928   -12839202.85643  -9988647.65542  23057602.065    23057600.156
 04  5 17 21 27 30.0000000  0  9G22G21G 3G19G18G15G 9G14G31
  20919444.247    12798599.81344   9974387.04442  20919445.117    20919439.375
  23836189.695    26869430.87943  20927443.71342  23836191.284    23836189.947
  22609157.125    14819280.84443  11553195.19242  22609159.073    22609157.797
  22215564.880      289655.18043    244375.38042  22215566.616    22215562.446
  22705874.932    22456624.96143  17493809.71842  22705877.006    22705873.379
  20307779.392    10814002.62144   8430642.91542  20307781.056    20307778.218
  23398373.151     7159760.47243   5582468.10542  23398375.425    23398373.297
  20401721.143    -4143342.64743  -3212678.67442  20401723.649    20401719.454
  23054146.611   -12857349.85343 -10002788.19242  23054148.758    23054146.908
 04  5 17 21 28  0.0000000  0  9G22G21G 3G19G18G15G 9G14G31
  20925559.025    12830733.10644   9999425.96542  20925559.894    20925554.149
  23855915.998    26973092.46743  21008218.79742  23855917.462    23855916.239
  22621785.750    14885644.54443  11604907.10142  22621787.701    22621786.458
  22215246.270      287980.69543    243070.56342  22215247.986    22215243.848
  22719320.901    22527283.77243  17548868.48042  22719322.968    22719319.337
  20316048.445    10857456.66344   8464503.19142  20316050.098    20316047.246
  23405620.626     7197846.22743   5612145.31242  23405622.888    23405620.866
  20395790.083    -4174510.50143  -3236965.29842  20395792.586    20395788.364
  23050803.669   -12874917.03443 -10016476.90942  23050805.768    23050803.946
 04  5 17 21 28 30.0000000  0  9G22G21G 3G19G18G15G 9G14G31
  20931712.947    12863072.16644  10024625.23042  20931713.814    20931708.087
  23875678.334    27076943.57343  21089141.57942  23875679.845    23875678.613
  22634482.372    14952365.33643  11656897.26642  22634484.317    22634483.069
  22215038.870      286890.52543    242221.05942  22215040.536    22215036.416
  22732788.325    22598055.55043  17604015.28842  22732790.397    22732786.796
  20324409.939    10901396.63544   8498742.10942  20324411.591    20324408.760
  23412982.408     7236532.44743   5642290.40742  23412984.629    23412982.615
  20389957.940    -4205158.49543  -3260846.83442  20389960.438    20389956.214
  23047570.961   -12891905.15143 -10029714.40342  23047573.081    23047571.250
 04  5 17 21 29  0.0000000  0  9G22G21G 3G19G18G15G 9G14G31
  20937906.367    12895618.86244  10049986.28442  20937907.251    20937901.495
  23895476.915    27180985.22043  21170212.83242  23895478.384    23895477.283
  22647246.904    15019443.13643  11709165.61242  22647248.856    22647247.583
  22214943.028      286386.95243    241828.64842  22214944.703    22214940.614
  22746277.669    22668942.42643  17659251.77242  22746279.751    22746276.151
  20332864.251    10945824.32944   8533361.07042  20332865.889    20332863.102
  23420458.718     7275820.75643   5672904.66942  23420460.995    23420458.964
  20384225.180    -4235284.18144  -3284321.37542  20384227.681    20384223.467
  23044448.942   -12908311.37443 -10042498.47242  23044451.072    23044449.233
 04  5 17 21 29 30.0000000  0  9G22G21G 3G19G18G15G 9G14G31
  20944138.363    12928368.12444  10075505.18142  20944139.218    20944133.476
  23915310.546    27285211.25843  21251427.76042  23915312.040    23915311.054
  22660078.019    15086870.70143  11761706.50442  22660079.968    22660078.669
  22214957.864      286464.95343    241889.40742  22214959.562    22214955.456
  22759787.969    22739939.37243  17714574.02842  22759790.053    22759786.468
  20341410.481    10990735.09044   8568356.44842  20341412.107    20341409.363
  23428048.546     7315705.45443   5703983.63142  23428050.826    23428048.722
  20378590.960    -4264892.04443  -3307392.42042  20378593.470    20378589.263
  23041436.852   -12924140.13943 -10054832.58542  23041438.951    23041437.129
 04  5 17 21 30  0.0000000  0  9G22G21G 3G19G18G15G 9G14G31
  20950409.738    12961324.33044  10101185.33442  20950410.606    20950404.824
  23935179.966    27389625.01143  21332788.95742  23935181.520    23935180.497
  22672975.942    15154649.74943  11814521.27242  22672977.936    22672976.648
  22215084.247      287128.85243    242406.70642  22215085.923    22215081.793
  22773320.034    22811050.69743  17769985.40842  22773322.140    22773318.529
  20350049.500    11036133.25044   8603731.61142  20350051.097    20350048.373
  23435752.495     7356189.98543   5735530.00842  23435754.819    23435752.658
  20373056.250    -4293977.14144  -3330056.11442  20373058.767    20373054.530
  23038535.547   -12939386.63643 -10066712.96942  23038537.665    23038535.786
 04  5 17 21 30 30.0000000  0  9G22G21G 3G19G18G15G 9G14G31
  20956719.432    12994481.91844  10127022.40742  20956720.295    20956714.508
  23955083.785    27494219.45043  21414290.93542  23955085.382    23955084.201
  22685939.335    15222772.41143  11867603.80142  22685941.287    22685940.029
  22215321.091      288373.45643    243376.50742  22215322.762    22215318.665
  22786872.798    22882270.68643  17825481.46142  22786874.927    22786871.296
  20358780.169    11082013.25944   8639482.24242  20358781.775    20358779.053
  23443569.348     7397267.90843   5767538.76742  23443571.679    23443569.547
  20367620.033    -4322544.45343  -3352316.33742  20367622.580    20367618.326
  23035744.173   -12954055.84443 -10078143.53042  23035746.228    23035744.308
 04  5 17 21 31  0.0000000  0  9G22G21G 3G19G18G15G 9G14G31
  20963068.559    13027846.86444  10153021.05742  20963069.441    20963063.663
  23975022.894    27598999.57843  21495937.60642  23975024.504    23975023.294
  22698968.872    15291242.73243  11920957.23042  22698970.811    22698969.569
  22215669.602      290204.70343    244803.42642  22215671.294    22215667.155
  22800447.443    22953605.80143  17881067.22342  22800449.584    22800445.935
  20367603.724    11128381.27544   8675613.13542  20367605.328    20367602.607
  23451500.163     7438944.50743   5800014.00842  23451502.451    23451500.349
  20362283.614    -4350587.57344  -3374168.09942  20362286.120    20362281.888
  23033063.906   -12968141.00543 -10089118.98842  23033065.954    23033063.980
 04  5 17 21 31 30.0000000  0  9G22G21G 3G19G18G15G 9G14G31
  20969455.958    13061412.85644  10179176.36842  20969456.824    20969451.075
  23994996.024    27703958.31043  21577723.46542  23994997.462    23994996.417
  22712062.874    15360051.97743  11974574.75842  22712064.818    22712063.614
  22216128.550      292616.51943    246682.74242  22216130.290    22216126.133
  22814042.729    23025049.47543  17936737.58042  22814044.896    22814041.230
  20376518.968    11175231.04244   8712119.43042  20376520.574    20376517.847
  23459543.553     7481212.64443   5832950.19442  23459545.851    23459543.733
  20357045.824    -4378112.21843  -3395615.85742  20357048.343    20357044.085
  23030493.616   -12981647.91443 -10099643.85042  23030495.704    23030493.651
 04  5 17 21 32  0.0000000  0  9G22G21G 3G19G18G15G 9G14G31
  20975881.946    13095181.59444  10205489.66442  20975882.815    20975877.056
  24015003.163    27809095.90543  21659648.68942  24015004.577    24015003.560
  22725221.218    15429199.34143  12028455.75242  22725223.163    22725221.991
  22216698.225      295610.38543    249015.60142  22216700.036    22216695.882
  22827659.006    23096603.68343  17992494.05742  22827661.163    22827657.594
  20385526.176    11222564.26044   8749002.44042  20385527.800    20385525.090
  23467699.661     7524073.12043   5866347.94042  23467701.991    23467699.824
  20351907.098    -4405116.31444  -3416657.99042  20351909.610    20351905.374
  23028033.769   -12994574.47943 -10109716.50942  23028035.867    23028033.770
 04  5 17 21 32 30.0000000  0  9G22G21G 3G19G18G15G 9G14G31
  20982346.873    13129154.84844  10231962.32142  20982347.737    20982341.961
  24035044.479    27914412.75643  21741713.58742  24035045.888    24035044.786
  22738443.868    15498684.60543  12082600.04342  22738445.833    22738444.696
  22217379.042      299188.05543    251803.37142  22217380.819    22217376.728
  22841296.608    23168270.15143  18048338.01342  22841298.809    22841295.336
  20394625.742    11270382.67944   8786263.52542  20394627.378    20394624.663
  23475968.621     7567526.76143   5900207.90542  23475970.962    23475968.842
  20346867.830    -4431597.75243  -3437292.85642  20346870.336    20346866.100
  23025684.808   -13006918.47043 -10119335.20842  23025686.878    23025684.851
 04  5 17 21 33  0.0000000  0  9G22G21G 3G19G18G15G 9G14G31
  20988849.438    13163326.00044  10258589.18742  20988850.308    20988844.502
  24055118.364    28019901.20943  21823912.19642  24055119.825    24055118.882
  22751729.131    15568498.74243  12137000.60142  22751731.083    22751729.954
  22218169.742      303343.17343    255041.10542  22218171.511    22218167.442
  22854954.406    23240042.22543  18104264.25242  22854956.587    22854953.160
  20403816.373    11318679.62444   8823897.49342  20403817.994    20403815.293
  23484349.083     7611566.07043   5934524.22142  23484351.332    23484349.289
  20341926.862    -4457562.63943  -3457525.21242  20341929.366    20341925.127
  23023445.598   -13018685.98243 -10128504.71242  23023447.629    23023445.583
 04  5 17 21 33 30.0000000  0  9G22G21G 3G19G18G15G 9G14G31
  20995391.215    13197703.27744  10285376.67642  20995392.098    20995386.318
  24075226.284    28125568.60843  21906250.24942  24075227.770    24075227.052
  22765078.105    15638647.64343  12191662.01742  22765080.022    22765078.936
  22219071.848      308083.67943    258734.98342  22219073.586    22219069.531
  22868633.847    23311927.93143  18160279.04242  22868635.994    22868632.590
  20413099.589    11367463.19544   8861910.64842  20413101.217    20413098.534
  23492842.381     7656198.52543   5969302.73842  23492844.596    23492842.624
  20337085.878    -4483002.15743  -3477348.19842  20337088.385    20337084.139
  23021317.627   -13029868.39943 -10137218.27942  23021319.698    23021317.616
 04  5 17 21 34  0.0000000  0  9G22G21G 3G19G18G15G 9G14G31
  21001970.322    13232276.75744  10312317.04542  21001971.219    21001965.462
  24095366.086    28231403.76243  21988719.02042  24095367.621    24095366.915
  22778488.421    15709118.98043  12246574.66842  22778490.320    22778489.271
  22220083.444      313399.70543    262877.31342  22220085.169    22220081.150
  22882333.128    23383917.91943  18216375.08442  22882335.262    22882331.900
  20422473.573    11416723.61144   8900295.35742  20422475.162    20422472.503
  23501446.498     7701413.18243   6004534.91842  23501448.657    23501446.727
  20332343.000    -4507926.08743  -3496769.42842  20332345.505    20332341.241
  23019299.149   -13040475.20543 -10145483.32642  23019301.272    23019299.220
 04  5 17 21 34 30.0000000  0  9G22G21G 3G19G18G15G 9G14G31
  21008588.426    13267055.05044  10339417.01042  21008589.322    21008583.556
  24115539.451    28337414.20143  22071324.37242  24115540.819    24115540.166
  22791961.235    15779918.88143  12301743.34942  22791963.166    22791962.120
  22221206.174      319299.63843    267474.64242  22221207.889    22221203.923
  22896053.872    23456020.67043  18272559.00942  22896056.012    22896052.658
  20431939.893    11466469.44544   8939058.31842  20431941.496    20431938.821
  23510162.866     7747217.78343   6040226.78842  23510165.019    23510163.099
  20327699.971    -4532325.34344  -3515781.81742  20327702.486    20327698.187
  23017391.981   -13050497.49343 -10153292.91042  23017394.073    23017392.072
 04  5 17 21 35  0.0000000  0  9G22G21G 3G19G18G15G 9G14G31
  21015244.418    13302032.46944  10366672.13742  21015245.308    21015239.550
  24135744.768    28443592.93443  22154060.85842  24135746.148    24135745.494
  22805495.087    15851039.48743  12357161.93242  22805496.988    22805495.984
  22222438.986      325777.91843    272522.63242  22222440.666    22222436.727
  22909794.958    23528230.53243  18328826.37942  22909797.082    22909793.777
  20441497.431    11516694.60544   8978194.77842  20441499.055    20441496.362
  23518990.204     7793605.53843   6076373.05842  23518992.304    23518990.419
  20323155.741    -4556205.33443  -3534389.58642  20323158.256    20323153.961
  23015595.074   -13059940.40643 -10160651.02642  23015597.162    23015595.216
 04  5 17 21 35 30.0000000  0  9G22G21G 3G19G18G15G 9G14G31
  21021938.764    13337211.51144  10394084.37542  21021939.637    21021933.909
  24155982.232    28549941.06543  22236929.34742  24155983.565    24155983.128
  22819089.940    15922480.77743  12412830.39542  22819091.894    22819090.847
  22223782.252      332836.56243    278022.85542  22223783.937    22223779.995
  22923556.919    23600549.91643  18385179.09242  22923559.046    22923555.725
  20451146.650    11567401.53944   9017706.65042  20451148.266    20451145.600
  23527928.696     7840577.82943   6112974.82042  23527930.839    23527929.035
  20318710.858    -4579563.45343  -3552590.69742  20318713.354    20318709.044
  23013908.833   -13068801.43143 -10167555.72942  23013910.943    23013909.014
 04  5 17 21 36  0.0000000  0  9G22G21G 3G19G18G15G 9G14G31
  21028670.880    13372589.11444  10421651.33742  21028671.757    21028666.043
  24176251.153    28656454.81143  22319926.89642  24176252.708    24176252.146
  22832744.891    15994237.59043  12468744.71942  22832746.813    22832745.804
  22225235.378      340472.45643    283972.88242  22225237.051    22225233.095
  22937339.187    23672975.90643  18441614.87342  22937341.275    22937337.978
  20460886.989    11618587.21044   9057591.56042  20460888.598    20460885.935
  23536977.685     7888130.77743   6150029.04242  23536979.856    23536978.019
  20314364.798    -4602402.14343  -3570387.06342  20314367.284    20314362.979
  23012332.903   -13077083.14443 -10174009.02642  23012334.990    23012333.033
 04  5 17 21 36 30.0000000  0  9G22G21G 3G19G18G15G 9G14G31
  21035440.380    13408163.06944  10449371.30242  21035441.258    21035435.549
  24196550.883    28763129.84543  22403050.10942  24196552.486    24196551.957
  22846458.910    16066305.01843  12524901.08942  22846460.877    22846459.857
  22226797.786      348682.88943    290370.59242  22226799.466    22226795.545
  22951141.333    23745506.41943  18498132.10342  22951143.425    22951140.101
  20470717.940    11670249.16544   9097847.60342  20470719.557    20470716.906
  23546136.500     7936260.82943   6187532.94642  23546138.739    23546136.909
  20310117.147    -4624723.59143  -3587780.38342  20310119.648    20310115.319
  23010866.874   -13084787.70443 -10180012.59642  23010868.905    23010866.926
 04  5 17 21 37  0.0000000  0  9G22G21G 3G19G18G15G 9G14G31
  21042248.423    13443939.58244  10477249.09942  21042249.294    21042243.574
  24216882.350    28869971.77043  22486303.37642  24216883.927    24216883.313
  22860232.773    16138686.91943  12581302.49842  22860234.765    22860233.767
  22228470.683      357473.99843    297220.77842  22228472.400    22228468.449
  22964964.550    23818147.46043  18554735.45742  22964966.543    22964963.252
  20480640.670    11722393.32644   9138479.38842  20480642.278    20480639.639
  23555406.136     7984973.12943   6225490.55942  23555408.446    23555406.560
  20305969.154    -4646521.42443  -3604765.69242  20305971.648    20305967.311
  23009511.810   -13091908.63743 -10185561.37842  23009513.820    23009511.901
 04  5 17 21 37 30.0000000  0  9G22G21G 3G19G18G15G 9G14G31
  21049093.411    13479910.32144  10505278.24242  21049094.303    21049088.571
  24237243.825    28976971.23743  22569679.39342  24237245.450    24237244.833
  22874064.410    16211372.73643  12637940.71642  22874066.437    22874065.505
  22230252.468      366837.25043    304516.78942  22230254.191    22230250.233
  22978807.204    23890891.02643  18611418.70142  22978809.223    22978805.933
  20490653.576    11775011.39044   9179480.45542  20490655.184    20490652.567
  23564784.810     8034258.28943   6263894.55442  23564787.139    23564785.216
  20301919.350    -4667803.32043  -3621348.97242  20301921.824    20301917.468
  23008266.270   -13098453.92143 -10190661.60542  23008268.302    23008266.423
 04  5 17 21 38  0.0000000  0  9G22G21G 3G19G18G15G 9G14G31
  21055976.733    13516082.43344  10533464.29742  21055977.610    21055971.930
  24257636.320    29084134.00643  22653182.67142  24257637.983    24257637.433
  22887954.773    16284366.93243  12694819.23442  22887956.782    22887955.909
  22232144.425      376779.55943    312264.01542  22232146.135    22232142.220
  22992670.816    23963744.35743  18668187.48342  22992672.858    22992669.482
  20500757.962    11828110.16944   9220856.09942  20500759.577    20500756.941
  23574273.602     8084122.26943   6302749.58642  23574275.962    23574273.996
  20297969.056    -4688562.24344  -3637524.74442  20297971.521    20297967.153
  23007131.655   -13104416.39843 -10195307.70942  23007133.708    23007131.801
 04  5 17 21 38 30.0000000  0  9G22G21G 3G19G18G15G 9G14G31
  21062897.201    13552449.59744  10561802.33842  21062898.068    21062892.398
  24278058.487    29191452.44743  22736807.24542  24278060.199    24278059.675
  22901902.216    16357660.86543  12751931.31342  22901904.190    22901903.318
  22234145.273      387293.93143    320457.00442  22234146.961    22234143.040
  23006554.078    24036700.93243  18725036.71442  23006556.134    23006552.729
  20510952.557    11881683.10044   9262601.21242  20510954.201    20510951.552
  23583871.141     8134557.44243   6342049.66442  23583873.446    23583871.455
  20294117.063    -4708804.54943  -3653297.95742  20294119.515    20294115.162
  23006106.802   -13109802.19243 -10199504.43942  23006108.807    23006106.956
 04  5 17 21 39  0.0000000  0  9G22G21G 3G19G18G15G 9G14G31
  21069855.385    13589015.09144  10590294.92642  21069856.273    21069850.586
  24298510.575    29298928.31143  22820554.48142  24298512.278    24298511.890
  22915906.832    16431255.35943  12809277.59542  22915908.787    22915907.922
  22236255.526      398383.16843    329097.93742  22236257.177    22236253.285
  23020457.584    24109764.17443  18781969.05542  23020459.681    23020456.254
  20521237.932    11935732.99144   9304717.98142  20521239.548    20521236.929
  23593577.732     8185565.93343   6381796.50342  23593579.997    23593578.036
  20290364.065    -4728526.65243  -3668665.81242  20290366.530    20290362.154
  23005192.329   -13114608.02743 -10203249.25742  23005194.283    23005192.425
 04  5 17 21 39 30.0000000  0 10G22G21G 3G19G18G11G15G 9G14G31
  21076849.937    13625771.71544  10618936.44242  21076850.835    21076845.125
  24318991.095    29406552.82143  22904417.54042  24318992.644    24318992.337
  22929966.887    16505140.81043  12866850.59842  22929968.786    22929967.898
  22238473.727      410039.96043    338181.11842  22238475.405    22238471.514
  23034380.048    24182926.90943  18838978.91542  23034382.125    23034378.720
  24612136.139    -5986835.93253  -4400045.24052  24612139.042    24612137.313
  20531612.689    11990252.49844   9347200.67942  20531614.289    20531611.689
  23603391.782     8237139.16943   6421983.40342  23603394.025    23603392.166
  20286708.690    -4747735.72243  -3683633.90742  20286711.176    20286706.786
  23004386.828   -13118840.98443 -10206547.69542  23004388.809    23004386.922
 04  5 17 21 40  0.0000000  0 10G22G21G 3G19G18G11G15G 9G14G31
  21083882.673    13662728.91844  10647734.25242  21083883.553    21083877.837
  24339501.491    29514334.89443  22988403.36842  24339503.108    24339502.692
  22944083.621    16579324.53243  12924656.02142  22944085.531    22944084.626
  22240801.654      422273.34143    347713.58942  22240803.335    22240799.458
  23048323.291    24256198.84143  18896073.87342  23048325.403    23048321.969
  24593000.633    -6087393.60243  -4478401.80942  24593003.506    24593001.606
  20542078.526    12045250.70944   9390056.40042  20542080.108    20542077.536
  23613314.998     8289285.61443   6462616.95642  23613317.163    23613315.333
  20283152.786    -4766421.97143  -3698194.60542  20283155.295    20283150.892
  23003692.170   -13122491.49343 -10209392.25842  23003694.117    23003692.277
 04  5 17 21 40 30.0000000  0 10G22G21G 3G19G18G11G15G 9G14G31
  21090953.152    13699884.45544  10676686.60742  21090954.002    21090948.315
  24360041.206    29622271.10843  23072509.29842  24360042.851    24360042.423
  22958256.108    16653801.40643  12982689.86242  22958258.066    22958257.160
  22243238.788      435080.55043    357693.20042  22243240.489    22243236.582
  23062286.801    24329577.40643  18953251.91942  23062288.877    23062285.501
  24573883.600    -6187854.37043  -4556682.86442  24573886.417    24573884.501
  20552634.958    12100725.05144   9433283.13342  20552636.525    20552633.961
  23623346.501     8342001.43143   6503694.18342  23623348.694    23623346.827
  20279695.953    -4784587.79243  -3712349.77542  20279698.431    20279694.047
  23003107.862   -13125561.84943 -10211784.76242  23003109.885    23003108.002
 04  5 17 21 41  0.0000000  0 10G22G21G 3G19G18G11G15G 9G14G31
  21098060.387    13737233.19844  10705789.51442  21098061.247    21098055.555
  24380609.007    29730354.75043  23156730.10342  24380610.627    24380610.398
  22972482.989    16728563.73243  13040946.14842  22972484.912    22972484.020
  22245784.042      448455.87843    368115.49942  22245785.729    22245781.852
  23076269.681    24403057.76443  19010509.28742  23076271.725    23076268.412
  24554784.455    -6288220.97643  -4634890.55042  24554787.137    24554785.297
  20563280.968    12156670.13044   9476876.67942  20563282.548    20563279.980
  23633485.078     8395280.05243   6545209.95142  23633487.346    23633485.499
  20276337.190    -4802238.18743  -3726103.31842  20276339.671    20276335.288
  23002633.035   -13128057.15843 -10213729.17542  23002635.072    23002633.143
 04  5 17 21 41 30.0000000  0 11G22G21G 3G19G18G11G25G15G 9G14G31
  21105203.541    13774770.66844  10735039.47742  21105204.401    21105198.694
  24401203.884    29838580.06043  23241061.29042  24401205.336    24401205.091
  22986762.832    16803604.57443  13099419.45042  22986764.774    22986763.904
  22248436.490      462394.45243    378976.69542  22248438.189    22248434.299
  23090271.052    24476635.43743  19067842.47642  23090273.116    23090269.878
  24535702.825    -6388495.50343  -4713026.49842  24535705.474    24535703.621
  24498679.899    -4299595.70453  -3128689.53252  24498682.595    24498684.932
  20574015.607    12213081.04044   9520833.21142  20574017.192    20574014.639
  23643729.660     8449115.79343   6587159.83342  23643731.920    23643730.096
  20273075.654    -4819377.63943  -3739458.72442  20273078.115    20273073.750
  23002266.722   -13129981.99943 -10215229.05642  23002268.769    23002266.878
 04  5 17 21 42  0.0000000  0 11G22G21G 3G19G18G11G25G15G 9G14G31
  21112385.204    13812510.59744  10764447.20442  21112386.062    21112380.360
  24421828.123    29946959.28943  23325512.39242  24421829.352    24421829.146
  23001097.906    16878935.54043  13158118.82942  23001099.874    23001098.947
  22251198.598      476909.36943    390286.98842  22251200.266    22251196.407
  23104293.596    24550324.19743  19125262.22542  23104295.592    23104292.421
  24516641.694    -6488661.88943  -4791078.14142  24516644.428    24516642.625
  24479202.122    -4401950.95343  -3208446.64542  24479204.810    24479207.215
  20584841.440    12269971.02944   9565163.05042  20584843.013    20584840.475
  23654082.663     8503521.00243   6629553.44642  23654084.982    23654083.120
  20269913.994    -4835992.13243  -3752405.07242  20269916.465    20269912.091
  23002011.626   -13131322.59043 -10216273.68842  23002013.627    23002011.800
 04  5 17 21 42 30.0000000  0 11G22G21G 3G19G18G11G25G15G 9G14G31
  21119603.666    13850443.93444  10794005.63642  21119604.551    21119598.834
  24442479.616    30055482.07643  23410075.36942  24442480.760    24442480.626
  23015485.956    16954544.87443  13217035.13042  23015487.934    23015486.985
  22254068.520      491990.88143    402038.77942  22254070.212    22254066.351
  23118335.564    24624115.02243  19182761.51042  23118337.585    23118334.427
  24497599.961    -6588726.63443  -4869050.62142  24497602.633    24497600.833
  24459719.878    -4504330.12343  -3288222.39742  24459722.553    24459725.008
  20595756.649    12327330.79644   9609858.94742  20595758.218    20595755.682
  23664542.084     8558485.31243   6672382.73642  23664544.377    23664542.482
  20266850.451    -4852091.09743  -3764949.71542  20266852.934    20266848.561
  23001865.941   -13132088.18443 -10216870.26642  23001867.952    23001866.138
 04  5 17 21 43  0.0000000  0 11G22G21G 3G19G18G11G25G15G 9G14G31
  21126859.265    13888572.25144  10823716.00042  21126860.148    21126854.417
  24463158.451    30164148.66843  23494750.41642  24463159.530    24463159.369
  23029926.770    17030431.37943  13276167.39842  23029928.750    23029927.811
  22257046.509      507639.97743    414232.84442  22257048.157    22257044.325
  23132397.204    24698009.32443  19240341.41942  23132399.239    23132396.132
  24478578.202    -6688685.90043  -4946940.89242  24478580.960    24478579.171
  24440233.833    -4606728.95743  -3368013.46042  24440236.576    24440238.930
  20606761.440    12385161.34644   9654921.68542  20606763.027    20606760.490
  23675107.842     8614008.49143   6715647.50342  23675110.050    23675108.249
  20263885.271    -4867673.08643  -3777091.51642  20263887.746    20263883.388
  23001829.938   -13132277.55543 -10217017.83842  23001831.937    23001830.122
 04  5 17 21 43 30.0000000  0 10G22G 3G19G18G11G25G15G 9G14G31
  21134152.922    13926900.66744  10853582.28842  21134153.835    21134148.089
  23044420.824    17106597.76743  13335517.75542  23044422.780    23044421.911
  22260133.334      523861.21643    426872.73642  22260135.000    22260131.178
  23146479.574    24772012.30843  19298006.01842  23146481.543    23146478.433
  24459578.001    -6788532.15943  -5024743.10842  24459580.761    24459578.984
  24420745.620    -4709139.29143  -3447813.49142  24420748.325    24420750.599
  20617856.718    12443467.45544   9700354.98942  20617858.303    20617855.794
  23685780.683     8670094.57843   6759350.91142  23685782.930    23685781.141
  20261019.493    -4882732.96043  -3788826.47342  20261021.959    20261017.569
  23001904.491   -13131885.54543 -10216712.38942  23001906.593    23001904.781
 04  5 17 21 44  0.0000000  0 10G22G 3G19G18G11G25G15G 9G14G31
  21141481.872    13965414.58244  10883593.12042  21141482.787    21141477.072
  23058964.860    17183026.82343  13395072.78442  23058966.819    23058965.944
  22263326.156      540639.12443    439946.39642  22263327.784    22263323.924
  23160579.841    24846109.48243  19355744.04042  23160581.827    23160578.718
  24440597.005    -6888277.46243  -5102466.63142  24440599.827    24440597.983
  24401253.053    -4811572.45143  -3527631.32142  24401255.871    24401258.014
  20629039.659    12502234.12344   9746147.17042  20629041.255    20629038.747
  23696557.586     8726727.40843   6803480.33342  23696559.871    23696558.036
  20258250.269    -4897285.36443  -3800166.00142  20258252.711    20258248.327
  23002086.965   -13130926.94043 -10215965.43642  23002089.058    23002087.190
 04  5 17 21 44 30.0000000  0 10G22G 3G19G18G11G25G15G 9G14G31
  21148847.715    14004122.27644  10913754.95042  21148848.622    21148842.901
  23073559.988    17259724.46343  13454837.10342  23073561.971    23073561.102
  22266626.359      557981.62743    453459.99942  22266627.992    22266624.120
  23174699.717    24920309.32943  19413562.03642  23174701.627    23174698.520
  24421637.317    -6987911.21043  -5180103.24142  24421640.090    24421638.339
  24381758.299    -4914017.02643  -3607458.04042  24381761.219    24381763.181
  20640311.726    12561469.06844   9792304.24142  20640313.319    20640310.834
  23707439.832     8783913.88443   6848041.17942  23707442.114    23707440.235
  20255579.130    -4911322.00343  -3811103.63242  20255581.624    20255577.234
  23002378.806   -13129393.72843 -10214770.73542  23002380.862    23002378.976
 04  5 17 21 45  0.0000000  0 10G22G 3G19G18G11G25G15G 9G14G31
  21156250.554    14043024.47344  10944068.34142  21156251.464    21156245.757
  23088205.955    17336689.07843  13514809.44942  23088207.911    23088207.111
  22270033.999      575888.74343    467413.56442  22270035.621    22270031.776
  23188839.179    24994612.57443  19471460.62842  23188841.081    23188838.026
  24402699.475    -7087430.47943  -5257650.64742  24402702.177    24402700.265
  24362261.982    -5016469.67343  -3687291.04842  24362265.010    24362266.834
  20651672.959    12621172.45044   9838826.33142  20651674.534    20651672.033
  23718427.165     8841652.92443   6893032.59642  23718429.469    23718427.709
  20253006.301    -4924842.29743  -3821638.91442  20253008.808    20253004.397
  23002780.068   -13127285.31643 -10213127.82742  23002782.059    23002780.231
 04  5 17 21 45 30.0000000  0 10G22G 3G19G18G11G25G15G 9G14G31
  21163689.980    14082119.01944  10974531.61142  21163690.900    21163685.227
  23102901.667    17413915.34643  13574985.67142  23102903.645    23102902.870
  22273548.435      594357.08843    481804.44742  22273550.057    22273546.218
  23202997.870    25069016.83843  19529437.92242  23202999.838    23202996.714
  24383783.377    -7186834.85943  -5335108.53642  24383786.071    24383783.928
  24342764.378    -5118929.56343  -3767129.70442  24342767.409    24342769.115
  20663122.744    12681341.34544   9885711.15342  20663124.316    20663121.809
  23729518.988     8899940.75143   6938451.64042  23729521.323    23729519.635
  20250531.287    -4937848.63743  -3831773.71242  20250533.777    20250529.367
  23003290.190   -13124604.31243 -10211038.75942  23003292.237    23003290.433
 04  5 17 21 46  0.0000000  0 10G22G 3G19G18G11G25G15G 9G14G31
  21171165.317    14121402.27344  11005141.92842  21171166.234    21171160.579
  23117646.053    17491397.26743  13635361.09942  23117648.010    23117647.292
  22277168.841      613382.33843    496629.28242  22277170.486    22277166.622
  23217175.169    25143518.73043  19587491.28042  23217177.142    23217174.011
  24364888.966    -7286125.45043  -5412477.76142  24364891.663    24364889.490
  24323265.251    -5221397.17643  -3846974.38142  24323268.328    24323269.923
  20674660.379    12741971.87544   9932955.69042  20674661.958    20674659.452
  23740714.248     8958772.01543   6984294.14542  23740716.512    23740714.888
  20248153.287    -4950345.07343  -3841511.18142  20248155.774    20248151.365
  23003908.557   -13121354.71943 -10208506.61442  23003910.583    23003908.829
 04  5 17 21 46 30.0000000  0 10G22G 3G19G18G11G25G15G 9G14G31
  21178678.066    14160881.88744  11035905.25342  21178678.962    21178673.304
  23132440.074    17569140.00043  13695939.77742  23132442.024    23132441.319
  22280896.569      632971.67143    511893.66642  22280898.244    22280894.396
  23231372.450    25218125.70943  19645626.53942  23231374.462    23231371.296
  24346018.141    -7385292.34143  -5489750.57042  24346020.837    24346018.682
  24303766.681    -5323862.25543  -3926817.09142  24303769.708    24303771.264
  20686287.179    12803070.95744   9980565.33042  20686288.756    20686286.258
  23752014.130     9018152.79743   7030564.84642  23752016.374    23752014.757
  20245873.792    -4962323.79543  -3850845.23942  20245876.301    20245871.859
  23004636.549   -13117529.14843 -10205525.67542  23004638.537    23004636.833
 04  5 17 21 47  0.0000000  0 10G22G 3G19G18G11G25G15G 9G14G31
  21186226.654    14200549.91644  11066815.39742  21186227.534    21186221.882
  23147281.716    17647132.97043  13756713.42242  23147283.651    23147282.974
  22284729.926      653116.08843    527590.58142  22284731.646    22284727.795
  23245588.225    25292829.95243  19703837.57942  23245590.256    23245587.084
  24327169.790    -7484340.97943  -5566931.24742  24327172.466    24327170.444
  24284267.567    -5426330.06043  -4006661.93342  24284270.565    24284271.997
  20698001.529    12864630.10144  10028533.45942  20698003.108    20698000.604
  23763416.814     9078073.69943   7077256.41942  23763418.997    23763417.342
  20243691.265    -4973793.17543  -3859782.40742  20243693.748    20243689.298
  23005472.586   -13113135.89043 -10202102.37342  23005474.568    23005472.830
 04  5 17 21 47 30.0000000  0 10G22G 3G19G18G11G25G15G 9G14G31
  21193811.930    14240410.68344  11097875.72742  21193812.803    21193807.140
  23162171.273    17725377.90943  13817683.41942  23162173.198    23162172.609
  22288669.635      673819.19443    543722.83942  22288671.345    22288667.477
  23259823.386    25367635.96043  19762127.90942  23259825.372    23259822.247
  24308345.189    -7583264.67843  -5644014.57142  24308347.945    24308345.805
  24264769.501    -5528792.29643  -4086502.44042  24264772.423    24264773.848
  20709804.185    12926653.25644  10076863.15742  20709805.747    20709803.260
  23774922.766     9138537.48843   7124371.01942  23774924.891    23774923.202
  20241606.428    -4984748.93343  -3868319.35242  20241608.918    20241604.492
  23006417.433   -13108170.90543 -10198233.57342  23006419.407    23006417.629
 04  5 17 21 48  0.0000000  0 10G22G 3G19G18G11G25G15G 9G14G31
  21201433.009    14280459.69144  11129082.73642  21201433.891    21201428.229
  23177107.473    17803867.81443  13878844.29642  23177109.371    23177108.849
  22292714.630      695075.43443    560286.10942  22292716.322    22292712.417
  23274076.993    25442539.26743  19820494.05842  23274079.026    23274075.921
  24289544.008    -7682065.45843  -5721002.10742  24289546.699    24289544.644
  24245272.101    -5631250.93743  -4166340.16042  24245275.057    24245276.351
  20721694.103    12989135.06644  10125550.25042  20721695.690    20721693.174
  23786530.771     9199537.92743   7171903.77942  23786533.007    23786531.273
  20239618.404    -4995195.98743  -3876459.90342  20239620.889    20239616.463
  23007470.008   -13102639.29343 -10193923.24942  23007472.056    23007470.270
 04  5 17 21 48 30.0000000  0 10G22G 3G19G18G11G25G15G 9G14G31
  21209090.488    14320700.02144  11160438.82642  21209091.360    21209085.713
  23192090.308    17882603.12743  13940196.40642  23192092.240    23192091.760
  22296865.283      716887.08243    577282.16942  22296866.967    22296863.069
  23288349.757    25517542.90443  19878938.37842  23288351.811    23288348.690
  24270767.229    -7780737.69243  -5797889.49842  24270769.954    24270767.861
  24225776.615    -5733699.85243  -4246170.29342  24225779.528    24225780.780
  20733671.752    13052077.91344  10174596.58742  20733673.346    20733670.805
  23798241.167     9261076.27243   7219855.70042  23798243.417    23798241.666
  20237727.729    -5005131.47243  -3884201.83442  20237730.226    20237725.789
  23008631.022   -13096538.16943 -10189169.15842  23008633.074    23008631.276
 04  5 17 21 49  0.0000000  0 10G22G 3G19G18G11G25G15G 9G14G31
  21216784.247    14361131.03944  11191943.50042  21216785.128    21216779.485
  23207119.300    17961580.71443  14001737.29442  23207121.186    23207120.801
  22301121.370      739252.70743    594709.88742  22301123.000    22301119.117
  23302641.501    25592646.43443  19937460.53642  23302643.624    23302640.510
  24252015.245    -7879279.63243  -5874675.35242  24252017.955    24252015.872
  24206283.468    -5836136.53743  -4325990.88442  24206286.340    24206287.524
  20745736.901    13115480.57844  10224001.22642  20745738.489    20745735.957
  23810053.516     9323150.39443   7268225.10342  23810055.754    23810054.046
  20235934.281    -5014556.09643  -3891545.68742  20235936.781    20235932.332
  23009900.225   -13089868.79043 -10183972.25542  23009902.256    23009900.456
 04  5 17 21 49 30.0000000  0 10G22G 3G19G18G11G25G15G 9G14G31
  21224514.626    14401754.30544  11223597.98142  21224515.508    21224509.840
  23222194.086    18040799.18043  14063465.88142  23222196.003    23222195.645
  22305482.852      762172.29743    612569.27042  22305484.460    22305480.581
  23316952.571    25667851.15343  19996061.54342  23316954.630    23316951.586
  24233288.767    -7977687.46143  -5951356.69542  24233291.611    24233289.370
  24186793.417    -5938556.80543  -4405798.68642  24186796.291    24186797.476
  20757889.664    13179343.65444  10273764.63642  20757891.259    20757888.711
  23821967.668     9385759.78743   7317011.60242  23821969.933    23821968.278
  20234238.184    -5023469.12743  -3898490.89942  20234240.682    20234236.237
  23011277.665   -13082630.27743 -10178331.87742  23011279.697    23011277.878
 04  5 17 21 50  0.0000000  0 10G22G 3G19G18G11G25G15G 9G14G31
  21232280.118    14442562.16744  11255396.30042  21232280.977    21232275.343
  23237312.795    18120248.37143  14125374.26042  23237314.717    23237314.398
  22309948.192      785637.64743    630853.92542  22309949.818    22309945.915
  23331281.362    25743149.51843  20054735.52242  23331283.413    23331280.501
  24214586.786    -8075966.39543  -6027937.61242  24214589.663    24214587.437
  24167305.619    -6040965.17543  -4485597.20942  24167308.503    24167309.486
  20770128.462    13243658.95844  10323880.43042  20770130.070    20770127.555
  23833981.942     9448895.12243   7366207.91842  23833984.205    23833982.549
  20232637.963    -5031878.36343  -3905043.54342  20232640.438    20232635.992
  23012761.908   -13074830.68743 -10172254.29642  23012763.887    23012762.102
 04  5 17 21 50 30.0000000  0 10G22G 3G19G18G11G25G15G 9G14G31
  21240082.276    14483562.69744  11287344.75042  21240083.141    21240077.511
  23252476.494    18199933.99343  14187466.84742  23252478.399    23252478.192
  22314518.714      809655.78543    649569.32642  22314520.339    22314516.438
  23345629.672    25818550.02043  20113489.08442  23345631.705    23345628.793
  24195911.395    -8174105.80943  -6104409.80242  24195914.321    24195912.022
  24147822.089    -6143350.87043  -4565378.07242  24147825.048    24147825.882
  20782454.796    13308434.01144  10374354.46842  20782456.401    20782453.846
  23846097.496     9512562.64643   7415818.92442  23846099.771    23846098.103
  20231135.071    -5039776.02843  -3911197.55842  20231137.544    20231133.095
  23014354.353   -13066462.47443 -10165733.63242  23014356.279    23014354.543
 04  5 17 21 51  0.0000000  0 10G22G 3G19G18G11G25G15G 9G14G31
  21247920.277    14524751.69244  11319440.06042  21247921.143    21247915.529
  23267683.840    18279848.88843  14249738.11342  23267685.754    23267685.570
  22319193.362      834221.24443    668711.21642  22319194.993    22319191.119
  23359996.495    25894047.93743  20172318.56942  23359998.583    23359995.631
  24177262.226    -8272107.42043  -6180774.63342  24177265.095    24177262.883
  24128342.668    -6245715.02043  -4645142.12442  24128345.587    24128346.350
  20794867.607    13373663.65244  10425182.72842  20794869.206    20794866.655
  23858313.168     9576756.26343   7465839.88942  23858315.458    23858313.835
  20229728.662    -5047166.78343  -3916956.58242  20229731.122    20229726.663
  23016053.957   -13057530.54043 -10158773.70342  23016055.944    23016054.239
 04  5 17 21 51 30.0000000  0 10G22G 3G19G18G11G25G15G 9G14G31
  21255794.054    14566128.49144  11351681.71042  21255794.901    21255789.286
  23282934.190    18359989.82643  14312185.50942  23282936.155    23282935.973
  22323971.950      859332.57343    688278.45642  22323973.533    22323969.674
  23374381.781    25969642.90143  20231223.66942  23374383.895    23374380.944
  24158639.650    -8369969.45243  -6257030.69342  24158642.491    24158640.264
  24108867.710    -6348055.27343  -4724887.56842  24108870.712    24108871.525
  20807366.632    13439346.43644  10476364.08542  20807368.236    20807365.687
  23870628.461     9641473.46243   7516268.83542  23870630.654    23870629.061
  20228418.478    -5054051.84043  -3922321.55342  20228420.945    20228416.468
  23017860.719   -13048036.26943 -10151375.59742  23017862.663    23017860.966
 04  5 17 21 52  0.0000000  0 10G22G 3G19G18G11G25G15G 9G14G31
  21263703.689    14607693.75744  11384070.21942  21263704.532    21263698.900
  23298227.249    18440354.82643  14374807.50342  23298229.147    23298228.978
  22328854.247      884989.14743    708270.56042  22328855.853    22328851.998
  23388785.697    26045335.54543  20290204.87642  23388787.737    23388784.858
  24140044.227    -8467688.84843  -6333175.60742  24140047.039    24140044.724
  24089398.046    -6450367.80243  -4804611.39542  24089401.097    24089402.003
  20819951.960    13505482.48944  10527898.63642  20819953.520    20819950.992
  23883043.292     9706713.40043   7567105.11642  23883045.421    23883043.838
  20227204.626    -5060430.53543  -3927291.95542  20227207.133    20227202.627
  23019774.514   -13037979.33043 -10143539.04842  23019776.436    23019774.725
 04  5 17 21 52 30.0000000  0 10G22G 3G19G18G11G25G15G 9G14G31
  21271648.953    14649446.27044  11416604.63842  21271649.783    21271644.145
  23313562.207    18520939.90743  14437600.98242  23313564.077    23313563.871
  22333839.834      911188.49143    728685.59542  22333841.444    22333837.600
  23403207.983    26121124.77243  20349261.36242  23403209.996    23403207.123
  24121476.132    -8565264.45843  -6409208.47442  24121478.919    24121476.692
  24069934.128    -6552650.90743  -4884312.30942  24069937.115    24069937.939
  20832623.082    13572069.49444  10579784.58342  20832624.649    20832622.124
  23895556.979     9772472.97643   7618346.29842  23895559.113    23895557.489
  20226086.771    -5066304.82043  -3931869.31142  20226089.278    20226084.789
  23021794.940   -13027361.74543 -10135265.62742  23021796.952    23021795.216
 04  5 17 21 53  0.0000000  0 10G22G 3G19G18G11G25G15G 9G14G31
  21279630.124    14691387.60144  11449286.18542  21279630.978    21279625.338
  23328938.894    18601744.28743  14500565.33042  23328940.744    23328940.496
  22338928.845      937931.26543    749524.08642  22338930.467    22338926.631
  23417648.917    26197012.11043  20408394.27842  23417650.964    23417648.040
  24102936.150    -8662692.21943  -6485126.14042  24102938.971    24102936.709
  24050476.597    -6654900.14843  -4963986.81542  24050479.553    24050480.428
  20845380.145    13639108.28244  10632022.56742  20845381.724    20845379.224
  23908169.409     9838751.64643   7669991.95442  23908171.542    23908170.034
  20225065.118    -5071673.63643  -3936052.79642  20225067.626    20225063.125
  23023922.261   -13016182.72443 -10126554.72642  23023924.284    23023922.541
 04  5 17 21 53 30.0000000  0 10G22G 3G19G18G11G25G15G 9G14G31
  21287647.110    14733517.08444  11482114.34342  21287647.946    21287642.349
  23344356.571    18682764.45343  14563697.83342  23344358.467    23344358.191
  22344120.862      965215.37643    770784.39542  22344122.476    22344118.670
  23432108.301    26272996.43543  20467602.78842  23432110.346    23432107.487
  24084424.672    -8759970.47643  -6560927.31142  24084427.471    24084425.253
  24031025.920    -6757113.44443  -5043633.33142  24031028.795    24031029.663
  20858222.931    13706597.42444  10684611.47042  20858224.492    20858222.017
  23920880.102     9905546.53043   7722039.88342  23920882.259    23920880.683
  20224139.421    -5076538.24143  -3939843.38642  20224141.903    20224137.415
  23026156.133   -13004443.70343 -10117407.46942  23026158.190    23026156.408
 04  5 17 21 54  0.0000000  0 10G22G 3G19G18G11G25G15G 9G14G31
  21295699.705    14775833.77044  11515088.37242  21295700.556    21295694.972
  23359814.618    18763996.78043  14626995.65542  23359816.548    23359816.248
  22349415.492      993038.75643    792464.91442  22349417.095    22349413.324
  23446585.991    26349077.05443  20526886.32342  23446588.074    23446585.201
  24065942.031    -8857097.52943  -6636610.67342  24065944.758    24065942.546
  24011582.493    -6859288.54143  -5123250.07442  24011585.309    24011586.234
  20871151.067    13774535.00344  10737549.81142  20871152.597    20871150.138
  23933688.575     9972854.88343   7774487.88642  23933690.706    23933689.048
  20223309.430    -5080899.84143  -3943242.02642  20223311.909    20223307.418
  23028496.268   -12992146.33943 -10107825.11742  23028498.342    23028496.541
 04  5 17 21 54 30.0000000  0 10G22G 3G19G18G11G25G15G 9G14G31
  21303787.290    14818334.23244  11548205.60542  21303788.141    21303782.550
  23375311.889    18845434.99143  14690453.90142  23375313.757    23375313.516
  22354811.819     1021396.71043    814561.98842  22354813.440    22354809.708
  23461081.430    26425250.71043  20586242.35042  23461083.495    23461080.610
  24047487.981    -8954074.44943  -6712177.04242  24047490.616    24047488.306
  23992146.341    -6961425.48943  -5202837.10742  23992149.163    23992150.072
  20884163.736    13842916.92644  10790834.39342  20884165.305    20884162.829
  23946593.645    10040671.44943   7827331.90442  23946595.840    23946594.258
  20222574.384    -5084762.39943  -3946251.80442  20222576.872    20222572.380
  23030941.866   -12979294.81643 -10097810.96942  23030943.939    23030942.138
 04  5 17 21 55  0.0000000  0 10G22G 3G19G18G11G25G15G 9G14G31
  21311911.298    14861026.25344  11581472.10842  21311912.156    21311906.562
  23390849.267    18927084.27143  14754076.63242  23390851.159    23390850.884
  22360311.203     1050295.93043    837080.82142  22360312.832    22360309.092
  23475596.029    26501525.24843  20645676.99242  23475598.095    23475595.250
  24029064.352    -9050891.07443  -6787618.51342  24029067.025    24029064.659
  23972719.395    -7063513.78443  -5282386.20442  23972722.285    23972723.090
  20897262.251    13911750.11444  10844470.61342  20897263.849    20897261.379
  23959596.584    10109002.06143   7880576.48042  23959598.744    23959597.194
  20221935.667    -5088118.84543  -3948867.20942  20221938.148    20221933.666
  23033494.234   -12965882.12543 -10087359.54242  23033496.312    23033494.536
 04  5 17 21 55 30.0000000  0 10G22G 3G19G18G11G25G15G 9G14G31
  21320070.394    14903902.52644  11614882.18342  21320071.234    21320065.650
  23406424.969    19008934.67643  14817856.07242  23406426.817    23406426.525
  22365911.839     1079727.49543    860014.46642  22365913.487    22365909.780
  23490128.511    26577893.49543  20705184.64642  23490130.556    23490127.736
  24010670.327    -9147551.82143  -6862938.50942  24010673.088    24010670.733
  23953300.847    -7165558.00543  -5361900.98742  23953303.742    23953304.575
  20910445.074    13981026.05244  10898451.82742  20910446.644    20910444.170
  23972695.457    10177837.16243   7934214.16042  23972697.682    23972696.141
  20221391.753    -5090976.99243  -3951094.33042  20221394.257    20221389.778
  23036151.807   -12951916.54643 -10076477.29842  23036153.879    23036152.122
 04  5 17 21 56  0.0000000  0 10G22G 3G19G18G11G25G15G 9G14G31
  21328265.278    14946966.93844  11648438.85742  21328266.131    21328260.548
  23422039.102    19090987.16243  14881792.98842  23422040.991    23422040.664
  22371614.291     1109693.98643    883364.93142  22371615.926    22371612.261
  23504679.431    26654358.92043  20764768.03042  23504681.437    23504678.685
  23992307.135    -9244050.84643  -6938132.49642  23992309.829    23992307.468
  23933892.061    -7267551.08843  -5441375.92642  23933894.927    23933895.753
  20923712.686    14050747.55244  10952780.22742  20923714.243    20923711.743
  23985890.746    10247178.64343   7988246.42942  23985892.991    23985891.448
  20220943.306    -5093333.52043  -3952930.57842  20220945.810    20220941.352
  23038915.293   -12937395.09143 -10065161.90742  23038917.269    23038915.472
 04  5 17 21 56 30.0000000  0 10G22G 3G19G18G11G25G15G 9G14G31
  21336494.471    14990211.60044  11682135.98542  21336495.337    21336489.772
  23437689.739    19173231.44543  14945879.34742  23437691.677    23437691.317
  22377416.828     1140186.31543    907125.15242  22377418.479    22377414.792
  23519247.299    26730913.81743  20824421.13542  23519249.326    23519246.662
  23973973.659    -9340393.57943  -7013204.67542  23973976.331    23973973.951
  23914492.197    -7369497.73843  -5520814.69342  23914494.981    23914495.751
  20937063.406    14120905.86344  11007449.00042  20937064.943    20937062.460
  23999180.548    10317016.58643   8042665.56042  23999182.736    23999181.231
  20220588.707    -5095196.98843  -3954382.62542  20220591.202    20220586.728
  23041782.738   -12922326.50243 -10053420.16942  23041784.717    23041782.993
 04  5 17 21 57  0.0000000  0 10G22G 3G19G18G11G25G15G 9G14G31
  21344759.967    15033646.92444  11715981.68042  21344760.806    21344755.252
  23453378.431    19255675.37243  15010121.28842  23453380.344    23453379.958
  22383321.049     1171213.32743    931301.99942  22383322.746    22383319.067
  23533834.316    26807568.85943  20884152.26542  23533836.294    23533833.674
  23955672.418    -9436567.14943  -7088145.06242  23955674.986    23955672.708
  23895103.664    -7471384.65943  -5600206.91342  23895106.409    23895107.097
  20950499.065    14191510.61944  11062465.65342  20950500.618    20950498.137
  24012566.433    10387359.44743   8097478.11842  24012568.529    24012567.077
  20220329.770    -5096557.73543  -3955442.94442  20220332.252    20220327.777
  23044756.167   -12906701.26143 -10041244.68642  23044758.118    23044756.386
 04  5 17 21 57 30.0000000  0 10G22G 3G19G18G11G25G15G 9G14G31
  21353060.579    15077266.86944  11749971.23942  21353061.425    21353055.857
  23469103.400    19338309.94943  15074511.76942  23469105.282    23469104.931
  22389325.640     1202767.62743    955889.72842  22389327.317    22389323.701
  23548439.172    26884318.06843  20943956.78342  23548441.266    23548438.652
  23937402.676    -9532574.80043  -7162956.15542  23937405.219    23937402.955
  23875725.858    -7573215.22343  -5679555.23042  23875728.562    23875729.161
  20964018.326    14262554.77944  11117824.70342  20964019.894    20964017.442
  24026046.808    10458199.16143   8152677.84342  24026048.848    24026047.399
  20220165.279    -5097422.18043  -3956116.53142  20220167.747    20220163.282
  23047834.153   -12890526.35643 -10028640.88242  23047836.136    23047834.399
 04  5 17 21 58  0.0000000  0 10G22G 3G19G18G11G25G15G 9G14G31
  21361396.295    15121071.30744  11784104.55742  21361397.153    21361391.564
  23484864.036    19421132.17343  15139048.47542  23484865.922    23484865.613
  22395430.356     1234847.95243    980887.34042  22395432.007    22395428.429
  23563061.851    26961160.69843  21003834.08742  23563063.944    23563061.405
  23919164.918    -9628414.32343  -7237636.24042  23919167.463    23919165.259
  23856359.326    -7674986.44643  -5758857.30742  23856361.989    23856362.555
  20977621.003    14334037.07944  11173525.15642  20977622.524    20977620.116
  24039621.320    10529533.38143   8208262.90642  24039623.364    24039621.888
  20220095.029    -5097791.35343  -3956404.19242  20220097.500    20220093.022
  23051016.519   -12873802.93743 -10015609.66542  23051018.539    23051016.807
 04  5 17 21 58 30.0000000  0 10G22G 3G19G18G11G25G15G 9G14G31
  21369767.203    15165060.74244  11818382.02542  21369768.071    21369762.480
  23500659.986    19504140.14143  15203729.92342  23500661.861    23500661.558
  22401635.005     1267453.31443   1006294.07442  22401636.619    22401633.070
  23577702.567    27038097.87043  21063785.05342  23577704.609    23577702.191
  23900959.793    -9724082.84343  -7312183.07942  23900962.291    23900960.142
  23837004.642    -7776694.97343  -5838110.55342  23837007.344    23837007.879
  20991306.951    14405957.02344  11229566.62842  20991308.448    20991306.078
  24053289.648    10601360.83843   8264232.29742  24053291.789    24053290.257
  20220119.033    -5097665.21343  -3956305.89742  20220121.517    20220117.018
  23054303.208   -12856531.34443 -10002151.30542  23054305.265    23054303.500
 04  5 17 21 59  0.0000000  0 10G22G 3G19G18G11G25G15G 9G14G31
  21378173.133    15209234.07944  11852802.79742  21378173.980    21378168.390
  23516490.472    19587329.82443  15268552.93942  23516492.401    23516492.050
  22407939.103     1300581.12243   1032107.90942  22407940.682    22407937.156
  23592361.062    27115128.40843  21123808.78642  23592363.082    23592360.721
  23882787.444    -9819578.93543  -7386595.54742  23882789.962    23882787.724
  23817662.280    -7878338.80843  -5917313.37042  23817665.023    23817665.490
  21005075.772    14478312.47443  11285947.45642  21005077.261    21005074.903
  24067051.132    10673677.72843   8320583.03642  24067053.245    24067051.769
  20220236.857    -5097045.80244  -3955823.23442  20220239.381    20220234.878
  23057693.835   -12838713.78443  -9988267.51642  23057695.861    23057694.039
 04  5 17 21 59 30.0000000  0 10G22G 3G19G18G11G25G15G 9G14G31
  21386614.484    15253593.72944  11887368.74742  21386615.349    21386609.743
  23532355.531    19670700.92643  15333517.32942  23532357.476    23532357.124
  22414342.662     1334231.76043   1058329.14442  22414344.226    22414340.719
  23607037.705    27192254.31043  21183906.83142  23607039.709    23607037.251
  23864648.831    -9914897.94543  -7460870.05342  23864651.298    23864649.003
  23798333.242    -7979912.73243  -5996461.73242  23798335.978    23798336.431
  21018927.717    14551104.76444  11342668.67942  21018929.211    21018926.851
  24080905.781    10746484.07343   8377315.24342  24080907.869    24080906.467
  20220448.905    -5095931.52943  -3954954.96342  20220451.419    20220446.912
  23061188.561   -12820349.14743  -9973957.43642  23061190.557    23061188.710
 04  5 17 22  0  0.0000000  0 10G22G 3G19G18G11G25G15G 9G14G31
  21395091.072    15298138.43944  11922078.90042  21395091.933    21395086.343
  23548254.392    19754249.48143  15398620.01342  23548256.320    23548255.979
  22420845.250     1368402.98943   1084956.03142  22420846.854    22420843.332
  23621732.223    27269474.56943  21244078.37642  23621734.286    23621731.757
  23846544.117   -10010038.38643  -7535005.39242  23846546.672    23846544.287
  23779017.886    -8081414.90843  -6075554.18542  23779020.630    23779020.949
  21032862.370    14624331.59243  11399728.50242  21032863.853    21032861.487
  24094852.983    10819776.68343   8434426.29942  24094855.089    24094853.713
  20220754.759    -5094324.25643  -3953702.53642  20220757.270    20220752.763
  23064786.937   -12801439.60643  -9959222.76742  23064788.941    23064787.123
 04  5 17 22  0 30.0000000  0 10G22G 3G19G18G11G25G15G 9G14G31
  21403602.408    15342865.74244  11956931.33142  21403603.282    21403597.685
  23564185.983    19837970.28043  15463856.91742  23564187.960    23564187.651
  22427446.111     1403090.60743   1111985.29842  22427447.725    22427444.203
  23636444.239    27346786.78943  21304321.59142  23636446.357    23636443.793
  23828473.325   -10105000.65243  -7609001.91242  23828475.932    23828473.471
  23759716.321    -8182844.71843  -6154590.26642  23759719.110    23759719.398
  21046879.003    14697989.33943  11457124.10242  21046880.485    21046878.106
  24108891.785    10893551.19643   8491912.87742  24108893.946    24108892.554
  20221153.868    -5092227.07644  -3952068.36342  20221156.351    20221151.827
  23068488.307   -12781988.68143  -9944066.22242  23068490.315    23068488.541
 04  5 17 22  1  0.0000000  0 10G22G 3G19G18G11G25G15G 9G14G31
  21412148.533    15387775.80344  11991926.16742  21412149.385    21412143.815
  23580149.844    19921860.88643  15529226.12442  23580151.852    23580151.607
  22434145.013     1438293.38443   1139415.99142  22434146.650    22434143.106
  23651173.791    27424190.87643  21364636.38042  23651175.899    23651173.349
  23810437.034   -10199781.86143  -7682857.34642  23810439.637    23810437.174
  23740429.131    -8284199.03943  -6233567.50842  23740431.921    23740432.105
  21060977.505    14772077.22343  11514854.88042  21060978.979    21060976.593
  24123021.875    10967805.51343   8549773.31942  24123024.093    24123022.714
  20221646.048    -5089640.66843  -3950052.97442  20221648.532    20221644.005
  23072292.574   -12761997.49143  -9928488.70042  23072294.519    23072292.766
 04  5 17 22  1 30.0000000  0 10G22G 3G19G18G11G25G15G 9G14G31
  21420730.400    15432873.67844  12027067.35142  21420731.252    21420725.674
  23596146.496    20005923.63443  15594729.45442  23596148.501    23596148.255
  22440942.563     1474014.59143   1167250.65442  22440944.216    22440940.673
  23665921.838    27501691.96843  21425026.78142  23665923.928    23665921.345
  23792436.599   -10294374.31243  -7756565.69742  23792439.281    23792436.768
  23721157.811    -8385469.93943  -6312479.76442  23721160.575    23721160.650
  21075158.593    14846598.99843  11572923.74942  21075160.025    21075157.665
  24137243.787    11042542.24343   8608009.67242  24137246.150    24137244.630
  20222232.145    -5086560.74944  -3947653.03442  20222234.617    20222230.094
  23076200.370   -12741461.92243  -9912486.99642  23076202.304    23076200.602
 04  5 17 22  2  0.0000000  0 10G22G 3G19G18G11G25G15G 9G14G31
  21429346.637    15478152.22344  12062349.32042  21429347.478    21429341.886
  23612174.000    20090148.34843  15660358.99742  23612175.940    23612175.768
  22447837.101     1510245.45543   1195482.45442  22447838.747    22447835.219
  23680686.991    27579282.90143  21485487.16942  23680689.037    23680686.459
  23774471.197   -10388782.96943  -7830130.81742  23774473.805    23774471.401
  23701901.545    -8486661.40243  -6391330.10142  23701904.289    23701904.371
  21089420.614    14921546.50643  11631324.36042  21089422.103    21089419.762
  24151555.670    11117751.89443   8666614.55242  24151558.041    24151556.563
  20222910.612    -5082995.43044  -3944874.86042  20222913.064    20222908.537
  23080210.131   -12720390.44843  -9896067.69542  23080212.084    23080210.411
 04  5 17 22  2 30.0000000  0 10G22G 3G19G18G11G25G15G 9G14G31
  21437997.454    15523612.46144  12097772.86742  21437998.273    21437992.683
  23628232.071    20174533.62943  15726113.65842  23628233.971    23628233.929
  22454828.517     1546985.44843   1224110.97742  22454830.173    22454826.688
  23695469.397    27656964.76443  21546018.42042  23695471.470    23695468.873
  23756541.466   -10483004.10543  -7903549.83142  23756544.094    23756541.640
  23682661.155    -8587769.68943  -6470115.63242  23682663.851    23682663.890
  21103763.645    14996919.49343  11690056.51442  21103765.117    21103762.826
  24165957.407    11193433.40343   8725587.10242  24165959.687    24165958.396
  20223681.478    -5078944.49043  -3941718.27642  20223683.925    20223679.390
  23084321.889   -12698783.19443  -9879230.89142  23084323.831    23084322.167
 04  5 17 22  3  0.0000000  0 10G22G 3G19G18G11G25G15G 9G14G31
  21446683.265    15569256.69944  12133339.78842  21446684.079    21446678.469
  23644320.557    20259078.80743  15791992.89242  23644322.448    23644322.451
  22461916.875     1584234.94743   1253136.51942  22461918.520    22461915.080
  23710269.489    27734739.54843  21606622.07442  23710271.656    23710269.035
  23738648.296   -10577033.32943  -7976819.30042  23738650.921    23738648.423
  23663437.605    -8688789.53243  -6548832.24542  23663440.341    23663440.263
  21118187.788    15072718.73143  11749120.81642  21118189.253    21118186.985
  24180448.951    11269586.69543   8784927.27242  24180451.215    24180449.922
  20224545.010    -5074406.53343  -3938182.20342  20224547.471    20224542.932
  23088535.784   -12676639.32143  -9861975.95842  23088537.697    23088536.033
 04  5 17 22  3 30.0000000  0 10G22G 3G19G18G11G25G15G 9G14G31
  21455403.957    15615084.40444  12169049.67042  21455404.802    21455399.204
  23660438.916    20343780.74543  15857994.29142  23660440.753    23660440.811
  22469101.816     1621992.00043   1282557.55142  22469103.458    22469100.045
  23725087.309    27812607.32943  21667298.20242  23725089.495    23725086.940
  23720792.100   -10670868.20243  -8049937.32542  23720794.700    23720792.199
  23644231.399    -8789718.39243  -6627477.94842  23644234.112    23644234.006
  21132692.763    15148942.82443  11808516.16642  21132694.241    21132691.986
  24195029.814    11346209.26943   8844633.11842  24195032.131    24195030.742
  20225501.005    -5069382.74144  -3934267.56042  20225503.469    20225498.925
  23092851.426   -12653960.42343  -9844304.11642  23092853.346    23092851.725
 04  5 17 22  4  0.0000000  0 10G22G 3G19G18G11G25G15G 9G14G31
  21464159.489    15661094.85344  12204901.95142  21464160.294    21464154.719
  23676586.393    20428635.76143  15924114.97742  23676588.181    23676588.357
  22476382.839     1660253.85143   1312371.93842  22476384.470    22476381.078
  23739922.690    27890567.07643  21728045.98242  23739924.859    23739922.288
  23702973.103   -10764507.40143  -8122902.88542  23702975.767    23702973.142
  23625042.865    -8890554.21543  -6706051.17142  23625045.591    23625045.467
  21147278.249    15225589.80343  11868241.04542  21147279.720    21147277.438
  24209699.376    11423297.75543   8904702.00942  24209701.651    24209700.268
  20226549.096    -5063875.02144  -3929975.82542  20226551.542    20226547.018
  23097268.496   -12630748.61943  -9826217.02742  23097270.417    23097268.790
 04  5 17 22  4 30.0000000  0 10G22G 3G19G18G11G25G15G 9G14G31
  21472949.657    15707287.62944  12240896.30342  21472950.486    21472944.928
  23692762.397    20513640.68343  15990352.46542  23692764.143    23692764.359
  22483759.625     1699018.77643   1342578.32442  22483761.222    22483757.826
  23754775.407    27968618.08043  21788864.86242  23754777.584    23754774.993
  23685191.758   -10857948.83343  -8195714.32042  23685194.446    23685191.818
  23605872.539    -8991294.24643  -6784549.72742  23605875.272    23605875.120
  21161943.910    15302658.05043  11928294.18142  21161945.372    21161943.070
  24224457.014    11500849.33843   8965131.74242  24224459.370    24224457.896
  20227689.023    -5057884.61443  -3925307.97842  20227691.472    20227686.960
  23101786.652   -12607005.66243  -9807716.05642  23101788.598    23101786.934
 04  5 17 22  5  0.0000000  0 10G22G 3G19G18G11G25G15G 9G14G31
  21481774.317    15753661.47444  12277031.74642  21481775.152    21481769.619
  23708966.106    20598791.59643  16056703.71942  23708967.912    23708968.155
  22491231.464     1738283.46543   1373174.13442  22491233.109    22491229.657
  23769645.332    28046759.36543  21849754.10442  23769647.480    23769644.871
  23667448.303   -10951191.03143  -8268370.52442  23667451.048    23667448.373
  23586720.802    -9091936.77243  -6862972.30742  23586723.547    23586723.354
  21176689.211    15380145.09243  11988673.65542  21176690.693    21176688.419
  24239302.108    11578860.52443   9025919.59742  24239304.423    24239302.980
  20228920.402    -5051413.56744  -3920265.60142  20228922.838    20228918.348
  23106405.442   -12582733.88743  -9788803.00942  23106407.429    23106405.729
 04  5 17 22  5 30.0000000  0 10G22G 3G19G18G11G25G15G 9G14G31
  21490633.891    15800218.72744  12313310.10642  21490634.727    21490629.195
  23725197.642    20684088.20843  16123168.49042  23725199.395    23725199.637
  22498798.588     1778048.71243   1404159.99142  22498800.205    22498796.735
  23784532.901    28124993.35543  21910715.56342  23784535.042    23784532.376
  23649743.728   -11044229.36143  -8340867.86742  23649746.408    23649743.699
  23567588.659    -9192476.43043  -6941314.72242  23567591.395    23567591.218
  21191514.429    15458052.05243  12049380.32842  21191515.924    21191513.658
  24254234.617    11657331.29443   9087065.59042  24254236.905    24254235.504
  20230243.502    -5044460.50344  -3914847.62842  20230245.968    20230241.479
  23111124.930   -12557932.59843  -9769477.35742  23111126.994    23111125.300
 04  5 17 22  6  0.0000000  0 10G22G 3G19G18G11G25G15G 9G14G31
  21499528.426    15846959.71944  12349731.63542  21499529.264    21499523.743
  23741456.385    20769528.04843  16189744.86442  23741458.153    23741458.398
  22506460.653     1818312.89243   1435534.63142  22506462.287    22506458.771
  23799438.050    28203320.12843  21971749.34042  23799440.207    23799437.545
  23632078.456   -11137060.84243  -8413204.03242  23632081.176    23632078.435
  23548476.591    -9292910.16943  -7019574.61742  23548479.325    23548479.155
  21206419.403    15536377.98143  12110413.47442  21206420.855    21206418.634
  24269254.306    11736259.81843   9148568.26442  24269256.548    24269255.248
  20231658.279    -5037025.92143  -3909054.44542  20231660.740    20231656.223
  23115945.020   -12532602.69143  -9749739.80042  23115947.089    23115945.468
 04  5 17 22  6 30.0000000  0 10G22G 3G19G18G11G25G15G 9G14G31
  21508456.796    15893878.54544  12386291.73542  21508457.642    21508452.131
  23757740.754    20855102.59443  16256426.21642  23757742.521    23757742.845
  22514216.210     1859068.49043   1467292.19042  22514217.855    22514214.316
  23814359.825    28281734.13143  22032851.09742  23814361.979    23814359.329
  23614451.870   -11229688.91243  -8485381.68842  23614454.599    23614451.804
  23529384.235    -9393240.72543  -7097754.09842  23529386.956    23529386.775
  21221402.730    15615115.68643  12171767.48342  21221404.197    21221401.974
  24284359.466    11815637.68243   9210421.07142  24284361.680    24284360.374
  20233163.301    -5029116.91344  -3902891.58142  20233165.767    20233161.262
  23120864.400   -12506751.46043  -9729596.01142  23120866.429    23120864.824
 04  5 17 22  7  0.0000000  0 10G22G 3G19G18G11G25G15G 9G14G31
  21517419.952    15940980.26544  12422994.35142  21517420.808    21517415.307
  23774051.118    20940813.74343  16323214.01142  23774052.889    23774053.276
  22522065.837     1900318.35543   1499434.90042  22522067.456    22522063.912
  23829298.954    28360239.72543  22094024.20842  23829301.057    23829298.540
  23596865.358   -11322106.34443  -8557395.21242  23596868.086    23596865.312
  23510312.966    -9493460.20643  -7175847.02542  23510315.743    23510315.497
  21236465.083    15694268.74643  12233445.14842  21236466.540    21236464.344
  24299550.596    11895467.09243   9272625.72542  24299552.804    24299551.517
  20234759.408    -5020729.40444  -3896355.86042  20234761.839    20234757.349
  23125883.635   -12480375.51843  -9709043.36142  23125885.626    23125884.046
 04  5 17 22  7 30.0000000  0 10G22G 3G19G18G11G25G15G 9G14G31
  21526417.546    15988262.79644  12459837.86142  21526418.378    21526412.910
  23790386.543    21026656.64443  16390104.45842  23790388.358    23790388.807
  22530008.778     1942058.56143   1531959.69242  22530010.396    22530006.854
  23844255.164    28438834.88243  22155267.11742  23844257.274    23844254.770
  23579319.037   -11414312.49143  -8629244.09642  23579321.737    23579319.004
  23491262.944    -9593567.88543  -7253852.83542  23491265.753    23491265.477
  21251605.806    15773833.64643  12295443.72642  21251607.294    21251605.097
  24314826.750    11975743.77443   9335178.90542  24314828.939    24314827.727
  20236445.912    -5011866.77044  -3889449.90942  20236448.369    20236443.856
  23131001.972   -12453478.33843  -9688084.55442  23131004.000    23131002.451
 04  5 17 22  8  0.0000000  0 10G22G 3G19G18G11G25G15G 9G14G31
  21535449.706    16035726.93544  12496822.88342  21535450.553    21535445.054
  23806746.760    21112629.54743  16457096.20742  23806748.576    23806749.044
  22538044.847     1984288.12143   1564865.78942  22538046.445    22538042.931
  23859228.673    28517520.74343  22216580.69742  23859230.782    23859228.289
  23561813.479   -11506304.34443  -8700926.00742  23561816.195    23561813.443
  23472234.921    -9693559.94143  -7331768.54542  23472237.729    23472237.494
  21266824.855    15853809.98643  12357762.90842  21266826.314    21266824.134
  24330187.765    12056466.11043   9398079.34842  24330189.892    24330188.643
  20238222.849    -5002528.94544  -3882173.67942  20238225.299    20238220.785
  23136219.453   -12426060.53543  -9666720.08642  23136221.481    23136219.901
 04  5 17 22  8 30.0000000  0  9G22G 3G19G18G11G25G15G14G31
  21544517.151    16083376.58344  12533952.45542  21544518.008    21544512.504
  23823131.856    21198733.56343  16524190.14842  23823133.702    23823134.258
  22546174.408     2027008.97343   1598154.70942  22546175.991    22546172.518
  23874220.171    28596301.17643  22277967.98242  23874222.276    23874219.764
  23544349.964   -11598075.31543  -8772435.78542  23544352.675    23544349.932
  23453230.299    -9793429.40443  -7409588.74542  23453233.061    23453232.841
  21282122.615    15934200.11943  12420404.52342  21282124.055    21282121.918
  20240090.766    -4992713.02844  -3874524.91042  20240093.210    20240088.693
  23141536.450   -12398119.75843  -9644948.09742  23141538.473    23141536.882
 04  5 17 22  9  0.0000000  0  9G22G 3G19G18G11G25G15G14G31
  21553617.964    16131201.58944  12571218.66942  21553618.819    21553613.312
  23839539.401    21284955.51343  16591375.96642  23839541.252    23839541.914
  22554395.170     2070209.05143   1631817.06142  22554396.756    22554393.295
  23889227.731    28675165.83443  22339420.86942  23889229.821    23889227.245
  23526927.020   -11689633.25443  -8843779.56942  23526929.692    23526926.959
  23434247.599    -9893183.50543  -7487319.04742  23434250.342    23434250.172
  21297496.913    16014992.58443  12483359.64342  21297498.394    21297496.251
  20242047.510    -4982430.34344  -3866512.42442  20242049.942    20242045.415
  23146950.758   -12369667.65843  -9622777.66442  23146952.754    23146951.186
 04  5 17 22  9 30.0000000  0  9G22G 3G19G18G11G25G15G14G31
  21562753.553    16179209.32744  12608627.28042  21562754.395    21562748.879
  23855970.370    21371300.46243  16658657.63242  23855972.234    23855972.966
  22562708.153     2113893.89043   1665857.14442  22562709.791    22562706.307
  23904252.640    28754122.01943  22400945.09342  23904254.723    23904252.184
  23509546.531   -11780968.26843  -8914949.64642  23509549.188    23509546.436
  23415288.722    -9992812.10043  -7564951.54442  23415291.497    23415291.297
  21312948.970    16096193.36243  12546632.92942  21312950.436    21312948.285
  20244094.266    -4971674.53344  -3858131.27242  20244096.695    20244092.185
  23152463.452   -12340698.49843  -9600204.33542  23152465.434    23152463.840
 04  5 17 22 10  0.0000000  0  9G22G 3G19G18G11G25G15G14G31
  21571923.335    16227396.80144  12646175.93842  21571924.184    21571918.657
  23872423.603    21457762.31343  16726030.39942  23872425.466    23872426.233
  22571112.432     2158058.39743   1700270.99242  22571114.062    22571110.567
  23919294.366    28833166.88943  22462538.41542  23919296.445    23919293.972
  23492208.303   -11872080.93943  -8985946.47942  23492210.964    23492208.209
  23396353.834   -10092315.28243  -7642486.34242  23396356.535    23396356.301
  21328477.850    16177797.98943  12610220.90542  21328479.312    21328477.170
  20246230.329    -4960449.57544  -3849384.54842  20246232.740    20246228.226
  23158073.665   -12311216.70043  -9577231.53542  23158075.624    23158074.102
 04  5 17 22 10 30.0000000  0  9G22G 3G19G18G11G25G15G14G31
  21581127.196    16275763.36444  12683864.14842  21581128.053    21581122.545
  23888898.479    21544337.75043  16793491.65742  23888900.314    23888901.069
  22579607.469     2202699.82443   1735056.46442  22579609.081    22579605.601
  23934352.876    28912299.68643  22524200.24442  23934354.890    23934352.492
  23474912.799   -11962969.26543  -9056768.47942  23474915.434    23474912.661
  23377443.299   -10191690.47243  -7719921.40042  23377445.944    23377445.668
  21344083.154    16259804.35143  12674121.92142  21344084.624    21344082.506
  20248455.252    -4948757.45944  -3840273.80342  20248457.682    20248453.149
  23163780.929   -12281224.67643  -9553861.16242  23163782.892    23163781.452
 04  5 17 22 11  0.0000000  0  9G22G 3G19G18G11G25G15G14G31
  21590365.809    16324312.56444  12721694.67042  21590366.677    21590361.181
  23905395.088    21631027.42743  16861041.94942  23905396.949    23905397.749
  22588193.573     2247819.77843   1770214.81142  22588195.162    22588191.695
  23949428.768    28991523.80343  22585933.23442  23949430.804    23949428.398
  23457661.142   -12053627.17543  -9127410.94442  23457663.726    23457660.983
  23358558.218   -10290931.31043  -7797251.77242  23358560.945    23358560.601
  21359765.317    16342214.65343  12738337.69342  21359766.803    21359764.740
  20250769.543    -4936595.67144  -3830797.08042  20250771.973    20250767.432
  23169585.644   -12250720.50443  -9530091.73042  23169587.668    23169586.219
 04  5 17 22 11 30.0000000  0  9G22G 3G19G18G11G25G15G14G31
  21599638.472    16373040.69944  12759664.62642  21599639.333    21599633.873
  23921912.186    21717825.01943  16928676.32342  23921914.058    23921914.849
  22596869.585     2293412.27943   1805741.38042  22596871.194    22596867.729
  23964521.304    29070835.50843  22647734.47742  23964523.412    23964521.045
  23440453.064   -12144056.11243  -9197874.99142  23440455.641    23440452.906
  23339698.653   -10390038.61843  -7874478.08342  23339701.398    23339700.936
  21375523.377    16425023.61943  12802864.11142  21375524.825    21375522.810
  20253172.325    -4923968.97644  -3820958.09342  20253174.751    20253170.190
  23175486.842   -12219709.56643  -9505927.40442  23175488.902    23175487.429
 04  5 17 22 12  0.0000000  0  9G22G 3G19G18G11G25G15G14G31
  21608945.175    16421947.83044  12797774.05442  21608946.037    21608940.612
  23938449.373    21804727.85743  16996392.70842  23938451.207    23938452.026
  22605635.212     2339475.68543   1841634.88042  22605636.832    22605633.378
  23979630.558    29150234.78243  22709603.94842  23979632.648    23979630.348
  23423289.033   -12234253.52143  -9268158.63442  23423291.619    23423288.779
  23320865.005   -10489009.58543  -7951598.16542  23320867.724    23320867.226
  21391357.097    16508230.23043  12867700.37942  21391358.544    21391356.559
  20255663.383    -4910878.40644  -3810757.64542  20255665.779    20255661.242
  23181484.234   -12188193.37843  -9481369.36642  23181486.212    23181484.790
 04  5 17 22 12 30.0000000  0  9G22G 3G19G18G11G25G15G14G31
  21618286.280    16471035.61744  12836024.25842  21618287.148    21618281.727
  23955006.293    21891734.59543  17064190.05142  23955008.138    23955008.908
  22614490.395     2386009.35943   1877894.82642  22614491.944    22614488.529
  23994756.771    29229723.28043  22771542.95742  23994758.774    23994756.527
  23406169.824   -12324215.27843  -9338258.64542  23406172.435    23406169.570
  23302058.264   -10587839.32243  -8028608.19542  23302060.981    23302060.393
  21407266.499    16591834.26643  12932846.33142  21407267.921    21407265.932
  20258242.771    -4897323.59044  -3800195.44642  20258245.178    20258240.619
  23187577.775   -12156171.89043  -9456417.61642  23187579.727    23187578.302
 04  5 17 22 13  0.0000000  0  9G22G 3G19G18G11G25G15G14G31
  21627661.343    16520301.63644  12874413.34642  21627662.173    21627656.771
  23971582.013    21978840.19343  17132064.43342  23971583.883    23971584.602
  22623434.154     2433009.00643   1914517.86542  22623435.711    22623432.331
  24009899.528    29309298.56543  22833549.56942  24009901.560    24009899.316
  23389095.499   -12413941.23843  -9408174.93442  23389098.120    23389095.164
  23283278.374   -10686527.46643  -8105507.90542  23283281.154    23283280.502
  21423250.753    16675831.83543  12998298.93042  21423252.186    21423250.202
  20260909.778    -4883308.35844  -3789274.47942  20260912.203    20260907.642
  23193766.693   -12123649.46043  -9431075.49542  23193768.629    23193767.089
 04  5 17 22 13 30.0000000  0  9G22G 3G19G18G11G25G15G14G31
  21637070.934    16569749.26844  12912943.94842  21637071.787    21637066.367
  23988176.634    22066045.11443  17200016.19542  23988178.461    23988179.260
  22632466.808     2480475.69943   1951504.84442  22632468.375    22632465.025
  24025059.393    29388963.80943  22895626.29942  24025061.436    24025059.322
  23372067.088   -12503425.83043  -9477903.13342  23372069.677    23372066.716
  23264526.661   -10785067.74743  -8182292.39642  23264529.458    23264528.731
  21439310.255    16760224.84443  13064059.66342  21439311.691    21439309.710
  20263664.877    -4868830.28744  -3777992.86042  20263667.292    20263662.729
  23200051.174   -12090624.43443  -9405341.76842  23200053.158    23200051.570
 04  5 17 22 14  0.0000000  0  9G22G 3G19G18G11G25G15G14G31
  21646514.606    16619375.94844  12951614.06842  21646515.459    21646510.031
  24004789.198    22153344.13443  17268041.28242  24004791.059    24004791.854
  22641587.452     2528404.71743   1988852.06942  22641589.028    22641585.686
  24040235.848    29468716.53943  22957771.20142  24040237.906    24040235.750
  23355084.654   -12592668.79543  -9547443.06042  23355087.287    23355084.329
  23245803.205   -10883459.54343  -8258961.19242  23245805.997    23245805.248
  21455444.219    16845009.24043  13130125.37242  21455445.692    21455443.695
  20266507.349    -4853893.08444  -3766353.47842  20266509.761    20266505.172
  23206430.502   -12057100.96143  -9379219.62142  23206432.491    23206430.920
 04  5 17 22 14 30.0000000  0  9G22G 3G19G18G11G25G15G14G31
  21655992.044    16669180.10544  12990422.48442  21655992.906    21655987.500
  24021418.821    22240732.97643  17336136.35642  24021420.675    24021421.439
  22650795.300     2576792.45043   2026556.73542  22650796.920    22650793.622
  24055428.658    29548555.09443  23019982.96842  24055430.738    24055428.596
  23338148.345   -12681669.48443  -9616794.19342  23338150.995    23338147.963
  23227108.232   -10981701.75943  -8335513.43542  23227110.990    23227110.254
  21471652.143    16930182.03143  13196493.72242  21471653.599    21471651.587
  20269436.632    -4838499.48144  -3754358.45742  20269439.068    20269434.497
  23212904.080   -12023082.36243  -9352711.66742  23212906.017    23212904.484
 04  5 17 22 15  0.0000000  0  9G22G 3G19G18G11G25G15G14G31
  21665503.718    16719164.27144  13029371.16642  21665504.593    21665499.181
  24038065.475    22328211.23443  17404301.12042  24038067.404    24038068.191
  22660090.497     2625639.09243   2064618.99542  22660092.173    22660088.888
  24070638.238    29628481.75443  23082263.39642  24070640.357    24070638.134
  23321259.059   -12770423.17643  -9685952.87442  23321261.670    23321258.664
  23208442.734   -11079789.32043  -8411945.17242  23208445.442    23208444.681
  21487934.061    17015743.85143  13263165.21642  21487935.532    21487933.528
  20272452.960    -4822648.61944  -3742007.13242  20272455.395    20272450.822
  23219471.917   -11988568.14543  -9325817.52242  23219473.845    23219472.376
 04  5 17 22 15 30.0000000  0  9G22G 3G19G18G11G25G15G14G31
  21675049.589    16769327.97644  13068459.75142  21675050.459    21675045.030
  24054728.517    22415775.78543  17472533.11142  24054730.421    24054731.335
  22669472.632     2674942.12343   2103036.87942  22669474.257    22669470.938
  24085864.611    29708496.49143  23144612.44242  24085866.766    24085864.587
  23304417.250   -12858927.12143  -9754916.92842  23304419.892    23304416.915
  23189807.176   -11177719.47343  -8488254.25842  23189809.850    23189809.050
  21504289.646    17101692.77843  13330138.35242  21504291.125    21504289.107
  20275556.032    -4806341.80344  -3729300.52042  20275558.474    20275553.889
  23226133.709   -11953560.45843  -9298538.84442  23226135.582    23226134.181
 04  5 17 22 16  0.0000000  0  9G22G 3G19G18G11G25G15G14G31
  21684629.222    16819669.19244  13107686.65142  21684630.071    21684624.643
  24071407.019    22503421.77743  17540828.57342  24071408.993    24071409.885
  22678940.734     2724697.07143   2141806.90542  22678942.345    22678939.052
  24101107.264    29788596.90643  23207028.25442  24101109.350    24101107.180
  23287622.942   -12947181.45143  -9823686.48142  23287625.539    23287622.618
  23171201.764   -11275490.94343  -8564439.71642  23171204.457    23171203.583
  21520718.220    17188025.17343  13397410.28942  21520719.677    21520717.680
  20278745.211    -4789582.47044  -3716241.29942  20278747.683    20278743.083
  23232888.587   -11918063.36643  -9270878.82542  23232890.440    23232889.079
 04  5 17 22 16 30.0000000  0  9G22G 3G19G18G11G25G15G14G31
  21694242.730    16870188.42644  13147052.27642  21694243.597    21694238.134
  24088100.732    22591147.15343  17609185.89542  24088102.678    24088103.569
  22688494.511     2774902.46543   2180927.93042  22688496.159    22688492.838
  24116366.335    29868783.49843  23269511.23242  24116368.337    24116366.231
  23270876.780   -13035182.81743  -9892258.91342  23270879.376    23270876.431
  23152627.213   -11373100.53243  -8640499.02442  23152629.887    23152628.969
  21537219.597    17274740.13843  13464980.33842  21537221.043    21537219.032
  20282020.400    -4772371.26644  -3702829.97142  20282022.849    20282018.282
  23239736.442   -11882077.96343  -9242838.29642  23239738.287    23239736.983
 04  5 17 22 17  0.0000000  0  9G22G 3G19G18G11G25G15G14G31
  21703890.578    16920888.15344  13186558.54142  21703891.449    21703885.987
  24104809.402    22678951.30543  17677604.59742  24104811.233    24104812.224
  22698134.064     2825558.36143   2220399.99542  22698135.689    22698132.354
  24131642.289    29949058.52243  23332063.10742  24131644.182    24131642.188
  23254179.693   -13122926.58643  -9960630.63142  23254182.260    23254179.302
  23134084.402   -11470543.20743  -8716428.27542  23134087.057    23134086.123
  21553793.902    17361838.41443  13532849.06942  21553795.331    21553793.323
  20285381.760    -4754707.24744  -3689065.80042  20285384.186    20285379.624
  23246677.265   -11845603.87943  -9214417.00242  23246679.101    23246677.819
 04  5 17 22 17 30.0000000  0  9G22G 3G19G18G11G25G15G14G31
  21713572.124    16971764.87044  13226202.72442  21713572.985    21713567.513
  24121531.912    22766828.01643  17746079.82942  24121533.644    24121534.756
  22707858.263     2876659.17243   2260218.74442  22707859.878    22707856.554
  24146934.428    30029418.59743  23394681.24042  24146936.277    24146934.249
  23237531.462   -13210413.60343 -10028802.28642  23237534.054    23237531.017
  23115573.350   -11567819.01143  -8792227.48742  23115575.988    23115575.029
  21570440.196    17449314.98143  13601012.57342  21570441.602    21570439.630
  20288828.423    -4736594.92544  -3674952.30042  20288830.841    20288826.295
  23253710.084   -11808646.27143  -9185618.91042  23253711.922    23253710.671
 04  5 17 22 18  0.0000000  0  9G22G 3G19G18G11G25G15G14G31
  21723287.904    17022821.49144  13265987.08842  21723288.764    21723283.283
  24138268.132    22854777.11643  17814611.47642  24138269.917    24138271.032
  22717667.183     2928205.11643   2300384.35142  22717668.802    22717665.482
  24162243.147    30109866.17543  23457367.58342  24162245.045    24162243.073
  23220932.955   -13297639.08743 -10096770.14942  23220935.593    23220932.552
  23097095.022   -11664922.68143  -8867892.57842  23097097.635    23097096.670
  21587158.681    17537170.83343  13669471.62342  21587160.076    21587158.097
  20292360.569    -4718033.37344  -3660488.75542  20292362.987    20292358.439
  23260835.025   -11771204.61443  -9156443.64342  23260836.896    23260835.595
 04  5 17 22 18 30.0000000  0  9G22G 3G19G18G11G25G15G14G31
  21733036.946    17074053.10544  13305907.80742  21733037.816    21733032.345
  24155016.729    22942791.35743  17883193.89342  24155018.564    24155019.712
  22727559.506     2980189.36443   2340891.49942  22727561.123    22727557.796
  24177567.692    30190396.87343  23520118.68842  24177569.681    24177567.601
  23204383.775   -13384604.96443 -10164535.70942  23204386.444    23204383.514
  23078649.163   -11761855.93943  -8943424.87542  23078651.708    23078650.786
  21603948.082    17625399.70643  13738221.34042  21603949.487    21603947.539
  20295977.142    -4699028.13044  -3645679.47442  20295979.557    20295975.017
  23268050.853   -11733285.34943  -9126896.21842  23268052.727    23268051.444
 04  5 17 22 19  0.0000000  0  9G22G 3G19G18G11G25G15G14G31
  21742820.642    17125466.64244  13345970.28442  21742821.485    21742816.020
  24171778.579    23030874.72343  17951830.14442  24171780.368    24171781.547
  22737536.020     3032616.23043   2381743.53942  22737537.652    22737534.367
  24192909.317    30271017.13843  23582939.58442  24192911.348    24192909.185
  23187885.803   -13471301.97243 -10232091.76042  23187888.497    23187885.563
  23060237.511   -11858609.22943  -9018816.93842  23060240.067    23060239.175
  21620809.404    17714006.36243  13807265.42842  21620810.780    21620808.849
  20299679.170    -4679573.79344  -3630520.25242  20299681.587    20299677.060
  23275358.433   -11694883.75343  -9096972.94742  23275360.317    23275359.070
 04  5 17 22 19 30.0000000  0  9G22G 3G19G18G11G25G15G14G31
  21752638.024    17177057.44744  13386170.89342  21752638.880    21752633.431
  24188552.280    23119020.08143  18020514.71342  24188553.984    24188555.133
  22747595.520     3085478.84343   2422935.12242  22747597.103    22747593.824
  24208267.150    30351722.21143  23645826.55642  24208269.196    24208267.020
  23171438.654   -13557732.10143 -10299439.86242  23171441.322    23171438.414
  23041859.824   -11955184.26043  -9094070.10042  23041862.348    23041861.441
  21637741.437    17802984.60243  13876599.06942  21637742.816    21637740.886
  20303465.498    -4659676.44144  -3615015.81842  20303467.918    20303463.409
  23282756.616   -11656006.30443  -9066678.88042  23282758.484    23282757.272
 04  5 17 22 20  0.0000000  0  9G22G 3G19G18G11G25G15G14G31
  21762488.435    17228821.85243  13426506.77142  21762489.293    21762483.871
  24205336.409    23207220.83243  18089242.43642  24205338.171    24205339.317
  22757736.800     3138771.36443   2464461.70142  22757738.411    22757735.125
  24223640.392    30432508.62543  23708776.93342  24223642.420    24223640.293
  23155041.970   -13643897.25043 -10366581.47542  23155044.664    23155041.687
  23023515.931   -12051581.60243  -9169184.79142  23023518.469    23023517.511
  21654743.172    17892329.20043  13946218.18442  21654744.560    21654742.645
  20307335.157    -4639341.14844  -3599170.13342  20307337.603    20307333.058
  23290244.266   -11616658.72643  -9036018.47442  23290246.148    23290244.947
 04  5 17 22 20 30.0000000  0  9G22G 3G19G18G11G25G15G14G31
  21772373.694    17280769.08343  13466985.11142  21772374.518    21772369.137
  24222132.381    23295483.62643  18158018.51942  24222134.171    24222135.281
  22767961.103     3192500.31443   2506328.35142  22767962.720    22767959.496
  24239030.797    30513385.44943  23771797.74942  24239032.907    24239030.762
  23138698.102   -13729784.82043 -10433506.81242  23138700.792    23138697.767
  23005208.209   -12147788.99043  -9244151.47742  23005210.724    23005209.770
  21671816.070    17982047.76243  14016128.69642  21671817.479    21671815.538
  20311289.705    -4618559.86644  -3582976.92342  20311292.133    20311287.611
  23297822.711   -11576833.74143  -9004986.07342  23297824.680    23297823.372
 04  5 17 22 21  0.0000000  0  9G22G 3G19G18G11G25G15G14G31
  21782292.424    17332892.20844  13507600.51142  21782293.245    21782287.851
  24238938.183    23383798.27443  18226834.98742  24238940.009    24238941.074
  22778266.762     3246656.54043   2548527.94742  22778268.343    22778265.165
  24254437.039    30594345.46943  23834883.39142  24254439.094    24254437.124
  23122406.079   -13815399.79243 -10500219.72942  23122408.778    23122405.761
  22986935.859   -12243810.77743  -9318973.53842  22986938.349    22986937.308
  21688958.447    18072131.37943  14086323.66542  21688959.839    21688957.954
  20315327.502    -4597340.99944  -3566442.73842  20315329.955    20315325.423
  23305490.338   -11536540.54043  -8973588.81942  23305492.267    23305490.947
 04  5 17 22 21 30.0000000  0  9G22G 3G19G18G11G25G15G14G31
  21792244.797    17385192.01544  13548353.58542  21792245.617    21792240.232
  24255753.555    23472162.90743  18295690.40642  24255755.350    24255756.445
  22788653.388     3301238.38343   2591059.18642  22788654.974    22788651.817
  24269859.237    30675389.51843  23898034.51442  24269861.308    24269859.344
  23106166.551   -13900738.89543 -10566717.67742  23106169.273    23106166.219
  22968699.380   -12339643.65843  -9393648.39842  22968701.940    22968700.760
  21706170.113    18162579.27643  14156802.49042  21706171.518    21706169.683
  20319448.399    -4575685.56344  -3549568.36942  20319450.835    20319446.324
  23313246.758   -11495780.38043  -8941827.71442  23313248.740    23313247.422
 04  5 17 22 22  0.0000000  0  9G22G 3G19G18G11G25G15G14G31
  21802231.008    17437669.75343  13589245.30942  21802231.839    21802226.444
  24272578.187    23560576.34443  18364583.83742  24272579.979    24272581.100
  22799120.804     3356244.79343   2633921.25942  22799122.394    22799119.283
  24285297.695    30756518.81443  23961252.06042  24285299.677    24285297.766
  23089980.260   -13985798.20543 -10632997.60242  23089982.968    23089979.917
  22950499.738   -12435282.89343  -9468172.37642  22950502.377    22950501.063
  21723451.123    18253391.27743  14227565.02742  21723452.512    21723450.701
  20323652.452    -4553593.15944  -3532353.50642  20323654.868    20323650.375
  23321091.999   -11454553.85043  -8909703.20342  23321093.950    23321092.579
 04  5 17 22 22 30.0000000  0  9G22G 3G19G18G11G25G15G14G31
  21812251.305    17490326.68843  13630276.66642  21812252.110    21812246.745
  24289411.746    23649036.88643  18433513.97342  24289413.527    24289414.726
  22809668.740     3411674.25843   2677112.98742  22809670.293    22809667.226
  24300752.553    30837734.42443  24024536.85742  24300754.541    24300752.752
  23073847.817   -14070574.54143 -10699057.02642  23073850.508    23073847.486
  22932337.685   -12530724.65443  -9542542.47142  22932340.352    22932338.999
  21740801.225    18344566.38743  14298610.50742  21740802.603    21740800.807
  20327939.508    -4531064.40944  -3514798.63642  20327941.945    20327937.441
  23329025.760   -11412862.15143  -8877216.22442  23329027.690    23329026.280
 04  5 17 22 23  0.0000000  0  9G22G 3G19G18G11G25G15G14G31
  21822304.568    17543157.04443  13671443.15542  21822305.386    21822300.052
  24306252.716    23737536.18443  18502474.31542  24306254.521    24306255.737
  22820295.645     3467518.92143   2720628.24142  22820297.217    22820294.165
  24316222.817    30919030.65043  24087884.47842  24316224.833    24316222.953
  23057768.660   -14155070.84743 -10764898.24742  23057771.336    23057768.316
  22914212.722   -12625971.73243  -9616760.86342  22914215.333    22914213.982
  21758218.992    18436097.27543  14369933.21942  21758220.423    21758218.590
  20332308.305    -4508106.09744  -3496909.03842  20332310.771    20332306.265
  23337046.567   -11370712.86943  -8844372.67942  23337048.493    23337047.087
 04  5 17 22 23 30.0000000  0  9G22G 3G19G18G11G25G15G14G31
  21832391.715    17596165.35643  13712748.30842  21832392.528    21832387.210
  24323101.460    23826075.96743  18571466.21942  24323103.172    24323104.399
  22831001.942     3523780.58843   2764468.42942  22831003.472    22831000.459
  24331709.273    31000411.83543  24151298.29442  24331711.232    24331709.462
  23041744.162   -14239280.15043 -10830515.83442  23041746.811    23041743.808
  22896126.135   -12721016.89243  -9690821.93042  22896128.776    22896127.395
  21775704.995    18527986.60043  14441535.22842  21775706.441    21775704.627
  20336759.408    -4484715.47144  -3478682.57442  20336761.864    20336757.342
  23345154.841   -11328103.79643  -8811170.86242  23345156.730    23345155.397
 04  5 17 22 24  0.0000000  0  9G22G 3G19G18G11G25G15G14G31
  21842512.976    17649352.99843  13754193.20442  21842513.795    21842508.493
  24339957.536    23914654.77443  18640488.52242  24339959.265    24339960.469
  22841787.319     3580458.29443   2808632.80942  22841788.858    22841785.976
  24347212.008    31081879.16743  24214779.24242  24347213.937    24347212.328
  23025775.004   -14323198.49543 -10895906.70142  23025777.608    23025774.626
  22878078.789   -12815855.79743  -9764722.28442  22878081.428    22878080.056
  21793259.143    18620233.99543  14513416.25142  21793260.564    21793258.810
  20341292.795    -4460892.40144  -3460119.14242  20341295.243    20341290.726
  23353350.457   -11285035.52943  -8777611.23142  23353352.390    23353351.103
 04  5 17 22 24 30.0000000  0  9G22G 3G19G18G11G25G15G14G31
  21852667.918    17702717.48543  13795775.90042  21852668.706    21852663.423
  24356820.023    24003267.10543  18709536.92242  24356821.776    24356822.934
  22852650.914     3637546.83643   2853117.31542  22852652.482    22852649.643
  24362730.632    31163429.99843  24278325.24442  24362732.534    24362730.967
  23009861.038   -14406826.66043 -10961071.45842  23009863.648    23009860.643
  22860070.763   -12910488.29043  -9838461.79642  22860073.408    22860071.982
  21810880.567    18712834.88943  14585572.72742  21810881.971    21810880.246
  20345907.644    -4436641.17444  -3441222.07942  20345910.113    20345905.571
  23361632.565   -11241513.10943  -8743697.71342  23361634.539    23361633.189
 04  5 17 22 25  0.0000000  0  9G22G 3G19G18G11G25G15G14G31
  21862855.784    17756255.11843  13837493.51242  21862856.586    21862851.288
  24373687.773    24091907.12243  18778606.91442  24373689.506    24373690.682
  22863591.624     3695040.14043   2897917.22642  22863593.149    22863590.345
  24378264.475    31245060.82643  24341933.57742  24378266.504    24378264.909
  22994002.186   -14490165.26743 -11026010.57642  22994004.789    22994001.763
  22842101.912   -13004914.96443  -9912040.94142  22842104.511    22842103.060
  21828568.249    18805784.14543  14658000.65742  21828569.629    21828567.969
  20350603.051    -4411966.68544  -3421995.20242  20350605.501    20350600.964
  23370000.032   -11197542.06743  -8709434.61942  23370001.998    23370000.651
 04  5 17 22 25 30.0000000  0  9G22G 3G19G18G11G25G15G14G31
  21873078.109    17809973.66643  13879352.09942  21873078.904    21873073.621
  24390561.631    24180579.33043  18847701.99042  24390563.333    24390564.744
  22874610.287     3752943.36843   2943036.55542  22874611.836    22874609.059
  24393814.946    31326779.10043  24405610.05542  24393816.874    24393815.415
  22978200.381   -14573204.26243 -11090716.23442  22978202.954    22978199.934
  22824174.157   -13099125.47343  -9985451.64742  22824176.746    22824175.260
  21846323.245    18899087.22843  14730704.29442  21846324.640    21846322.989
  20355380.127    -4386862.93544  -3402433.83942  20355382.589    20355378.056
  23378453.876   -11153117.21243  -8674817.90942  23378455.788    23378454.476
 04  5 17 22 26  0.0000000  0  9G22G 3G19G18G11G25G15G14G31
  21883333.446    17863865.54643  13921345.75442  21883334.232    21883328.911
  24407439.634    24269273.50543  18916814.17742  24407441.373    24407442.787
  22885705.057     3811246.48943   2988467.48742  22885706.629    22885703.847
  24409380.750    31408577.21243  24469348.74242  24409382.616    24409381.159
  22962454.564   -14655949.03143 -11155192.63342  22962457.148    22962454.045
  22806286.679   -13193124.50843 -10058697.56542  22806289.220    22806287.685
  21864143.872    18992734.89743  14803676.43742  21864145.234    21864143.624
  20360237.240    -4361338.76044  -3382544.86842  20360239.677    20360235.142
  23386992.241   -11108248.02243  -8639854.94942  23386994.176    23386992.858
 04  5 17 22 26 30.0000000  0  9G22G 3G19G18G11G25G15G14G31
  21893623.058    17917937.77043  13963479.93442  21893623.889    21893618.521
  24424322.785    24357994.33743  18985947.13642  24424324.447    24424325.957
  22896876.794     3869954.18143   3034213.67642  22896878.369    22896875.615
  24424963.039    31490462.16043  24533155.09442  24424964.935    24424963.398
  22946766.533   -14738390.00443 -11219432.30242  22946769.116    22946765.965
  22788441.344   -13286902.05843 -10131770.89942  22788443.859    22788442.343
  21882031.083    19086732.57343  14876921.31142  21882032.453    21882030.856
  20365175.375    -4335388.66544  -3362324.01442  20365177.805    20365173.277
  23395616.090   -11062929.74543  -8604542.06742  23395618.031    23395616.713
 04  5 17 22 27  0.0000000  0  9G22G 3G19G18G11G25G15G14G31
  21903945.400    17972182.03743  14005748.17142  21903946.240    21903940.856
  24441208.906    24446730.76743  19055092.25642  24441210.502    24441212.167
  22908123.457     3929055.40343   3080266.50142  22908125.005    22908122.281
  24440560.287    31572425.86043  24597022.81642  24440562.150    24440560.557
  22931135.234   -14820532.75643 -11283439.59442  22931137.807    22931134.623
  22770637.121   -13380463.58243 -10204675.89442  22770639.586    22770638.090
  21899983.008    19181070.30543  14950431.17042  21899984.378    21899982.799
  20370192.740    -4309022.14344  -3341778.67142  20370195.183    20370190.656
  23404323.417   -11017172.86143  -8568887.40942  23404325.300    23404324.049
 04  5 17 22 27 30.0000000  0  9G22G 3G19G18G11G25G15G14G31
  21914302.016    18026606.30643  14048156.67342  21914302.851    21914297.468
  24458098.828    24535487.45343  19124253.15342  24458100.551    24458102.157
  22919445.977     3988555.35443   3126630.02642  22919447.521    22919444.849
  24456173.835    31654475.43943  24660957.45842  24456175.723    24456174.153
  22915562.560   -14902367.32343 -11347206.75042  22915565.158    22915561.922
  22752875.974   -13473798.58343 -10277404.38142  22752878.417    22752876.963
  21918000.725    19275753.65743  15024210.33542  21918002.091    21918000.523
  20375290.515    -4282233.14144  -3320904.12542  20375292.953    20375288.436
  23413115.202   -10970971.94643  -8532886.76342  23413117.110    23413115.841
 04  5 17 22 28  0.0000000  0  9G22G 3G19G18G11G25G15G14G31
  21924691.692    18081204.25043  14090700.50442  21924692.518    21924687.099
  24474991.010    24624255.68243  19193423.04042  24474992.727    24474994.252
  22930842.654     4048445.01743   3173297.22242  22930844.226    22930841.558
  24471802.623    31736604.93643  24724954.37042  24471804.671    24471803.078
  22900047.868   -14983897.46043 -11410736.67042  22900050.456    22900047.188
  22735157.320   -13566910.35843 -10349958.92342  22735159.783    22735158.306
  21936082.626    19370774.55443  15098252.53142  21936084.025    21936082.453
  20380467.194    -4255029.58144  -3299706.54542  20380469.616    20380465.096
  23421989.831   -10924335.69343  -8496546.87542  23421991.690    23421990.444
 04  5 17 22 28 30.0000000  0  9G22G 3G19G18G11G25G15G14G31
  21935115.044    18135979.25443  14133382.30942  21935115.884    21935110.464
  24491885.512    24713036.30243  19262602.55642  24491887.216    24491888.714
  22942313.628     4108725.21043   3220268.73142  22942315.234    22942312.544
  24487447.149    31818817.34043  24789015.88242  24487449.204    24487447.689
  22884592.264   -15065117.31843 -11474024.84042  22884594.847    22884591.499
  22717482.322   -13659792.64943 -10422334.64642  22717484.823    22717483.344
  21954229.047    19466134.42143  15172558.85742  21954230.449    21954228.906
  20385723.128    -4227409.51444  -3278184.41442  20385725.557    20385721.005
  23430947.521   -10877262.89243  -8459866.82442  23430949.413    23430948.184
 04  5 17 22 29  0.0000000  0  9G22G 3G19G18G11G25G15G14G31
  21945572.015    18190930.89243  14176201.74442  21945572.835    21945567.420
  24508781.740    24801825.92143  19331789.09742  24508783.471    24508784.982
  22953858.452     4169393.12943   3267542.36142  22953860.052    22953857.328
  24503107.548    31901112.55843  24853141.93042  24503109.528    24503108.096
  22869196.091   -15146024.79243 -11537069.58642  22869198.716    22869195.294
  22699851.408   -13752443.34743 -10494529.90942  22699853.895    22699852.415
  21972439.586    19561831.16043  15247127.68942  21972441.003    21972439.420
  20391057.890    -4199375.04244  -3256339.37242  20391060.332    20391055.777
  23439987.822   -10829756.18643  -8422848.67842  23439989.754    23439988.483
 04  5 17 22 29 30.0000000  0  9G22G 3G19G18G11G25G15G14G31
  21956062.446    18246058.41143  14219158.22842  21956063.276    21956057.876
  24525679.007    24890620.94643  19400979.85142  24525680.765    24525682.207
  22965476.328     4230445.08543   3315115.24142  22965477.913    22965475.193
  24518783.383    31983489.30143  24917331.50842  24518785.456    24518783.936
  22853859.525   -15226618.84343 -11599870.10042  22853862.155    22853858.723
  22682264.941   -13844860.35643 -10566543.07242  22682267.467    22682265.959
  21990713.641    19657861.78543  15321956.68742  21990715.065    21990713.521
  20396471.095    -4170928.48944  -3234173.22942  20396473.535    20396468.983
  23449109.954   -10781819.09643  -8385495.16342  23449111.871    23449110.652
 04  5 17 22 30  0.0000000  0  9G22G 3G19G18G11G25G15G14G31
  21966586.398    18301362.07943  14262251.97242  21966587.227    21966581.841
  24542576.938    24979419.28943  19470173.18542  24542578.649    24542580.137
  22977166.930     4291878.96043   3362985.72042  22977168.471    22977165.710
  24534474.754    32065947.52143  24981584.58442  24534476.868    24534475.370
  22838583.238   -15306896.11243 -11662423.77942  22838585.852    22838582.438
  22664723.605   -13937040.47643 -10638371.65042  22664726.134    22664724.595
  22009050.987    19754224.95043  15397044.80842  22009052.400    22009050.883
  20401962.505    -4142070.99044  -3211686.86842  20401964.925    20401960.391
  23458313.752   -10733452.70743  -8347807.13542  23458315.706    23458314.519
 04  5 17 22 30 30.0000000  0  9G22G 3G19G18G11G25G15G14G31
  21977143.734    18356841.11143  14305482.35942  21977144.569    21977139.177
  24559474.768    25068217.11843  19539366.13142  24559476.531    24559478.025
  22988929.437     4353690.95643   3411150.83942  22988930.948    22988928.167
  24550181.476    32148486.38343  25045900.48142  24550183.576    24550182.066
  22823367.426   -15386855.41343 -11724729.68742  22823370.043    22823366.609
  22647227.691   -14028981.75343 -10710014.11742  22647230.207    22647228.683
  22027450.995    19850917.41743  15472389.52842  22027452.405    22027450.895
  20407531.591    -4112805.20944  -3188882.36942  20407534.015    20407529.495
  23467598.471   -10684661.37143  -8309787.97542  23467600.420    23467599.255
 04  5 17 22 31  0.0000000  0  9G22G 3G19G18G11G25G15G14G31
  21987735.176    18412499.31543  14348852.36142  21987736.014    21987730.596
  24576372.772    25157015.69243  19608559.60942  24576374.425    24576376.029
  23000764.046     4415882.21743   3459611.48942  23000765.605    23000762.799
  24565904.222    32231109.79843  25110282.27642  24565906.415    24565904.740
  22808213.269   -15466490.49343 -11786782.95542  22808215.914    22808212.483
  22629778.492   -14120677.63743 -10781465.36442  22629781.017    22629779.450
  22045914.060    19947941.25843  15547992.46542  22045915.471    22045913.973
  20413178.831    -4083128.73244  -3165757.84342  20413181.253    20413176.741
  23476964.457   -10635443.22043  -8271436.23242  23476966.376    23476965.200
 04  5 17 22 31 30.0000000  0  9G22G 3G19G18G11G25G15G14G31
  21998359.327    18468329.53243  14392356.39842  21998360.173    21998354.744
  24593269.031    25245805.17043  19677746.03342  24593270.659    24593272.347
  23012669.093     4478443.28443   3508360.30242  23012670.641    23012667.874
  24581641.744    32313810.50643  25174724.29542  24581643.844    24581642.133
  22793119.979   -15545806.09243 -11848587.27942  22793122.575    22793119.213
  22612375.142   -14212132.43943 -10852728.76942  22612377.685    22612376.097
  22064438.458    20045287.44943  15623846.58442  22064439.854    22064438.358
  20418902.550    -4053050.27644  -3142320.08642  20418905.010    20418900.492
  23486409.853   -10585807.60443  -8232759.18342  23486411.765    23486410.601
 04  5 17 22 32  0.0000000  0  9G22G 3G19G18G11G25G15G14G31
  22009017.256    18524337.32343  14435998.80342  22009018.113    22009012.729
  24610164.095    25334588.65543  19746927.78942  24610165.739    24610167.520
  23024645.006     4541376.87443   3557399.38442  23024646.538    23024643.827
  24597395.019    32396594.07443  25239230.87442  24597397.181    24597395.474
  22778089.068   -15624794.10443 -11910136.34342  22778091.615    22778088.254
  22595019.240   -14303337.88643 -10923797.85942  22595021.802    22595020.183
  22083024.880    20142959.53543  15699954.64642  22083026.302    22083024.763
  20424703.504    -4022566.01444  -3118566.12042  20424705.964    20424701.443
  23495935.158   -10535751.86043  -8193754.76242  23495937.097    23495935.945
 04  5 17 22 32 30.0000000  0  8G22G 3G19G11G25G15G14G31
  22019709.819    18580527.01343  14479782.95242  22019710.654    22019705.309
  24627058.321    25423367.70243  19816106.07442  24627059.946    24627061.805
  23036692.113     4604684.60843   3606730.00842  23036693.669    23036690.972
  22763121.700   -15703448.04143 -11971425.09042  22763124.261    22763120.907
  22577712.179   -14394286.81243 -10994667.07842  22577714.758    22577713.099
  22101673.772    20240959.91543  15776318.52142  22101675.219    22101673.667
  20430582.180    -3991673.29444  -3094493.87742  20430584.642    20430580.138
  23505540.924   -10485273.43843  -8154420.98942  23505542.856    23505541.740
 04  5 17 22 33  0.0000000  0  8G22G 3G19G11G25G15G14G31
  22030434.701    18636886.49243  14523699.40142  22030435.513    22030430.196
  24643948.758    25512127.03943  19885269.00342  24643950.428    24643952.366
  23048807.583     4668351.26643   3656340.31742  23048809.120    23048806.386
  22748216.006   -15781777.71043 -12032461.15442  22748218.520    22748215.247
  22560452.115   -14484988.94943 -11065343.99342  22560454.664    22560452.956
  22120382.460    20339274.35743  15852927.11942  22120383.866    22120382.362
  20436536.006    -3960385.83044  -3070114.03742  20436538.456    20436533.956
  23515224.181   -10434387.57943  -8114769.74042  23515226.137    23515225.043
 04  5 17 22 33 30.0000000  0  8G22G 3G19G11G25G15G14G31
  22041193.076    18693422.04743  14567753.04642  22041193.867    22041188.586
  24660836.304    25600870.81143  19954419.80542  24660837.973    24660839.920
  23060992.073     4732380.74743   3706233.34742  23060993.615    23060990.892
  22733373.714   -15859774.06443 -12093237.50742  22733376.233    22733372.999
  22543240.741   -14575434.89743 -11135821.28742  22543243.302    22543241.543
  22139151.725    20437907.15043  15929783.77842  22139153.117    22139151.628
  20442565.881    -3928698.71744  -3045422.78542  20442568.309    20442563.795
  23524985.801   -10383090.10443  -8074797.73742  23524987.764    23524986.689
 04  5 17 22 34  0.0000000  0  8G22G 3G19G11G25G15G14G31
  22051984.640    18750132.04443  14611942.63042  22051985.453    22051980.150
  24677720.062    25689594.73743  20023555.10742  24677721.687    24677723.791
  23073244.748     4796768.57143   3756405.60942  23073246.293    23073243.570
  22718594.910   -15937436.97843 -12153754.02142  22718597.414    22718594.223
  22526078.412   -14665623.28943 -11206097.87742  22526080.931    22526079.192
  22157980.894    20536854.91143  16006885.86942  22157982.290    22157980.832
  20448671.122    -3896615.35144  -3020422.76242  20448673.563    20448669.058
  23534825.036   -10331384.89243  -8034508.02842  23534826.992    23534825.871
 04  5 17 22 34 30.0000000  0  8G22G 3G19G11G25G15G14G31
  22062809.364    18807016.10943  14656267.84942  22062810.176    22062804.842
  24694599.369    25778295.64043  20092672.46842  24694601.053    24694603.124
  23085565.001     4861511.78943   3806854.79542  23085566.520    23085563.827
  22703880.078   -16014763.63643 -12214008.51942  22703882.593    22703879.476
  22508965.475   -14755552.13243 -11276172.22542  22508967.982    22508966.228
  22176869.529    20636115.22743  16084231.51342  22176870.954    22176869.485
  20454851.405    -3864137.59344  -2995115.42342  20454853.849    20454849.362
  23544741.197   -10279275.36443  -7993903.24742  23544743.133    23544742.050
 04  5 17 22 35  0.0000000  0  8G22G 3G19G11G25G15G14G31
  22073667.748    18864077.07243  14700730.91142  22073668.571    22073663.211
  24711474.341    25866973.51943  20161771.90742  24711475.948    24711478.150
  23097952.891     4926610.38543   3857580.89342  23097954.402    23097951.724
  22689230.179   -16091749.30243 -12273997.30942  22689232.680    22689229.552
  22491902.997   -14845215.80343 -11346039.94542  22491905.518    22491903.733
  22195817.776    20735688.75243  16161821.20842  22195819.205    22195817.733
  20461106.965    -3831264.44844  -2969499.99142  20461109.405    20461104.915
  23554734.488   -10226760.61643  -7952982.73142  23554736.432    23554735.338
 04  5 17 22 35 30.0000000  0  8G22G 3G19G11G25G15G14G31
  22084559.203    18921311.83543  14745329.40042  22084560.020    22084554.665
  24728343.759    25955622.39243  20230848.72242  24728345.328    24728347.673
  23110407.245     4992058.02243   3908578.97242  23110408.732    23110406.058
  22674644.977   -16168395.11343 -12333721.28142  22674647.501    22674644.323
  22474890.892   -14934614.69843 -11415701.34542  22474893.436    22474891.602
  22214824.624    20835570.07943  16239650.74242  22214826.007    22214824.590
  20467436.794    -3798001.07844  -2943580.48642  20467439.212    20467434.730
  23564803.700   -10173847.01043  -7911751.40142  23564805.592    23564804.552
 04  5 17 22 36  0.0000000  0  8G22G 3G19G11G25G15G14G31
  22095483.914    18978721.51943  14790064.19142  22095484.732    22095479.372
  24745207.482    26044240.97643  20299901.94142  24745209.081    24745211.528
  23122927.745     5057853.42943   3959848.04142  23122929.246    23122926.606
  22660125.144   -16244697.19243 -12393177.41442  22660127.727    22660124.513
  22457929.907   -15023744.84843 -11485153.33142  22457932.461    22457930.609
  22233889.891    20935758.44343  16317719.54142  22233891.287    22233889.871
  20473840.814    -3764347.71444  -2917357.09142  20473843.230    20473838.764
  23574948.583   -10120535.39143  -7870209.95542  23574950.439    23574949.452
 04  5 17 22 36 30.0000000  0  8G22G 3G19G11G25G15G14G31
  22106442.386    19036308.70443  14834937.29942  22106443.212    22106437.881
  24762065.477    26132829.25643  20368931.54442  24762066.887    24762069.462
  23135514.394     5123996.24743   4011387.82742  23135515.884    23135513.271
  22645671.746   -16320650.51343 -12452361.78342  22645674.300    22645671.013
  22441021.044   -15112601.15543 -11554391.93342  22441023.595    22441021.720
  22253013.687    21036254.60343  16396028.16242  22253015.092    22253013.716
  20480319.284    -3730303.15844  -2890828.86942  20480321.695    20480317.231
  23585169.217   -10066825.69043  -7828358.29042  23585171.067    23585170.165
 04  5 17 22 37  0.0000000  0  8G22G 3G19G11G25G15G14G31
  22117433.745    19094068.50743  14879944.90842  22117434.564    22117429.225
  24778916.241    26221379.89943  20437931.81942  24778917.702    24778920.370
  23148165.676     5190479.03443   4063192.52042  23148167.180    23148164.587
  22631284.162   -16396257.64243 -12511276.39942  22631286.752    22631283.426
  22424163.911   -15201185.72143 -11623418.78342  22424166.446    22424164.550
  22272194.779    21137051.70843  16474571.29442  22272196.170    22272194.833
  20486870.923    -3695874.03544  -2864000.98542  20486873.334    20486868.890
  23595464.197   -10012725.47843  -7786202.33642  23595466.003    23595465.123
 04  5 17 22 37 30.0000000  0  8G22G 3G19G11G25G15G14G31
  22128458.999    19152006.47143  14925091.34542  22128459.829    22128454.500
  24795760.375    26309895.74643  20506904.97342  24795761.911    24795764.577
  23160882.184     5257304.47343   4115264.21442  23160883.663    23160881.111
  22616963.899   -16471510.84843 -12569915.23342  22616966.528    22616963.163
  22407360.024   -15289490.32443 -11692227.48042  22407362.559    22407360.664
  22291433.724    21238152.88343  16553351.35942  22291435.145    22291433.836
  20493496.435    -3661056.71644  -2836870.61042  20493498.839    20493494.429
  23605834.032    -9958231.77343  -7743739.78642  23605835.871    23605835.062
 04  5 17 22 38  0.0000000  0  8G22G 3G19G11G25G15G14G31
  22139516.932    19210116.16443  14970371.59542  22139517.753    22139512.435
  24812596.172    26398367.72343  20575843.95742  24812597.776    24812600.544
  23173662.090     5324463.12943   4167595.54042  23173663.567    23173661.076
  22602710.286   -16546414.12643 -12628281.38342  22602712.861    22602709.480
  22390608.777   -15377518.47543 -11760820.75742  22390611.301    22390609.397
  22310728.954    21339549.66243  16632361.76842  22310730.376    22310729.091
  20500194.247    -3625859.28544  -2809444.04542  20500196.663    20500192.294
  23616276.994    -9903353.85543  -7700977.82842  23616278.855    23616278.042
 04  5 17 22 38 30.0000000  0  8G22G 3G19G11G25G15G14G31
  22150608.476    19268402.64943  15015789.60742  22150609.303    22150604.059
  24829424.074    26486798.21543  20644750.60442  24829425.465    24829428.495
  23186505.885     5391957.46143   4220188.44942  23186507.338    23186504.876
  22588524.628   -16620959.99543 -12686369.03842  22588527.241    22588523.854
  22373911.586   -15465262.38243 -11829192.54442  22373914.116    22373912.224
  22330081.039    21441245.27743  16711605.03042  22330082.523    22330081.134
  20506965.107    -3590278.22744  -2781718.54742  20506967.519    20506963.142
  23626793.665    -9848088.61943  -7657914.06042  23626795.517    23626794.828
 04  5 17 22 39  0.0000000  0  8G22G 3G19G11G25G15G14G31
  22161733.466    19326864.97443  15061344.63642  22161734.307    22161729.127
  24846243.406    26575183.54943  20713622.04542  24846244.781    24846247.856
  23199412.717     5459783.31643   4273039.67742  23199414.200    23199411.810
  22574407.175   -16695147.46043 -12744177.41542  22574409.795    22574406.406
  22357268.798   -15552720.51243 -11897341.64542  22357271.315    22357269.455
  22349489.392    21543236.42043  16791078.58442  22349490.884    22349489.471
  20513808.414    -3554316.37344  -2753696.32342  20513810.837    20513806.462
  23637383.183    -9792440.32743  -7614551.81942  23637385.055    23637384.397
 04  5 17 22 39 30.0000000  0  7G22G19G11G25G15G14G31
  22172893.317    19385510.30143  15107042.26142  22172894.146    22172889.004
  23212383.512     5527945.07343   4326152.65142  23212384.990    23212382.648
  22560359.732   -16768966.97943 -12801699.07642  22560362.350    22560358.982
  22340682.212   -15639883.33443 -11965260.63442  22340684.703    22340682.863
  22368954.942    21645528.30043  16870786.47042  22368956.467    22368955.044
  20520725.243    -3517968.15344  -2725373.03842  20520727.673    20520723.310
  23648046.519    -9736404.17043  -7570887.34842  23648048.416    23648047.797
 04  5 17 22 40  0.0000000  0  7G22G19G11G25G15G14G31
  22184084.715    19444321.35743  15152869.02942  22184085.532    22184080.388
  23225414.513     5596422.87843   4379511.90842  23225415.947    23225413.565
  22546379.625   -16842433.03943 -12858945.31642  22546382.196    22546378.841
  22324149.130   -15726765.03943 -12032960.57542  22324151.625    22324149.720
  22388474.080    21748101.73043  16950713.74442  22388475.589    22388474.232
  20527712.019    -3481252.54644  -2696763.47842  20527714.429    20527710.053
  23658780.007    -9679999.78743  -7526935.95742  23658781.853    23658781.258
 04  5 17 22 40 30.0000000  0  7G22G19G11G25G15G14G31
  22195309.056    19503305.57843  15198830.73242  22195309.886    22195304.747
  23238506.403     5665220.87043   4433120.65142  23238507.880    23238505.442
  22532468.615   -16915535.88243 -12915908.52942  22532471.176    22532467.790
  22307671.409   -15813355.61943 -12100433.67442  22307673.921    22307671.974
  22408047.739    21850961.63943  17030864.24442  22408049.244    22408047.929
  20534769.780    -3444163.74844  -2667863.11842  20534772.196    20534767.837
  23669584.339    -9623222.71643  -7482694.14142  23669586.177    23669585.668
 04  5 17 22 41  0.0000000  0  7G22G19G11G25G15G14G31
  22206567.285    19562467.95043  15244931.25242  22206568.106    22206563.009
  23251659.670     5734341.51643   4486980.81542  23251661.179    23251658.744
  22518628.008   -16988268.64743 -12972583.37242  22518630.575    22518627.191
  22291250.520   -15899647.49343 -12167674.00342  22291253.054    22291251.105
  22427676.478    21954110.97443  17111240.27342  22427677.948    22427676.643
  20541899.194    -3406698.64044  -2638669.53242  20541901.603    20541897.227
  23680460.114    -9566070.29143  -7438159.83642  23680461.991    23680461.469
 04  5 17 22 41 30.0000000  0  7G22G19G11G25G15G14G31
  22217858.100    19621801.45543  15291165.13142  22217858.913    22217853.841
  23264872.392     5803774.70343   4541084.51342  23264873.930    23264871.517
  22504856.846   -17060636.48543 -13028973.85442  22504859.432    22504856.040
  22274885.605   -15985645.16043 -12234685.08842  22274888.144    22274886.182
  22447358.509    22057540.44843  17191834.59442  22447359.955    22447358.713
  20549098.504    -3368866.15944  -2609189.68142  20549100.894    20549096.505
  23691405.461    -9508552.62743  -7393340.93442  23691407.323    23691406.838
 04  5 17 22 42  0.0000000  0  7G22G19G11G25G15G14G31
  22229182.221    19681309.83443  15337535.26242  22229183.033    22229177.943
  23278144.774     5873521.36943   4595432.48742  23278146.340    23278143.955
  22491156.437   -17132632.56943 -13085074.66042  22491159.005    22491155.584
  22258577.973   -16071341.87943 -12301461.66242  22258580.528    22258578.533
  22467094.181    22161251.92643  17272648.64442  22467095.602    22467094.430
  20556368.113    -3330664.05444  -2579421.81642  20556370.533    20556366.143
  23702420.480    -9450668.54943  -7348236.53442  23702422.348    23702421.872
 04  5 17 22 42 30.0000000  0  7G22G19G11G25G15G14G31
  22240539.964    19740994.86443  15384043.04942  22240540.774    22240535.650
  23291476.613     5943580.53943   4650023.96942  23291478.197    23291475.846
  22477527.393   -17204253.18943 -13140882.89742  22477530.022    22477526.553
  22242328.487   -16156733.21443 -12368000.27942  22242331.033    22242328.990
  22486883.514    22265245.17243  17353682.25142  22486884.893    22486883.793
  20563708.106    -3292092.06044  -2549365.72442  20563710.513    20563706.158
  23713505.131    -9392418.55243  -7302846.96542  23713506.986    23713506.546
 04  5 17 22 43  0.0000000  0  7G22G19G11G25G15G14G31
  22251930.447    19800852.15543  15430685.05942  22251931.248    22251926.119
  23304866.521     6013944.66943   4704853.08342  23304868.139    23304865.763
  22463969.455   -17275500.31443 -13196400.09342  22463972.048    22463968.589
  22226136.805   -16241820.92243 -12434302.31342  22226139.324    22226137.215
  22506725.166    22369513.48743  17434930.20342  22506726.542    22506725.509
  20571117.296    -3253156.49544  -2519026.33042  20571119.706    20571115.371
  23724658.055    -9333809.85343  -7257177.91542  23724659.895    23724659.456
 04  5 17 22 43 30.0000000  0  7G22G19G11G25G15G14G31
  22263354.203    19860884.39943  15477463.40342  22263355.015    22263349.880
  23318314.458     6084613.38943   4759919.53542  23318316.015    23318313.658
  22450483.514   -17346369.13443 -13251622.51642  22450486.113    22450482.643
  22210003.771   -16326600.29843 -12500364.08642  22210006.306    22210004.158
  22526619.192    22474057.14343  17516392.70842  22526620.565    22526619.578
  20578595.816    -3213856.65544  -2488403.08542  20578598.210    20578593.869
  23735879.214    -9274842.86843  -7211229.69242  23735881.034    23735880.506
 04  5 17 22 44  0.0000000  0  7G22G19G11G25G15G14G31
  22274810.798    19921089.26643  15524376.25042  22274811.630    22274806.493
  23331819.373     6155581.74643   4815219.47842  23331820.907    23331818.567
  22437069.531   -17416859.75543 -13306550.22942  22437072.126    22437068.665
  22193929.572   -16411070.57743 -12566185.00742  22193932.096    22193929.910
  22546564.836    22578872.04043  17598066.56642  22546566.243    22546565.288
  20586142.904    -3174196.49144  -2457499.07042  20586145.303    20586140.948
  23747167.573    -9215522.44543  -7165006.04142  23747169.401    23747168.874
 04  5 17 22 44 30.0000000  0  7G22G19G11G25G15G14G31
  22286300.897    19981470.04243  15571426.17742  22286301.715    22286296.598
  23345381.291     6226849.69043   4870752.84842  23345382.859    23345380.472
  22423728.642   -17486966.52043 -13361178.84042  22423731.227    22423727.764
  22177915.312   -16495225.95443 -12631760.56042  22177917.823    22177915.582
  22566562.301    22683959.22543  17679952.60642  22566563.703    22566562.762
  20593758.871    -3134174.37044  -2426313.01142  20593761.264    20593756.895
  23758523.366    -9155847.92143  -7118506.49742  23758525.214    23758524.566
 04  5 17 22 45  0.0000000  0  7G22G19G11G25G15G14G31
  22297824.264    20042025.60543  15618612.30642  22297825.078    22297819.950
  23358999.491     6298413.62443   4926516.86942  23359001.082    23358998.740
  22410461.001   -17556688.56543 -13415507.67842  22410463.580    22410460.076
  22161961.245   -16579064.81443 -12697089.47242  22161963.754    22161961.495
  22586610.961    22789315.28443  17762048.15542  22586612.392    22586611.399
  20601443.174    -3093793.12044  -2394847.11242  20601445.556    20601441.216
  23769945.704    -9095823.19643  -7071734.06242  23769947.598    23769946.981
 04  5 17 22 45 30.0000000  0  7G22G19G11G25G15G14G31
  22309380.820    20102755.44543  15665934.23142  22309381.632    22309376.476
  23372673.387     6370270.08243   4982508.83242  23372675.012    23372672.590
  22397266.941   -17626023.56843 -13469534.90942  22397269.535    22397266.055
  22146067.832   -16662584.98643 -12762170.05742  22146070.310    22146068.053
  22606710.346    22894937.68543  17844351.24742  22606711.716    22606710.716
  20609195.417    -3053054.94744  -2363103.09242  20609197.788    20609193.422
  23781434.112    -9035451.46943  -7024691.22542  23781435.978    23781435.441
 04  5 17 22 46  0.0000000  0  7G22G19G11G25G15G14G31
  22320970.110    20163657.42343  15713390.28242  22320970.929    22320965.727
  23386401.996     6442413.82343   5038724.63342  23386403.578    23386401.176
  22384146.490   -17694971.80843 -13523260.77842  22384149.108    22384145.618
  22130235.046   -16745786.44443 -12827002.30142  22130237.554    22130235.272
  22626859.538    23000822.02543  17926858.44142  22626860.954    22626859.916
  20617014.780    -3011963.91844  -2331084.12142  20617017.150    20617012.794
  23792987.641    -8974737.55943  -6977381.72942  23792989.485    23792989.026
 04  5 17 22 46 30.0000000  0  7G22G19G11G25G15G14G31
  22332593.043    20224736.13943  15760984.05842  22332593.838    22332588.639
  23400185.471     6514846.29043   5095165.42642  23400187.007    23400184.739
  22371100.973   -17763526.46643 -13576679.96142  22371103.579    22371100.052
  22114464.342   -16828661.92543 -12891580.53242  22114466.821    22114464.550
  22647058.922    23106970.37343  18009571.35942  22647060.369    22647059.381
  20624901.808    -2970517.24444  -2298788.02042  20624904.185    20624899.851
  23804606.588    -8913679.85143  -6929804.35742  23804608.448    23804607.917
 04  5 17 22 47  0.0000000  0  7G22G19G11G25G15G14G31
  22344248.478    20285985.86743  15808711.08042  22344249.292    22344244.096
  23414022.297     6587558.91243   5151824.52242  23414023.783    23414021.563
  22358129.645   -17831691.17443 -13629795.28642  22358132.258    22358128.704
  22098754.987   -16911214.81543 -12955907.39542  22098757.472    22098755.199
  22667307.063    23213374.89243  18092483.90042  22667308.562    22667307.556
  20632855.123    -2928722.35844  -2266220.58442  20632857.483    20632853.144
  23816289.291    -8852286.85043  -6881965.72742  23816291.189    23816290.669
 04  5 17 22 47 30.0000000  0  7G22G19G11G25G15G14G31
  22355937.324    20347411.16243  15856574.91342  22355938.152    22355932.988
  23427912.792     6660553.48243   5208703.30442  23427914.251    23427912.049
  22345233.904   -17899458.72443 -13682601.14342  22345236.499    22345232.942
  22083108.510   -16993437.35843 -13019976.84642  22083111.005    22083108.698
  22687604.510    23320038.38543  18175598.24142  22687606.018    22687604.995
  20640875.293    -2886576.03544  -2233379.30242  20640877.667    20640873.332
  23828036.289    -8790556.38243  -6833864.12842  23828038.122    23828037.600
 04  5 17 22 48  0.0000000  0  7G22G19G11G25G15G14G31
  22367659.694    20409012.61243  15904576.00442  22367660.528    22367655.418
  23441856.460     6733827.59443   5265799.92842  23441857.918    23441855.742
  22332414.251   -17966826.55343 -13735095.52942  22332416.827    22332413.262
  22067525.450   -17075326.69143 -13083786.65642  22067527.936    22067525.621
  22707950.875    23426959.06843  18258912.98742  22707952.399    22707951.416
  20648962.061    -2844079.81444  -2200265.37342  20648964.446    20648960.134
  23839847.040    -8728490.81343  -6785501.41042  23839848.865    23839848.319
 04  5 17 22 48 30.0000000  0  7G22G19G11G25G15G14G31
  22379414.306    20470783.35143  15952709.01142  22379415.128    22379410.059
  23455851.377     6807371.10043   5323106.46242  23455852.842    23455850.674
  22319669.732   -18033799.31743 -13787282.07042  22319672.330    22319668.767
  22052004.921   -17156887.39143 -13147340.38642  22052007.398    22052005.054
  22728344.439    23534127.63543  18342420.88742  22728345.940    22728344.972
  20657113.720    -2801242.44944  -2166885.61942  20657116.127    20657111.824
  23851719.656    -8666099.99943  -6736885.24642  23851721.513    23851720.926
 04  5 17 22 49  0.0000000  0  7G22G19G11G25G15G14G31
  22391202.600    20532731.08943  16000979.93242  22391203.419    22391198.347
  23469898.526     6881189.00143   5380626.79742  23469899.996    23469897.826
  22307002.224   -18100367.44143 -13839153.31542  22307004.820    22307001.248
  22036548.889   -17238109.23143 -13210630.07342  22036551.352    22036548.986
  22748786.236    23641549.64343  18426126.26742  22748787.739    22748786.804
  20665331.452    -2758057.95444  -2133235.37242  20665333.864    20665329.559
  23863655.114    -8603378.95443  -6688011.76642  23863656.982    23863656.397
 04  5 17 22 49 30.0000000  0  7G22G19G11G25G15G14G31
  22403023.793    20594851.57543  16049385.47142  22403024.607    22403019.506
  23483996.467     6955273.94443   5438355.22842  23483997.967    23483995.838
  22294411.378   -18166532.52743 -13890710.49542  22294413.974    22294410.397
  22021157.098   -17318993.43843 -13273656.66342  22021159.563    22021157.193
  22769275.038    23749218.62243  18510024.08942  22769276.522    22769275.640
  20673614.144    -2714532.09244  -2099319.12442  20673616.552    20673612.258
  23875652.055    -8540334.65143  -6638886.39742  23875653.960    23875653.400
 04  5 17 22 50  0.0000000  0  7G22G19G11G25G15G14G31
  22414877.817    20657144.55343  16097925.41142  22414878.612    22414873.503
  23498144.641     7029622.85643   5496289.33842  23498146.158    23498144.106
  22281897.585   -18232292.77743 -13941952.22442  22281900.177    22281896.587
  22005829.965   -17399537.94343 -13336418.54642  22005832.390    22005830.024
  22789810.397    23857132.32843  18594112.61342  22789811.883    22789810.990
  20681961.364    -2670667.15744  -2065138.66642  20681963.779    20681959.488
  23887710.007    -8476970.11543  -6589511.51042  23887711.863    23887711.402
 04  5 17 22 50 30.0000000  0  7G22G19G11G25G15G14G31
  22426765.694    20719615.68143  16146604.17342  22426766.534    22426761.379
  23512343.509     7104238.17043   5554431.03642  23512345.057    23512343.079
  22269462.348   -18297640.41943 -13992872.43842  22269464.912    22269461.284
  21990568.973   -17479734.69443 -13398909.45342  21990571.411    21990569.037
  22810392.974    23965294.00943  18678394.36142  22810394.402    22810393.553
  20690373.873    -2626459.20044  -2030690.91842  20690376.264    20690371.989
  23899829.383    -8413282.53843  -6539884.89342  23899831.299    23899830.811
 04  5 17 22 51  0.0000000  0  7G22G19G11G25G15G14G31
  22438685.573    20782254.85243  16195413.87542  22438686.394    22438681.270
  23526590.611     7179106.85543   5612770.16142  23526592.172    23526590.247
  22257104.102   -18362583.38343 -14043477.31842  22257106.661    22257103.013
  21975372.698   -17559591.25943 -13461135.28042  21975375.150    21975372.758
  22831020.416    24073691.46743  18762859.83942  22831021.852    22831021.011
  20698849.383    -2581920.04644  -1995985.09442  20698851.794    20698847.529
  23912007.810    -8349284.82643  -6490016.60242  23912009.732    23912009.225
 04  5 17 22 51 30.0000000  0  7G22G19G11G25G15G14G31
  22450638.805    20845069.39343  16244360.23042  22450639.653    22450634.536
  23540886.772     7254233.01443   5671309.91842  23540888.251    23540886.341
  22244824.623   -18427112.35143 -14093759.60442  22244827.159    22244823.510
  21960242.985   -17639098.07143 -13523088.57442  21960245.441    21960243.044
  22851693.637    24182329.60543  18847512.85442  22851695.080    22851694.241
  20707388.973    -2537044.24444  -1961016.94542  20707391.373    20707387.105
  23924246.026    -8284972.72443  -6439903.33342  23924247.935    23924247.456
 04  5 17 22 52  0.0000000  0  7G22G19G11G25G15G14G31
  22462624.957    20908056.67443  16293441.18342  22462625.772    22462620.670
  23555230.911     7329611.52743   5730046.30842  23555232.415    23555230.440
  22232623.910   -18491227.52843 -14143719.46042  22232626.431    22232622.766
  21945179.878   -17718255.00043 -13584769.23442  21945182.324    21945179.887
  22872411.722    24291203.53543  18932349.60342  22872413.174    22872412.395
  20715991.827    -2491835.89144  -1925789.67142  20715994.242    20715989.970
  23936543.105    -8220351.26543  -6389548.99842  23936545.003    23936544.561
 04  5 17 22 52 30.0000000  0  7G22G19G11G25G15G14G31
  22474644.094    20971217.45243  16342657.33042  22474644.925    22474639.787
  23569622.597     7405240.00243   5788977.47442  23569624.127    23569622.207
  22220502.458   -18554926.05043 -14193354.64242  22220504.985    22220501.320
  21930183.916   -17797058.99043 -13646174.87542  21930186.389    21930183.896
  22893174.382    24400311.80643  19017368.94142  22893175.804    22893175.114
  20724657.740    -2446296.23544  -1890304.23842  20724660.158    20724655.910
  23948898.660    -8155422.77843  -6338955.46842  23948900.459    23948900.005
 04  5 17 22 53  0.0000000  0  7G22G19G11G25G15G14G31
  22486696.598    21034553.63643  16392010.15342  22486697.428    22486692.276
  23584061.585     7481117.19243   5848102.44842  23584063.191    23584061.260
  22208461.038   -18618203.98143 -14242662.09242  22208463.573    22208459.896
  21915255.972   -17875505.50743 -13707301.96742  21915258.451    21915255.950
  22913981.575    24509654.08043  19102570.62542  22913982.958    22913982.341
  20733386.755    -2400425.05844  -1854560.47842  20733389.163    20733384.909
  23961312.388    -8090188.16543  -6288123.34942  23961314.239    23961313.834
 04  5 17 22 53 30.0000000  0  7G22G19G11G25G15G14G31
  22498781.579    21098060.50843  16441495.99042  22498782.395    22498777.285
  23598546.521     7557235.48643   5907415.29042  23598548.155    23598546.203
  22196499.191   -18681063.77643 -14291643.71842  22196501.726    22196498.023
  21900395.670   -17953596.68243 -13768152.16542  21900398.135    21900395.649
  22934832.064    24619223.70843  19187949.47342  22934833.437    22934832.843
  20742177.593    -2354228.94444  -1818563.51942  20742180.008    20742175.744
  23973783.013    -8024654.93443  -6237058.57642  23973784.774    23973784.405
 04  5 17 22 54  0.0000000  0  7G22G19G11G25G15G14G31
  22510899.967    21161742.67043  16491118.41242  22510900.762    22510895.635
  23613077.623     7633596.13543   5966916.97542  23613079.261    23613077.259
  22184618.127   -18743498.97043 -14340294.49042  22184620.689    22184616.981
  21885604.317   -18031325.60843 -13828720.09242  21885606.766    21885604.270
  22955726.231    24729022.84543  19273507.14942  22955727.593    22955727.012
  20751030.774    -2307705.21044  -1782311.27542  20751033.191    20751028.917
  23986310.680    -7958821.53143  -6185759.87842  23986312.410    23986312.150
 04  5 17 22 54 30.0000000  0  7G22G19G11G25G15G14G31
  22523051.364    21225598.46243  16540876.13342  22523052.154    22523047.068
  23627653.942     7710194.82043   6026604.15542  23627655.573    23627653.638
  22172817.965   -18805509.00543 -14388613.96542  22172820.533    22172816.844
  21870882.050   -18108691.47643 -13889005.12042  21870884.520    21870881.968
  22976663.234    24839047.20843  19359240.32242  22976664.602    22976664.056
  20759945.677    -2260857.22344  -1745806.36342  20759948.076    20759943.789
  23998894.578    -7892692.38343  -6134230.74242  23998896.432    23998896.222
 04  5 17 22 55  0.0000000  0  7G22G19G11G25G15G14G31
  22535235.364    21289625.70543  16590767.44942  22535236.165    22535231.105
  23642274.627     7787026.23143   6086472.67042  23642276.182    23642274.303
  22161098.778   -18867093.60643 -14436601.93842  22161101.355    22161097.677
  21856229.012   -18185693.65043 -13949006.75142  21856231.453    21856228.853
  22997642.295    24949292.56743  19445145.70642  22997643.647    22997643.148
  20768921.594    -2213688.51644  -1709051.53942  20768923.999    20768919.700
  24011533.959    -7826272.33943  -6082474.94242  24011535.779    24011535.591
 04  5 17 22 55 30.0000000  0  7G22G19G11G25G15G14G31
  22547452.565    21353827.30843  16640794.62542  22547453.341    22547448.309
  23656939.468     7864090.03343   6146522.26942  23656941.043    23656939.172
  22149461.434   -18928248.11143 -14484254.77142  22149464.027    22149460.352
  21841646.088   -18262327.20943 -14008721.15742  21841648.556    21841645.908
  23018663.525    25059759.64943  19531223.85442  23018664.943    23018664.430
  20777958.724    -2166198.12544  -1672046.05542  20777961.119    20777956.821
  24024228.603    -7759561.53543  -6030492.58242  24024230.476    24024230.301
 04  5 17 22 56  0.0000000  0  7G22G19G11G25G15G14G31
  22559702.459    21418200.58643  16690955.58442  22559703.203    22559698.180
  23671647.555     7941380.79043   6206748.71342  23671649.096    23671647.239
  22137905.852   -18988973.07043 -14531572.89542  22137908.415    22137904.771
  21827133.226   -18338592.53643 -14068148.63042  21827135.725    21827133.046
  23039726.017    25170443.53043  19617470.93242  23039727.437    23039726.968
  20787056.186    -2118390.60744  -1634793.45742  20787058.595    20787054.316
  24036977.663    -7692565.55743  -5978288.00642  24036979.511    24036979.354
 04  5 17 22 56 30.0000000  0  7G22G19G11G25G15G14G31
  22571985.468    21482748.05843  16741252.26842  22571986.240    22571981.183
  23686398.709     8018898.09743   6267151.68842  23686400.252    23686398.371
  22126432.796   -19049264.27743 -14578553.02842  22126435.367    22126431.699
  21812691.378   -18414484.65843 -14127285.29742  21812693.871    21812691.187
  23060829.808    25281344.32343  19703887.03942  23060831.201    23060830.787
  20796214.145    -2070265.20344  -1597293.15742  20796216.541    20796212.300
  24049780.858    -7625284.71343  -5925861.43742  24049782.667    24049782.608
 04  5 17 22 57  0.0000000  0  7G22G19G11G25G15G14G31
  22584301.609    21547469.73443  16791684.70142  22584302.382    22584297.356
  23701192.353     8096638.64443   6327728.61242  23701193.887    23701192.009
  22115042.777   -19109118.99243 -14625193.04142  22115045.374    22115041.706
  21798320.979   -18490001.38443 -14186129.44942  21798323.445    21798320.787
  23081974.442    25392459.84443  19790470.45142  23081975.897    23081975.436
  20805432.256    -2021823.82844  -1559546.64742  20805434.637    20805430.388
  24062637.672    -7557721.86043  -5873215.13042  24062639.501    24062639.375
 04  5 17 22 57 30.0000000  0  7G22G19G11G25G15G14G31
  22596650.059    21612361.05943  16842249.32842  22596650.849    22596645.815
  23716027.046     8174595.01343   6388473.71042  23716028.584    23716026.734
  22103735.274   -19168540.13443 -14671495.20642  22103737.877    22103734.204
  21784021.675   -18565144.62043 -14244682.57142  21784024.096    21784021.448
  23103158.775    25503783.63643  19877216.16642  23103160.181    23103159.737
  20814709.315    -1973072.52544  -1521558.63642  20814711.704    20814707.485
  24075546.779    -7489884.39143  -5820354.86342  24075548.632    24075548.528
 04  5 17 22 58  0.0000000  0  7G22G19G11G25G15G14G31
  22609031.625    21677426.46543  16892949.59842  22609032.410    22609027.414
  23730902.978     8252768.23043   6449387.77842  23730904.489    23730902.704
  22092511.540   -19227521.30043 -14717454.53442  22092514.119    22092510.436
  21769794.694   -18639907.89643 -14302939.61842  21769797.097    21769794.431
  23124383.003    25615317.00743  19964125.18842  23124384.367    23124383.905
  20824045.844    -1924008.94644  -1483327.28942  20824048.219    20824043.996
  24088508.460    -7421771.18143  -5767279.70442  24088510.313    24088510.109
 04  5 17 22 58 30.0000000  0  7G22G19G11G25G15G14G31
  22621445.900    21742663.83843  16943783.87042  22621446.675    22621441.716
  23745819.320     8331153.59543   6510467.16842  23745820.738    23745819.048
  22081371.512   -19286062.35043 -14763070.91542  22081374.094    22081370.413
  21755640.056   -18714290.88443 -14360900.34142  21755642.468    21755639.792
  23145646.379    25727056.01043  20051194.45042  23145647.734    23145647.170
  20833441.050    -1874636.92444  -1444855.59742  20833443.409    20833439.205
  24101521.690    -7353386.79743  -5713993.22642  24101523.465    24101523.307
 04  5 17 22 59  0.0000000  0  7G22G19G11G25G15G14G31
  22633893.229    21808074.87843  16994753.46642  22633893.996    22633889.068
  23760775.750     8409749.61043   6571710.69642  23760777.124    23760775.515
  22070315.942   -19344159.59643 -14808341.47042  22070318.543    22070314.852
  21741558.597   -18788289.33443 -14418561.42942  21741560.994    21741558.309
  23166948.687    25838999.98843  20138423.41942  23166950.092    23166949.450
  20842894.939    -1824956.59544  -1406143.67042  20842897.298    20842893.074
  24114586.220    -7284732.59043  -5660496.52842  24114587.999    24114587.837
 04  5 17 22 59 30.0000000  0  7G22G19G11G25G15G14G31
  22646373.250    21873657.57643  17045856.82842  22646374.037    22646369.097
  23775771.222     8488551.17543   6633114.39642  23775772.666    23775771.091
  22059344.848   -19401812.98043 -14853266.16342  22059347.430    22059343.757
  21727550.312   -18861903.04443 -14475922.71242  21727552.727    21727550.039
  23188289.224    25951144.65543  20225808.77442  23188290.604    23188289.928
  20852406.785    -1774971.49944  -1367194.26142  20852409.156    20852404.947
  24127701.101    -7215813.42743  -5606793.38442  24127702.998    24127702.785
 04  5 17 23  0  0.0000000  0  7G22G19G11G25G15G14G31
  22658886.360    21939414.10443  17097095.62842  22658887.140    22658882.173
  23790805.740     8567557.91843   6694677.97442  23790807.240    23790805.677
  22048459.052   -19459018.19043 -14897841.63442  22048461.601    22048457.930
  21713616.134   -18935127.29143 -14532980.51742  21713618.562    21713615.878
  23209667.956    26063490.30543  20313350.72542  23209669.348    23209668.639
  20861976.794    -1724680.94644  -1328006.83342  20861979.161    20861974.959
  24140866.364    -7146629.98643  -5552884.29342  24140868.265    24140868.021
 04  5 17 23  0 30.0000000  0  7G22G19G11G25G15G14G31
  22671431.941    22005341.31743  17148467.43342  22671432.732    22671427.764
  23805878.175     8646763.32943   6756396.34342  23805879.608    23805878.059
  22037658.225   -19515776.92543 -14942069.19642  22037660.782    22037657.080
  21699755.871   -19007963.11843 -14589735.66142  21699758.327    21699755.624
  23231083.801    26176030.95243  20401044.63642  23231085.189    23231084.472
  20871603.857    -1674090.39744  -1288585.64242  20871606.226    20871602.025
  24154080.791    -7077188.32343  -5498773.96942  24154082.659    24154082.442
 04  5 17 23  1  0.0000000  0  7G22G19G11G25G15G14G31
  22684010.397    22071441.50543  17199974.02542  22684011.204    22684006.270
  23820988.155     8726166.44743   6818268.79142  23820989.584    23820988.125
  22026943.265   -19572084.40743 -14985945.13342  22026945.818    22026942.066
  21685970.395   -19080406.00443 -14646184.60942  21685972.864    21685970.163
  23252536.804    26288766.74043  20488890.59642  23252538.195    23252537.482
  20881288.203    -1623198.91044  -1248929.95342  20881290.561    20881286.364
  24167344.206    -7007489.01743  -5444462.91442  24167346.115    24167345.796
 04  5 17 23  1 30.0000000  0  7G22G19G11G25G15G14G31
  22696621.859    22137715.08343  17251615.72442  22696622.630    22696617.765
  23836135.299     8805764.81443   6880293.37242  23836136.759    23836135.291
  22016314.622   -19627938.47543 -15029467.76242  22016317.159    22016313.343
  21672260.216   -19152453.23543 -14702325.26042  21672262.674    21672259.957
  23274026.557    26401695.76943  20576887.14142  23274027.966    23274027.288
  20891029.486    -1572008.21744  -1209041.11542  20891031.836    20891027.622
  24180656.121    -6937534.91043  -5389953.30342  24180657.993    24180657.752
 04  5 17 23  2  0.0000000  0  7G22G19G11G25G15G14G31
  22709265.980    22204160.33343  17303391.19242  22709266.726    22709261.900
  23851318.671     8885553.60343   6942466.32142  23851320.138    23851318.719
  22005772.309   -19683338.77143 -15072636.80642  22005774.860    22005770.983
  21658625.491   -19224103.98443 -14758156.95942  21658627.958    21658625.226
  23295552.272    26514813.93143  20665031.05442  23295553.700    23295553.088
  20900827.072    -1520521.59144  -1168921.68542  20900829.419    20900825.233
  24194015.588    -6867330.31943  -5335248.51042  24194017.464    24194017.400
 04  5 17 23  2 30.0000000  0  7G22G19G11G25G15G14G31
  22721942.214    22270774.22243  17355298.07142  22721942.935    22721938.127
  23866537.184     8965527.02243   7004783.14642  23866538.645    23866537.288
  21995316.142   -19738286.33143 -15115453.07142  21995318.685    21995314.781
  21645066.040   -19295359.06843 -14813680.35042  21645068.510    21645065.791
  23317113.118    26628116.39443  20753318.56342  23317114.497    23317113.937
  20910680.146    -1468743.46244  -1128575.10842  20910682.483    20910678.281
  24207421.708    -6796881.06743  -5280353.06442  24207423.615    24207423.544
 04  5 17 23  3  0.0000000  0  7G22G19G11G25G15G14G31
  22734652.084    22337565.02543  17407342.80742  22734652.833    22734648.057
  23881791.799     9045689.94543   7067247.63242  23881793.156    23881791.930
  21984948.014   -19792771.14343 -15157908.74442  21984950.543    21984946.641
  21631583.900   -19366208.17743 -14868887.39842  21631586.346    21631583.601
  23338710.081    26741608.71943  20841754.01442  23338711.447    23338710.992
  20920589.850    -1416667.56744  -1087996.50342  20920592.194    20920587.995
  24220875.337    -6726182.05943  -5225263.03842  24220877.293    24220877.134
 04  5 17 23  3 30.0000000  0  7G22G19G11G25G15G14G31
  22747394.697    22404527.71943  17459521.47742  22747395.451    22747390.685
  23897080.956     9126034.55343   7129853.70142  23897082.277    23897081.099
  21974667.399   -19846796.07643 -15200006.07342  21974669.934    21974666.040
  21618178.514   -19436653.75843 -14923780.00642  21618180.956    21618178.195
  23360341.851    26855283.70843  20930331.81342  23360343.127    23360342.781
  20930554.879    -1364300.98644  -1047191.39142  20930557.252    20930553.012
  24234374.994    -6655241.27943  -5169984.59842  24234376.903    24234376.817
 04  5 17 23  4  0.0000000  0  7G22G19G11G25G15G14G31
  22760169.078    22471657.40543  17511830.27742  22760169.850    22760165.091
  23912403.158     9206552.82843   7192595.09442  23912404.488    23912403.312
  21964473.711   -19900364.18643 -15241747.43842  21964476.260    21964472.352
  21604849.372   -19506698.70243 -14978360.43642  21604851.833    21604849.067
  23382006.980    26969134.19443  21019046.35042  23382008.235    23382007.942
  20940574.027    -1311650.08344  -1006164.72742  20940576.417    20940572.165
  24247919.231    -6584066.38743  -5114523.72442  24247921.084    24247921.093
 04  5 17 23  4 30.0000000  0  7G22G19G11G25G15G14G31
  22772977.249    22538964.64243  17564277.42442  22772978.039    22772973.274
  23927759.830     9287252.41743   7255477.76442  23927761.211    23927760.090
  21954369.327   -19953463.12543 -15283123.21742  21954371.849    21954367.955
  21591598.921   -19576330.17843 -15032618.68042  21591601.351    21591598.600
  23403707.041    27083168.40343  21107904.05342  23403708.336    23403708.050
  20950648.961    -1258706.02844   -964909.63642  20950651.364    20950647.095
  24261509.413    -6512649.78443  -5058874.48442  24261511.391    24261511.340
 04  5 17 23  5  0.0000000  0  7G22G19G11G25G15G14G31
  22785817.763    22606441.71343  17616856.91142  22785818.537    22785813.814
  23943149.001     9368122.45243   7318493.24342  23943150.340    23943149.261
  21944353.117   -20006098.48743 -15324137.76542  21944355.640    21944351.786
  21578426.097   -19645553.54543 -15086558.91942  21578428.516    21578425.757
  23425440.153    27197376.21543  21196897.02542  23425441.446    23425441.235
  20960777.859    -1205478.36844   -923433.55542  20960780.261    20960776.016
  24275143.597    -6441002.06943  -5003045.15542  24275145.619    24275145.446
 04  5 17 23  5 30.0000000  0  7G22G19G11G25G15G14G31
  22798690.283    22674087.08443  17669567.53942  22798691.044    22798686.359
  23958569.785     9449158.56343   7381638.14142  23958571.224    23958570.044
  21934425.313   -20058269.50943 -15364790.48742  21934427.810    21934423.970
  21565331.045   -19714368.33443 -15140180.78842  21565333.450    21565330.665
  23447205.625    27311754.00643  21286022.45142  23447206.882    23447206.686
  20970960.135    -1151970.19644   -881738.89042  20970962.536    20970958.293
  24288820.901    -6369127.58643  -4947039.18542  24288822.925    24288822.835
 04  5 17 23  6  0.0000000  0  7G22G19G11G25G15G14G31
  22811595.962    22741906.67243  17722413.91542  22811596.681    22811592.042
  23974022.665     9530363.38943   7444914.49142  23974024.124    23974022.927
  21924587.174   -20109969.31643 -15405076.03342  21924589.661    21924585.798
  21552315.251   -19782766.58743 -15193478.08142  21552317.666    21552314.845
  23469004.091    27426305.24343  21375283.02542  23469005.317    23469005.191
  20981196.568    -1098177.46144   -839822.48842  20981198.951    20981194.717
  24302541.936    -6297023.65243  -4890854.40442  24302543.926    24302543.845
